<?xml version='1.0' encoding='UTF-8'?><gpx version="1.1" creator="JPX - https://github.com/jenetics/jpx" xmlns="http://www.topografix.com/GPX/1/1"><trk><trkseg><trkpt lat="44.71139115196009" lon="9.928864800371707"><ele>595.0</ele><time>2026-03-29T13:15:42Z</time></trkpt><trkpt lat="44.71135498798911" lon="9.928783056157632"><ele>595.0</ele><time>2026-03-29T13:16:18Z</time></trkpt><trkpt lat="44.71134646939464" lon="9.928682078547341"><ele>595.0</ele><time>2026-03-29T13:16:25Z</time></trkpt><trkpt lat="44.711353912459636" lon="9.928583478123135"><ele>595.0</ele><time>2026-03-29T13:16:32Z</time></trkpt><trkpt lat="44.71133758909278" lon="9.928487934154406"><ele>595.0</ele><time>2026-03-29T13:16:38Z</time></trkpt><trkpt lat="44.711329463762574" lon="9.92839775525338"><ele>595.0</ele><time>2026-03-29T13:16:44Z</time></trkpt><trkpt lat="44.71132671028511" lon="9.928297561075727"><ele>595.0</ele><time>2026-03-29T13:16:49.999Z</time></trkpt><trkpt lat="44.711318590839376" lon="9.928198512929912"><ele>597.1428571428571</ele><time>2026-03-29T13:16:55.999Z</time></trkpt><trkpt lat="44.71127952494468" lon="9.928128800971137"><ele>599.2857142857142</ele><time>2026-03-29T13:17:01.999Z</time></trkpt><trkpt lat="44.71121547451745" lon="9.928047660008358"><ele>601.4285714285714</ele><time>2026-03-29T13:17:07.999Z</time></trkpt><trkpt lat="44.711273354331475" lon="9.928091571796998"><ele>603.5714285714286</ele><time>2026-03-29T13:18:07Z</time></trkpt><trkpt lat="44.71129148867584" lon="9.928179204588865"><ele>605.7142857142857</ele><time>2026-03-29T13:18:12Z</time></trkpt><trkpt lat="44.71125530142242" lon="9.928106048716382"><ele>607.8571428571429</ele><time>2026-03-29T13:19:12.999Z</time></trkpt><trkpt lat="44.71130056777153" lon="9.928199565420094"><ele>610.0</ele><time>2026-03-29T13:20:03Z</time></trkpt><trkpt lat="44.71131245820394" lon="9.928319192982384"><ele>607.5</ele><time>2026-03-29T13:20:06Z</time></trkpt><trkpt lat="44.71132535191704" lon="9.928447690689357"><ele>605.0</ele><time>2026-03-29T13:20:09Z</time></trkpt><trkpt lat="44.711336797460305" lon="9.92855728416474"><ele>602.5</ele><time>2026-03-29T13:20:11Z</time></trkpt><trkpt lat="44.7113448390302" lon="9.928665150116972"><ele>600.0</ele><time>2026-03-29T13:20:14Z</time></trkpt><trkpt lat="44.71135339165051" lon="9.92876221082029"><ele>597.5</ele><time>2026-03-29T13:20:17Z</time></trkpt><trkpt lat="44.71136608820758" lon="9.928861282541265"><ele>595.0</ele><time>2026-03-29T13:20:20Z</time></trkpt><trkpt lat="44.711371689129436" lon="9.928971770231533"><ele>595.0</ele><time>2026-03-29T13:20:24Z</time></trkpt><trkpt lat="44.711382031321875" lon="9.929060197532538"><ele>595.0</ele><time>2026-03-29T13:20:27Z</time></trkpt><trkpt lat="44.71138760133689" lon="9.92914941902166"><ele>595.0</ele><time>2026-03-29T13:20:30Z</time></trkpt><trkpt lat="44.71139072457943" lon="9.92925644848983"><ele>595.0</ele><time>2026-03-29T13:20:33Z</time></trkpt><trkpt lat="44.71139501544275" lon="9.929347973698196"><ele>595.0</ele><time>2026-03-29T13:20:36Z</time></trkpt><trkpt lat="44.71140949350913" lon="9.92943656913941"><ele>595.0</ele><time>2026-03-29T13:20:40Z</time></trkpt><trkpt lat="44.71144182190695" lon="9.929518988199781"><ele>595.0</ele><time>2026-03-29T13:20:47Z</time></trkpt><trkpt lat="44.71147770394454" lon="9.929596237433088"><ele>593.1428571428571</ele><time>2026-03-29T13:20:49Z</time></trkpt><trkpt lat="44.71151163405254" lon="9.929680647663178"><ele>591.2857142857142</ele><time>2026-03-29T13:20:51Z</time></trkpt><trkpt lat="44.711556010818676" lon="9.929769052184188"><ele>589.4285714285714</ele><time>2026-03-29T13:20:54Z</time></trkpt><trkpt lat="44.711588168061155" lon="9.929853422582823"><ele>587.5714285714286</ele><time>2026-03-29T13:20:57Z</time></trkpt><trkpt lat="44.71156316052065" lon="9.929936391359632"><ele>585.7142857142857</ele><time>2026-03-29T13:21:07Z</time></trkpt><trkpt lat="44.71149705487668" lon="9.929972050203189"><ele>583.8571428571429</ele><time>2026-03-29T13:25:03Z</time></trkpt><trkpt lat="44.711425896685505" lon="9.929977705850215"><ele>582.0</ele><time>2026-03-29T13:25:17Z</time></trkpt><trkpt lat="44.71135273461986" lon="9.929985757358475"><ele>582.0</ele><time>2026-03-29T13:25:42Z</time></trkpt><trkpt lat="44.71126621234962" lon="9.929984420527438"><ele>582.0</ele><time>2026-03-29T13:25:45Z</time></trkpt><trkpt lat="44.71119559533625" lon="9.930001733865756"><ele>582.0</ele><time>2026-03-29T13:25:47Z</time></trkpt><trkpt lat="44.71110120459128" lon="9.930029129818674"><ele>582.0</ele><time>2026-03-29T13:25:50Z</time></trkpt><trkpt lat="44.711032625636484" lon="9.93006263000354"><ele>582.0</ele><time>2026-03-29T13:25:52Z</time></trkpt><trkpt lat="44.71094476324114" lon="9.930045499321668"><ele>582.0</ele><time>2026-03-29T13:25:55Z</time></trkpt><trkpt lat="44.710861877852025" lon="9.930007310149017"><ele>583.1666666666666</ele><time>2026-03-29T13:25:57Z</time></trkpt><trkpt lat="44.71077109409393" lon="9.930011154254068"><ele>584.3333333333334</ele><time>2026-03-29T13:25:59Z</time></trkpt><trkpt lat="44.710688572181155" lon="9.930092471437543"><ele>585.5</ele><time>2026-03-29T13:26:01Z</time></trkpt><trkpt lat="44.7106333271065" lon="9.930184680043054"><ele>586.6666666666667</ele><time>2026-03-29T13:26:03Z</time></trkpt><trkpt lat="44.71059996311534" lon="9.93028123194693"><ele>587.8333333333334</ele><time>2026-03-29T13:26:06Z</time></trkpt><trkpt lat="44.71052715727236" lon="9.930326536442823"><ele>589.0</ele><time>2026-03-29T13:26:09Z</time></trkpt><trkpt lat="44.710462982523346" lon="9.930369397437"><ele>589.0</ele><time>2026-03-29T13:26:11Z</time></trkpt><trkpt lat="44.71036995171107" lon="9.930390840593628"><ele>589.0</ele><time>2026-03-29T13:26:13Z</time></trkpt><trkpt lat="44.710276227424124" lon="9.93043181892205"><ele>589.0</ele><time>2026-03-29T13:26:15Z</time></trkpt><trkpt lat="44.71018941258187" lon="9.930467163429324"><ele>589.0</ele><time>2026-03-29T13:26:17Z</time></trkpt><trkpt lat="44.7101088539759" lon="9.930548346587827"><ele>589.0</ele><time>2026-03-29T13:26:19Z</time></trkpt><trkpt lat="44.71003619256376" lon="9.930656300946046"><ele>592.2</ele><time>2026-03-29T13:26:21Z</time></trkpt><trkpt lat="44.709976412427594" lon="9.930771896229631"><ele>595.4</ele><time>2026-03-29T13:26:23Z</time></trkpt><trkpt lat="44.7099205877725" lon="9.930891066067545"><ele>598.6</ele><time>2026-03-29T13:26:25Z</time></trkpt><trkpt lat="44.709870178761115" lon="9.93099265242688"><ele>601.8</ele><time>2026-03-29T13:26:27Z</time></trkpt><trkpt lat="44.709814751567166" lon="9.93107952470743"><ele>605.0</ele><time>2026-03-29T13:26:30Z</time></trkpt><trkpt lat="44.70973750640206" lon="9.931137954492211"><ele>605.0</ele><time>2026-03-29T13:26:33Z</time></trkpt><trkpt lat="44.709684179910695" lon="9.931222017681286"><ele>605.0</ele><time>2026-03-29T13:30:42.999Z</time></trkpt><trkpt lat="44.70965194425328" lon="9.931304685936816"><ele>605.0</ele><time>2026-03-29T13:30:50.999Z</time></trkpt><trkpt lat="44.70967168346811" lon="9.9314271064979"><ele>605.0</ele><time>2026-03-29T13:30:59.999Z</time></trkpt><trkpt lat="44.709663759297165" lon="9.931536527083232"><ele>605.0</ele><time>2026-03-29T13:31:02.999Z</time></trkpt><trkpt lat="44.70966305305611" lon="9.931641961025484"><ele>605.0</ele><time>2026-03-29T13:35:58.999Z</time></trkpt><trkpt lat="44.70960188149399" lon="9.931685635145271"><ele>605.0</ele><time>2026-03-29T13:36:22Z</time></trkpt><trkpt lat="44.70950894487053" lon="9.931673291515766"><ele>605.0</ele><time>2026-03-29T13:39:25Z</time></trkpt><trkpt lat="44.70943699748824" lon="9.931671326985796"><ele>605.0</ele><time>2026-03-29T13:39:27Z</time></trkpt><trkpt lat="44.7093678321779" lon="9.93165863347007"><ele>605.0</ele><time>2026-03-29T13:39:29Z</time></trkpt><trkpt lat="44.709303765038015" lon="9.931640838358572"><ele>605.0</ele><time>2026-03-29T13:39:32Z</time></trkpt><trkpt lat="44.709218404967466" lon="9.931684558958862"><ele>605.0</ele><time>2026-03-29T13:39:42.999Z</time></trkpt><trkpt lat="44.70914722624174" lon="9.931769663905566"><ele>608.5</ele><time>2026-03-29T13:39:44.999Z</time></trkpt><trkpt lat="44.7091285797704" lon="9.931905732012885"><ele>612.0</ele><time>2026-03-29T13:39:47.999Z</time></trkpt><trkpt lat="44.709132604806534" lon="9.932005774114263"><ele>615.5</ele><time>2026-03-29T13:39:50.999Z</time></trkpt><trkpt lat="44.7090853300708" lon="9.932065495457174"><ele>619.0</ele><time>2026-03-29T13:39:56.999Z</time></trkpt><trkpt lat="44.709082167269614" lon="9.932175334704931"><ele>622.5</ele><time>2026-03-29T13:40:30Z</time></trkpt><trkpt lat="44.70909669157486" lon="9.932293605906448"><ele>626.0</ele><time>2026-03-29T13:40:33Z</time></trkpt><trkpt lat="44.709098010265286" lon="9.932390108900984"><ele>626.0</ele><time>2026-03-29T13:40:36Z</time></trkpt><trkpt lat="44.70910424579089" lon="9.932482847380097"><ele>626.0</ele><time>2026-03-29T13:40:40Z</time></trkpt><trkpt lat="44.70910333443518" lon="9.93258258745204"><ele>626.0</ele><time>2026-03-29T13:40:44Z</time></trkpt><trkpt lat="44.70912361292176" lon="9.932677447767192"><ele>626.0</ele><time>2026-03-29T13:40:48Z</time></trkpt><trkpt lat="44.709124911398135" lon="9.932851085076512"><ele>626.0</ele><time>2026-03-29T13:45:26Z</time></trkpt><trkpt lat="44.709121064339875" lon="9.932964387520283"><ele>626.0</ele><time>2026-03-29T13:45:28Z</time></trkpt><trkpt lat="44.709096783341245" lon="9.93309090985757"><ele>624.8</ele><time>2026-03-29T13:45:30Z</time></trkpt><trkpt lat="44.70905427693589" lon="9.933228810474196"><ele>623.6</ele><time>2026-03-29T13:45:32Z</time></trkpt><trkpt lat="44.70901823497158" lon="9.933378212912377"><ele>622.4</ele><time>2026-03-29T13:45:34Z</time></trkpt><trkpt lat="44.709027674897904" lon="9.933525019456816"><ele>621.2</ele><time>2026-03-29T13:45:36Z</time></trkpt><trkpt lat="44.70905593813761" lon="9.933665789678916"><ele>620.0</ele><time>2026-03-29T13:45:38Z</time></trkpt><trkpt lat="44.7090727838966" lon="9.933758941281745"><ele>619.0</ele><time>2026-03-29T13:45:39Z</time></trkpt><trkpt lat="44.70908888525802" lon="9.93386287381479"><ele>618.0</ele><time>2026-03-29T13:45:40Z</time></trkpt><trkpt lat="44.709096782138054" lon="9.933983253672498"><ele>617.0</ele><time>2026-03-29T13:45:41Z</time></trkpt><trkpt lat="44.709088145489304" lon="9.93410362957298"><ele>616.0</ele><time>2026-03-29T13:45:42Z</time></trkpt><trkpt lat="44.709089690730465" lon="9.934208829914908"><ele>615.0</ele><time>2026-03-29T13:45:43Z</time></trkpt><trkpt lat="44.70910356247996" lon="9.934303580982553"><ele>614.0</ele><time>2026-03-29T13:45:44Z</time></trkpt><trkpt lat="44.709137782304985" lon="9.934456082791476"><ele>613.2857142857142</ele><time>2026-03-29T13:45:46Z</time></trkpt><trkpt lat="44.709156785913486" lon="9.934544182887164"><ele>612.5714285714286</ele><time>2026-03-29T13:45:48Z</time></trkpt><trkpt lat="44.70910240438749" lon="9.934591425867175"><ele>611.8571428571429</ele><time>2026-03-29T13:45:52Z</time></trkpt><trkpt lat="44.70902837433357" lon="9.93450840462841"><ele>611.1428571428571</ele><time>2026-03-29T13:45:54Z</time></trkpt><trkpt lat="44.708958555249026" lon="9.93445902585449"><ele>610.4285714285714</ele><time>2026-03-29T13:45:55Z</time></trkpt><trkpt lat="44.7089000550499" lon="9.934414078105947"><ele>609.7142857142857</ele><time>2026-03-29T13:45:56Z</time></trkpt><trkpt lat="44.70883296293544" lon="9.934382469595791"><ele>609.0</ele><time>2026-03-29T13:45:57Z</time></trkpt><trkpt lat="44.708757647570536" lon="9.934369827839419"><ele>609.0</ele><time>2026-03-29T13:45:58Z</time></trkpt><trkpt lat="44.70868701794527" lon="9.934342991498228"><ele>609.0</ele><time>2026-03-29T13:45:59Z</time></trkpt><trkpt lat="44.708619323423235" lon="9.934329782557208"><ele>609.0</ele><time>2026-03-29T13:46:00Z</time></trkpt><trkpt lat="44.70855355114204" lon="9.934314742643167"><ele>609.0</ele><time>2026-03-29T13:46:01Z</time></trkpt><trkpt lat="44.708486948821225" lon="9.93429694257179"><ele>609.0</ele><time>2026-03-29T13:46:02Z</time></trkpt><trkpt lat="44.708419811737436" lon="9.934283124936988"><ele>609.0</ele><time>2026-03-29T13:46:03Z</time></trkpt><trkpt lat="44.70834643494916" lon="9.934268061611256"><ele>609.0</ele><time>2026-03-29T13:46:04Z</time></trkpt><trkpt lat="44.708273131616636" lon="9.934254041422298"><ele>608.5</ele><time>2026-03-29T13:46:05Z</time></trkpt><trkpt lat="44.70820192794427" lon="9.934235312545534"><ele>608.0</ele><time>2026-03-29T13:46:06Z</time></trkpt><trkpt lat="44.7081342604021" lon="9.934218321739026"><ele>607.5</ele><time>2026-03-29T13:46:07Z</time></trkpt><trkpt lat="44.70806221064198" lon="9.93420054948156"><ele>607.0</ele><time>2026-03-29T13:46:08Z</time></trkpt><trkpt lat="44.707997144844086" lon="9.934183153450329"><ele>606.5</ele><time>2026-03-29T13:46:09Z</time></trkpt><trkpt lat="44.707903417734215" lon="9.93415418784914"><ele>606.0</ele><time>2026-03-29T13:46:10Z</time></trkpt><trkpt lat="44.70781082940358" lon="9.934105813854817"><ele>604.0</ele><time>2026-03-29T13:46:11Z</time></trkpt><trkpt lat="44.70772988249854" lon="9.934057058828733"><ele>602.0</ele><time>2026-03-29T13:46:12Z</time></trkpt><trkpt lat="44.70764478198493" lon="9.93399359111916"><ele>600.0</ele><time>2026-03-29T13:46:12.999Z</time></trkpt><trkpt lat="44.70755547084294" lon="9.933926546317732"><ele>598.0</ele><time>2026-03-29T13:46:13.999Z</time></trkpt><trkpt lat="44.707468942960894" lon="9.933860214984957"><ele>596.0</ele><time>2026-03-29T13:46:14.999Z</time></trkpt><trkpt lat="44.70738065459484" lon="9.933791026584089"><ele>596.0</ele><time>2026-03-29T13:46:15.999Z</time></trkpt><trkpt lat="44.70730034859923" lon="9.933730859204669"><ele>596.0</ele><time>2026-03-29T13:46:16.999Z</time></trkpt><trkpt lat="44.707229928986436" lon="9.93367745542879"><ele>596.0</ele><time>2026-03-29T13:46:17.999Z</time></trkpt><trkpt lat="44.70716730213771" lon="9.933626796020254"><ele>596.0</ele><time>2026-03-29T13:46:18.999Z</time></trkpt><trkpt lat="44.70710720401086" lon="9.933567810981701"><ele>596.0</ele><time>2026-03-29T13:46:19.999Z</time></trkpt><trkpt lat="44.70705261966457" lon="9.933491793409836"><ele>596.0</ele><time>2026-03-29T13:46:20.999Z</time></trkpt><trkpt lat="44.707023182133774" lon="9.933398212011218"><ele>597.8333333333333</ele><time>2026-03-29T13:46:21.999Z</time></trkpt><trkpt lat="44.70702905487451" lon="9.933272636070445"><ele>599.6666666666666</ele><time>2026-03-29T13:46:22.999Z</time></trkpt><trkpt lat="44.70705554965368" lon="9.933154584118848"><ele>601.5</ele><time>2026-03-29T13:46:23.999Z</time></trkpt><trkpt lat="44.70708028945562" lon="9.933025395898543"><ele>603.3333333333334</ele><time>2026-03-29T13:46:24.999Z</time></trkpt><trkpt lat="44.70710511858913" lon="9.932907344354394"><ele>605.1666666666667</ele><time>2026-03-29T13:46:25.999Z</time></trkpt><trkpt lat="44.70712698636121" lon="9.93279396998168"><ele>607.0</ele><time>2026-03-29T13:46:26.999Z</time></trkpt><trkpt lat="44.70713288246953" lon="9.932672379779268"><ele>607.0</ele><time>2026-03-29T13:46:27.999Z</time></trkpt><trkpt lat="44.707157033719184" lon="9.93256090223448"><ele>607.0</ele><time>2026-03-29T13:46:28.999Z</time></trkpt><trkpt lat="44.70717632794937" lon="9.932450109949198"><ele>607.0</ele><time>2026-03-29T13:46:29.999Z</time></trkpt><trkpt lat="44.70718847239246" lon="9.932331866190044"><ele>607.0</ele><time>2026-03-29T13:46:30.999Z</time></trkpt><trkpt lat="44.707188718367384" lon="9.932206686106998"><ele>607.0</ele><time>2026-03-29T13:46:31.999Z</time></trkpt><trkpt lat="44.70718288831217" lon="9.932073033747919"><ele>607.0</ele><time>2026-03-29T13:46:32.999Z</time></trkpt><trkpt lat="44.70717642890468" lon="9.931933087324733"><ele>607.0</ele><time>2026-03-29T13:46:33.999Z</time></trkpt><trkpt lat="44.707169458128696" lon="9.931797485172913"><ele>607.0</ele><time>2026-03-29T13:46:34.999Z</time></trkpt><trkpt lat="44.70715054836127" lon="9.931659841046757"><ele>607.0</ele><time>2026-03-29T13:46:35.999Z</time></trkpt><trkpt lat="44.70711706037528" lon="9.931527735726734"><ele>607.0</ele><time>2026-03-29T13:46:36.999Z</time></trkpt><trkpt lat="44.7070670710534" lon="9.93140305478113"><ele>607.0</ele><time>2026-03-29T13:46:37.999Z</time></trkpt><trkpt lat="44.70700975658811" lon="9.931287748388291"><ele>607.0</ele><time>2026-03-29T13:46:38.999Z</time></trkpt><trkpt lat="44.70693122012268" lon="9.931182159469138"><ele>607.0</ele><time>2026-03-29T13:46:39.999Z</time></trkpt><trkpt lat="44.70683538555483" lon="9.93108620868064"><ele>607.0</ele><time>2026-03-29T13:46:40.999Z</time></trkpt><trkpt lat="44.70673461402104" lon="9.93100451195055"><ele>607.0</ele><time>2026-03-29T13:46:41.999Z</time></trkpt><trkpt lat="44.70663522058251" lon="9.930920155795702"><ele>601.5</ele><time>2026-03-29T13:46:42.999Z</time></trkpt><trkpt lat="44.7065414227478" lon="9.930820322945417"><ele>596.0</ele><time>2026-03-29T13:46:43.999Z</time></trkpt><trkpt lat="44.706464278627905" lon="9.930691526385997"><ele>590.5</ele><time>2026-03-29T13:46:44.999Z</time></trkpt><trkpt lat="44.7063995607355" lon="9.930559953231834"><ele>585.0</ele><time>2026-03-29T13:46:45.999Z</time></trkpt><trkpt lat="44.70634182672854" lon="9.930428992023046"><ele>585.0</ele><time>2026-03-29T13:46:47Z</time></trkpt><trkpt lat="44.70627795226224" lon="9.930304365737653"><ele>585.0</ele><time>2026-03-29T13:46:48Z</time></trkpt><trkpt lat="44.70618982630555" lon="9.930195706953695"><ele>585.0</ele><time>2026-03-29T13:46:49Z</time></trkpt><trkpt lat="44.706085880803336" lon="9.930110150553794"><ele>585.0</ele><time>2026-03-29T13:46:50Z</time></trkpt><trkpt lat="44.70597764518521" lon="9.930074050010862"><ele>583.25</ele><time>2026-03-29T13:46:51Z</time></trkpt><trkpt lat="44.70586833183943" lon="9.930087186416149"><ele>581.5</ele><time>2026-03-29T13:46:52Z</time></trkpt><trkpt lat="44.70575869319376" lon="9.93015529949187"><ele>579.75</ele><time>2026-03-29T13:46:53Z</time></trkpt><trkpt lat="44.70564709898776" lon="9.930257961402253"><ele>578.0</ele><time>2026-03-29T13:46:54Z</time></trkpt><trkpt lat="44.70554633058726" lon="9.930374354420731"><ele>578.0</ele><time>2026-03-29T13:46:55Z</time></trkpt><trkpt lat="44.70545153108969" lon="9.930502352870691"><ele>578.0</ele><time>2026-03-29T13:46:56Z</time></trkpt><trkpt lat="44.70537137798787" lon="9.930636197711054"><ele>578.0</ele><time>2026-03-29T13:46:57Z</time></trkpt><trkpt lat="44.70528668310054" lon="9.930746282248132"><ele>578.0</ele><time>2026-03-29T13:46:58Z</time></trkpt><trkpt lat="44.70520316927801" lon="9.930833536589196"><ele>576.1666666666666</ele><time>2026-03-29T13:46:59Z</time></trkpt><trkpt lat="44.705127828932326" lon="9.93092416111511"><ele>574.3333333333333</ele><time>2026-03-29T13:47:00Z</time></trkpt><trkpt lat="44.705073747813096" lon="9.93099848393393"><ele>572.5</ele><time>2026-03-29T13:47:01Z</time></trkpt><trkpt lat="44.70501985896769" lon="9.93104684536943"><ele>570.6666666666666</ele><time>2026-03-29T13:47:02Z</time></trkpt><trkpt lat="44.704955137860324" lon="9.931046478227335"><ele>568.8333333333334</ele><time>2026-03-29T13:47:03Z</time></trkpt><trkpt lat="44.70487813123465" lon="9.931017525989319"><ele>567.0</ele><time>2026-03-29T13:47:04Z</time></trkpt><trkpt lat="44.70476060154546" lon="9.930962168417294"><ele>567.0</ele><time>2026-03-29T13:47:05Z</time></trkpt><trkpt lat="44.70464216175815" lon="9.930924975653488"><ele>567.0</ele><time>2026-03-29T13:47:06Z</time></trkpt><trkpt lat="44.704536776007664" lon="9.93093999637815"><ele>567.0</ele><time>2026-03-29T13:47:07Z</time></trkpt><trkpt lat="44.7044293766162" lon="9.930977792767287"><ele>567.0</ele><time>2026-03-29T13:47:08Z</time></trkpt><trkpt lat="44.704324833348316" lon="9.931027174851476"><ele>567.0</ele><time>2026-03-29T13:47:09Z</time></trkpt><trkpt lat="44.70422643436043" lon="9.931058172896138"><ele>567.1666666666666</ele><time>2026-03-29T13:47:10Z</time></trkpt><trkpt lat="44.7041392991514" lon="9.931044711439744"><ele>567.3333333333334</ele><time>2026-03-29T13:47:11Z</time></trkpt><trkpt lat="44.70406186433046" lon="9.931049044426548"><ele>567.5</ele><time>2026-03-29T13:47:12Z</time></trkpt><trkpt lat="44.703989325887015" lon="9.931040740046601"><ele>567.6666666666667</ele><time>2026-03-29T13:47:13Z</time></trkpt><trkpt lat="44.70392533534556" lon="9.930990386903682"><ele>567.8333333333334</ele><time>2026-03-29T13:47:14Z</time></trkpt><trkpt lat="44.703861848841726" lon="9.93091170418277"><ele>568.0</ele><time>2026-03-29T13:47:15Z</time></trkpt><trkpt lat="44.703804703198955" lon="9.93080944297961"><ele>567.8</ele><time>2026-03-29T13:47:16Z</time></trkpt><trkpt lat="44.70374174495586" lon="9.930682912259034"><ele>567.5999999999999</ele><time>2026-03-29T13:47:17Z</time></trkpt><trkpt lat="44.70367275872032" lon="9.930549948256044"><ele>567.4000000000001</ele><time>2026-03-29T13:47:18Z</time></trkpt><trkpt lat="44.70360128845175" lon="9.930430127266618"><ele>567.2</ele><time>2026-03-29T13:47:19Z</time></trkpt><trkpt lat="44.703529625128475" lon="9.930345068172532"><ele>567.0</ele><time>2026-03-29T13:47:20Z</time></trkpt><trkpt lat="44.70347659766839" lon="9.930260427959468"><ele>567.0</ele><time>2026-03-29T13:47:21Z</time></trkpt><trkpt lat="44.703443974461884" lon="9.930169664761998"><ele>567.0</ele><time>2026-03-29T13:47:22Z</time></trkpt><trkpt lat="44.703430755215955" lon="9.930069920704781"><ele>567.0</ele><time>2026-03-29T13:47:23Z</time></trkpt><trkpt lat="44.70344902380151" lon="9.929965904766153"><ele>567.0</ele><time>2026-03-29T13:47:24Z</time></trkpt><trkpt lat="44.703522437277904" lon="9.929880220908698"><ele>567.0</ele><time>2026-03-29T13:47:25Z</time></trkpt><trkpt lat="44.703594528892104" lon="9.929779882674447"><ele>567.0</ele><time>2026-03-29T13:47:26Z</time></trkpt><trkpt lat="44.703664909857594" lon="9.92965718929566"><ele>570.75</ele><time>2026-03-29T13:47:27Z</time></trkpt><trkpt lat="44.70374702973085" lon="9.92954853766257"><ele>574.5</ele><time>2026-03-29T13:47:28Z</time></trkpt><trkpt lat="44.703817689683135" lon="9.929429594744809"><ele>578.25</ele><time>2026-03-29T13:47:29Z</time></trkpt><trkpt lat="44.703870640587056" lon="9.929293348676001"><ele>582.0</ele><time>2026-03-29T13:47:30Z</time></trkpt><trkpt lat="44.70389870548105" lon="9.929132490431716"><ele>582.0</ele><time>2026-03-29T13:47:31Z</time></trkpt><trkpt lat="44.703902993420854" lon="9.928965646577653"><ele>582.0</ele><time>2026-03-29T13:47:32Z</time></trkpt><trkpt lat="44.70388261991022" lon="9.928794167498193"><ele>582.0</ele><time>2026-03-29T13:47:33Z</time></trkpt><trkpt lat="44.70385602542463" lon="9.928634606658967"><ele>582.0</ele><time>2026-03-29T13:47:34Z</time></trkpt><trkpt lat="44.70381876937404" lon="9.928483129126551"><ele>582.0</ele><time>2026-03-29T13:47:35Z</time></trkpt><trkpt lat="44.703780900736334" lon="9.928335474543392"><ele>582.0</ele><time>2026-03-29T13:47:36Z</time></trkpt><trkpt lat="44.70374908920463" lon="9.92820135832924"><ele>582.0</ele><time>2026-03-29T13:47:37Z</time></trkpt><trkpt lat="44.70370024750488" lon="9.928081454546616"><ele>582.0</ele><time>2026-03-29T13:47:38Z</time></trkpt><trkpt lat="44.70364058469682" lon="9.927968609880667"><ele>582.0</ele><time>2026-03-29T13:47:39Z</time></trkpt><trkpt lat="44.703571738102035" lon="9.927859224342898"><ele>578.0</ele><time>2026-03-29T13:47:40Z</time></trkpt><trkpt lat="44.70349861773632" lon="9.927760076245262"><ele>574.0</ele><time>2026-03-29T13:47:41Z</time></trkpt><trkpt lat="44.70342370640379" lon="9.927680366970105"><ele>570.0</ele><time>2026-03-29T13:47:42Z</time></trkpt><trkpt lat="44.703352695910326" lon="9.927602349840532"><ele>566.0</ele><time>2026-03-29T13:47:43Z</time></trkpt><trkpt lat="44.70330045503748" lon="9.927503739353245"><ele>562.0</ele><time>2026-03-29T13:47:44Z</time></trkpt><trkpt lat="44.70328898271812" lon="9.927375261043634"><ele>562.0</ele><time>2026-03-29T13:47:45Z</time></trkpt><trkpt lat="44.70326203827034" lon="9.927248833527548"><ele>562.0</ele><time>2026-03-29T13:47:46Z</time></trkpt><trkpt lat="44.7032650476694" lon="9.927102900255077"><ele>562.0</ele><time>2026-03-29T13:47:47Z</time></trkpt><trkpt lat="44.703288676321186" lon="9.926964062792617"><ele>562.0</ele><time>2026-03-29T13:47:48Z</time></trkpt><trkpt lat="44.70331834435243" lon="9.926826586610044"><ele>562.0</ele><time>2026-03-29T13:47:49Z</time></trkpt><trkpt lat="44.703353347628905" lon="9.92669485342312"><ele>561.6</ele><time>2026-03-29T13:47:50Z</time></trkpt><trkpt lat="44.70341246334403" lon="9.926595036813303"><ele>561.2</ele><time>2026-03-29T13:47:51Z</time></trkpt><trkpt lat="44.70347418115415" lon="9.926496814827383"><ele>560.8</ele><time>2026-03-29T13:47:52Z</time></trkpt><trkpt lat="44.70352522467254" lon="9.926391169148715"><ele>560.4</ele><time>2026-03-29T13:47:53Z</time></trkpt><trkpt lat="44.70354994066662" lon="9.926260037815224"><ele>560.0</ele><time>2026-03-29T13:47:54Z</time></trkpt><trkpt lat="44.70355390459046" lon="9.926111661608989"><ele>560.0</ele><time>2026-03-29T13:47:55Z</time></trkpt><trkpt lat="44.70353699750285" lon="9.925947201478428"><ele>560.0</ele><time>2026-03-29T13:47:56Z</time></trkpt><trkpt lat="44.70349886633592" lon="9.925771270041858"><ele>560.0</ele><time>2026-03-29T13:47:57Z</time></trkpt><trkpt lat="44.703491889387145" lon="9.925569254870634"><ele>560.0</ele><time>2026-03-29T13:47:58Z</time></trkpt><trkpt lat="44.70349266965894" lon="9.925384333463786"><ele>559.0</ele><time>2026-03-29T13:47:59Z</time></trkpt><trkpt lat="44.7034792552064" lon="9.92521994845793"><ele>558.0</ele><time>2026-03-29T13:48:00Z</time></trkpt><trkpt lat="44.703486820169054" lon="9.92506704059149"><ele>557.0</ele><time>2026-03-29T13:48:01Z</time></trkpt><trkpt lat="44.70351228036086" lon="9.92491103010732"><ele>556.0</ele><time>2026-03-29T13:48:02Z</time></trkpt><trkpt lat="44.703545985885704" lon="9.92475726882895"><ele>556.2</ele><time>2026-03-29T13:48:03Z</time></trkpt><trkpt lat="44.703577525168065" lon="9.924621153784486"><ele>556.4000000000001</ele><time>2026-03-29T13:48:04Z</time></trkpt><trkpt lat="44.70358941853805" lon="9.92448678312193"><ele>556.6</ele><time>2026-03-29T13:48:05Z</time></trkpt><trkpt lat="44.70358734230802" lon="9.924346999979917"><ele>556.8000000000001</ele><time>2026-03-29T13:48:06Z</time></trkpt><trkpt lat="44.7035502230801" lon="9.924207620588634"><ele>557.0</ele><time>2026-03-29T13:48:07Z</time></trkpt><trkpt lat="44.70348228354141" lon="9.924078619464536"><ele>557.0</ele><time>2026-03-29T13:48:08Z</time></trkpt><trkpt lat="44.70339815324089" lon="9.923961652315647"><ele>557.0</ele><time>2026-03-29T13:48:09Z</time></trkpt><trkpt lat="44.70331953886859" lon="9.923858139173925"><ele>557.0</ele><time>2026-03-29T13:48:10Z</time></trkpt><trkpt lat="44.70323877050331" lon="9.923775842529489"><ele>557.0</ele><time>2026-03-29T13:48:11Z</time></trkpt><trkpt lat="44.703140241679826" lon="9.923721014414816"><ele>557.0</ele><time>2026-03-29T13:48:12Z</time></trkpt><trkpt lat="44.703033115502315" lon="9.923684751379877"><ele>557.0</ele><time>2026-03-29T13:48:13Z</time></trkpt><trkpt lat="44.70293117418939" lon="9.92365008043806"><ele>557.0</ele><time>2026-03-29T13:48:14Z</time></trkpt><trkpt lat="44.702834129131006" lon="9.923606715752737"><ele>557.0</ele><time>2026-03-29T13:48:15Z</time></trkpt><trkpt lat="44.70274081095142" lon="9.923565496322418"><ele>557.0</ele><time>2026-03-29T13:48:16Z</time></trkpt><trkpt lat="44.70266171609135" lon="9.92353788056794"><ele>557.0</ele><time>2026-03-29T13:48:17Z</time></trkpt><trkpt lat="44.70259346764884" lon="9.923508096962303"><ele>554.5</ele><time>2026-03-29T13:48:18Z</time></trkpt><trkpt lat="44.702523107634086" lon="9.92349566781737"><ele>552.0</ele><time>2026-03-29T13:48:19Z</time></trkpt><trkpt lat="44.70244715880739" lon="9.923522098144701"><ele>549.5</ele><time>2026-03-29T13:48:20Z</time></trkpt><trkpt lat="44.702372408688134" lon="9.92361022224182"><ele>547.0</ele><time>2026-03-29T13:48:21Z</time></trkpt><trkpt lat="44.70232282394226" lon="9.92370901101302"><ele>544.5</ele><time>2026-03-29T13:48:22Z</time></trkpt><trkpt lat="44.70228900619419" lon="9.923797008729752"><ele>542.0</ele><time>2026-03-29T13:48:23Z</time></trkpt><trkpt lat="44.70223781751668" lon="9.923854566998191"><ele>542.0</ele><time>2026-03-29T13:48:24Z</time></trkpt><trkpt lat="44.7021693950994" lon="9.923866323661555"><ele>542.0</ele><time>2026-03-29T13:48:25Z</time></trkpt><trkpt lat="44.702097378164446" lon="9.923823867349103"><ele>542.0</ele><time>2026-03-29T13:48:26Z</time></trkpt><trkpt lat="44.70202428439254" lon="9.923725860419143"><ele>542.0</ele><time>2026-03-29T13:48:27Z</time></trkpt><trkpt lat="44.70195337170349" lon="9.923611978592232"><ele>542.0</ele><time>2026-03-29T13:48:28Z</time></trkpt><trkpt lat="44.701870853143134" lon="9.923482394083635"><ele>539.8000000000001</ele><time>2026-03-29T13:48:29Z</time></trkpt><trkpt lat="44.70182871851923" lon="9.9233276655911"><ele>537.6</ele><time>2026-03-29T13:48:30Z</time></trkpt><trkpt lat="44.701751703406835" lon="9.923234087951197"><ele>535.4000000000001</ele><time>2026-03-29T13:48:31Z</time></trkpt><trkpt lat="44.70167937806524" lon="9.923108835250032"><ele>533.2</ele><time>2026-03-29T13:48:32Z</time></trkpt><trkpt lat="44.70160134505785" lon="9.923014596360913"><ele>531.0</ele><time>2026-03-29T13:48:33Z</time></trkpt><trkpt lat="44.70153251574213" lon="9.922890079524867"><ele>531.0</ele><time>2026-03-29T13:48:34Z</time></trkpt><trkpt lat="44.701499991246365" lon="9.922749989748182"><ele>531.0</ele><time>2026-03-29T13:48:35Z</time></trkpt><trkpt lat="44.70147316782112" lon="9.922620569992372"><ele>531.0</ele><time>2026-03-29T13:48:36Z</time></trkpt><trkpt lat="44.70143906826608" lon="9.922503679458162"><ele>531.0</ele><time>2026-03-29T13:48:37Z</time></trkpt><trkpt lat="44.70140697419609" lon="9.92240143508313"><ele>531.0</ele><time>2026-03-29T13:48:38Z</time></trkpt><trkpt lat="44.70134404755785" lon="9.922316874036339"><ele>532.6</ele><time>2026-03-29T13:48:39Z</time></trkpt><trkpt lat="44.70124432592301" lon="9.922253859390322"><ele>534.2</ele><time>2026-03-29T13:48:39.999Z</time></trkpt><trkpt lat="44.701137539577516" lon="9.922229386814843"><ele>535.8</ele><time>2026-03-29T13:48:40.999Z</time></trkpt><trkpt lat="44.701037735682625" lon="9.922229110130457"><ele>537.4</ele><time>2026-03-29T13:48:41.999Z</time></trkpt><trkpt lat="44.70094550735238" lon="9.92222192876099"><ele>539.0</ele><time>2026-03-29T13:48:42.999Z</time></trkpt><trkpt lat="44.70085327145722" lon="9.922200433667708"><ele>535.1666666666666</ele><time>2026-03-29T13:48:43.999Z</time></trkpt><trkpt lat="44.700785992657124" lon="9.922155450420792"><ele>531.3333333333333</ele><time>2026-03-29T13:48:44.999Z</time></trkpt><trkpt lat="44.70071828186512" lon="9.922098044218213"><ele>527.5</ele><time>2026-03-29T13:48:45.999Z</time></trkpt><trkpt lat="44.70065415420273" lon="9.922028410055981"><ele>523.6666666666666</ele><time>2026-03-29T13:48:46.999Z</time></trkpt><trkpt lat="44.70057877822606" lon="9.921986005497097"><ele>519.8333333333334</ele><time>2026-03-29T13:48:47.999Z</time></trkpt><trkpt lat="44.70048823934542" lon="9.921972154070302"><ele>516.0</ele><time>2026-03-29T13:48:48.999Z</time></trkpt><trkpt lat="44.70039410615687" lon="9.921985772055285"><ele>516.0</ele><time>2026-03-29T13:48:49.999Z</time></trkpt><trkpt lat="44.70031336874801" lon="9.922036344853733"><ele>516.0</ele><time>2026-03-29T13:48:50.999Z</time></trkpt><trkpt lat="44.70025224402508" lon="9.922129628331469"><ele>516.0</ele><time>2026-03-29T13:48:51.999Z</time></trkpt><trkpt lat="44.700206844955744" lon="9.922250904852879"><ele>516.0</ele><time>2026-03-29T13:48:53Z</time></trkpt><trkpt lat="44.70017382343786" lon="9.9223903890982"><ele>516.0</ele><time>2026-03-29T13:48:54Z</time></trkpt><trkpt lat="44.70015306133554" lon="9.92252634640786"><ele>512.5</ele><time>2026-03-29T13:48:55Z</time></trkpt><trkpt lat="44.70014534565603" lon="9.922644726263433"><ele>509.0</ele><time>2026-03-29T13:48:56Z</time></trkpt><trkpt lat="44.70011526991685" lon="9.922734055569146"><ele>505.5</ele><time>2026-03-29T13:48:57Z</time></trkpt><trkpt lat="44.70005489404508" lon="9.922793483152986"><ele>502.0</ele><time>2026-03-29T13:48:58Z</time></trkpt><trkpt lat="44.69997277459284" lon="9.922819174707469"><ele>498.5</ele><time>2026-03-29T13:48:59Z</time></trkpt><trkpt lat="44.699877431836065" lon="9.92281790013844"><ele>495.0</ele><time>2026-03-29T13:49:00Z</time></trkpt><trkpt lat="44.69977849907716" lon="9.922811777772614"><ele>495.0</ele><time>2026-03-29T13:49:01Z</time></trkpt><trkpt lat="44.69967636360907" lon="9.922806600022323"><ele>495.0</ele><time>2026-03-29T13:49:02Z</time></trkpt><trkpt lat="44.699584044941695" lon="9.922799651068535"><ele>495.0</ele><time>2026-03-29T13:49:03Z</time></trkpt><trkpt lat="44.699501125541495" lon="9.922777386144864"><ele>495.0</ele><time>2026-03-29T13:49:04Z</time></trkpt><trkpt lat="44.69941721844285" lon="9.922742524552923"><ele>495.0</ele><time>2026-03-29T13:49:05Z</time></trkpt><trkpt lat="44.69933674397835" lon="9.922705135895958"><ele>494.4</ele><time>2026-03-29T13:49:06Z</time></trkpt><trkpt lat="44.699244674177905" lon="9.922672410121184"><ele>493.8</ele><time>2026-03-29T13:49:07Z</time></trkpt><trkpt lat="44.69913274936329" lon="9.92265818525855"><ele>493.20000000000005</ele><time>2026-03-29T13:49:08Z</time></trkpt><trkpt lat="44.699018459267556" lon="9.922655234699606"><ele>492.6</ele><time>2026-03-29T13:49:09Z</time></trkpt><trkpt lat="44.698917229450025" lon="9.922648289198813"><ele>492.0</ele><time>2026-03-29T13:49:10Z</time></trkpt><trkpt lat="44.69882547234765" lon="9.922637083252729"><ele>492.0</ele><time>2026-03-29T13:49:11Z</time></trkpt><trkpt lat="44.698754664627984" lon="9.922589488591242"><ele>492.00000000000006</ele><time>2026-03-29T13:49:12Z</time></trkpt><trkpt lat="44.698680447833596" lon="9.922530398198703"><ele>492.00000000000006</ele><time>2026-03-29T13:49:13Z</time></trkpt><trkpt lat="44.69860212598838" lon="9.92246440249724"><ele>492.0</ele><time>2026-03-29T13:49:14Z</time></trkpt><trkpt lat="44.69850916399219" lon="9.922412180319977"><ele>492.0</ele><time>2026-03-29T13:49:15Z</time></trkpt><trkpt lat="44.69841028083397" lon="9.922377827539776"><ele>490.25</ele><time>2026-03-29T13:49:16Z</time></trkpt><trkpt lat="44.698310266003546" lon="9.922415140199677"><ele>488.5</ele><time>2026-03-29T13:49:17Z</time></trkpt><trkpt lat="44.6982148338808" lon="9.922487047003377"><ele>486.75</ele><time>2026-03-29T13:49:18Z</time></trkpt><trkpt lat="44.698134166875775" lon="9.922606752506184"><ele>485.0</ele><time>2026-03-29T13:49:19Z</time></trkpt><trkpt lat="44.69804766412795" lon="9.92276224377618"><ele>485.0</ele><time>2026-03-29T13:49:20Z</time></trkpt><trkpt lat="44.69795952845412" lon="9.922907582252135"><ele>485.0</ele><time>2026-03-29T13:49:21Z</time></trkpt><trkpt lat="44.69788213542377" lon="9.923030902866616"><ele>485.0</ele><time>2026-03-29T13:49:22Z</time></trkpt><trkpt lat="44.69780573542354" lon="9.923145068744715"><ele>485.0</ele><time>2026-03-29T13:49:23Z</time></trkpt><trkpt lat="44.69770973907022" lon="9.923222261678248"><ele>484.2</ele><time>2026-03-29T13:49:24Z</time></trkpt><trkpt lat="44.69760169604508" lon="9.923252191788276"><ele>483.4</ele><time>2026-03-29T13:49:25Z</time></trkpt><trkpt lat="44.69750909166828" lon="9.923244827331782"><ele>482.6</ele><time>2026-03-29T13:49:26Z</time></trkpt><trkpt lat="44.69740856795213" lon="9.923271792067034"><ele>481.8</ele><time>2026-03-29T13:49:27Z</time></trkpt><trkpt lat="44.69731746132042" lon="9.923352951124594"><ele>481.0</ele><time>2026-03-29T13:49:28Z</time></trkpt><trkpt lat="44.69725757133049" lon="9.9234854659302"><ele>481.0</ele><time>2026-03-29T13:49:29Z</time></trkpt><trkpt lat="44.69724978061796" lon="9.923660802690472"><ele>481.0</ele><time>2026-03-29T13:49:30Z</time></trkpt><trkpt lat="44.69725426925184" lon="9.923827617746852"><ele>481.0</ele><time>2026-03-29T13:49:31Z</time></trkpt><trkpt lat="44.69724717925738" lon="9.923972277720354"><ele>481.0</ele><time>2026-03-29T13:49:32Z</time></trkpt><trkpt lat="44.69721063814495" lon="9.924087937543538"><ele>481.0</ele><time>2026-03-29T13:49:33Z</time></trkpt><trkpt lat="44.69713809628946" lon="9.92416920565259"><ele>479.5</ele><time>2026-03-29T13:49:34Z</time></trkpt><trkpt lat="44.69703393999849" lon="9.924232230348034"><ele>478.0</ele><time>2026-03-29T13:49:35Z</time></trkpt><trkpt lat="44.69691777590255" lon="9.924277163389608"><ele>476.5</ele><time>2026-03-29T13:49:36Z</time></trkpt><trkpt lat="44.69678973460801" lon="9.924318263471807"><ele>475.0</ele><time>2026-03-29T13:49:37Z</time></trkpt><trkpt lat="44.696659478665616" lon="9.924351866927323"><ele>475.0</ele><time>2026-03-29T13:49:38Z</time></trkpt><trkpt lat="44.69653405586988" lon="9.9243874299546"><ele>475.0</ele><time>2026-03-29T13:49:39Z</time></trkpt><trkpt lat="44.696418612045676" lon="9.924425046811923"><ele>475.0</ele><time>2026-03-29T13:49:40Z</time></trkpt><trkpt lat="44.696317368601754" lon="9.924469546265279"><ele>475.0</ele><time>2026-03-29T13:49:41Z</time></trkpt><trkpt lat="44.69622792776052" lon="9.924527388983998"><ele>475.00000000000006</ele><time>2026-03-29T13:49:42Z</time></trkpt><trkpt lat="44.69615311045945" lon="9.924592265631656"><ele>475.0</ele><time>2026-03-29T13:49:43Z</time></trkpt><trkpt lat="44.69608042663468" lon="9.924633394022624"><ele>475.0</ele><time>2026-03-29T13:49:44Z</time></trkpt><trkpt lat="44.69600546732429" lon="9.924632772714677"><ele>475.0</ele><time>2026-03-29T13:49:45Z</time></trkpt><trkpt lat="44.695931462560296" lon="9.92458064034436"><ele>475.00000000000006</ele><time>2026-03-29T13:49:46Z</time></trkpt><trkpt lat="44.69585509510418" lon="9.92447818098232"><ele>475.0</ele><time>2026-03-29T13:49:47Z</time></trkpt><trkpt lat="44.695771154926845" lon="9.924364206823103"><ele>475.25</ele><time>2026-03-29T13:49:48Z</time></trkpt><trkpt lat="44.695682121806115" lon="9.924276988625294"><ele>475.5</ele><time>2026-03-29T13:49:49Z</time></trkpt><trkpt lat="44.69558133433167" lon="9.924219172770778"><ele>475.75</ele><time>2026-03-29T13:49:50Z</time></trkpt><trkpt lat="44.695468363791846" lon="9.924213972555165"><ele>476.0</ele><time>2026-03-29T13:49:51Z</time></trkpt><trkpt lat="44.695348382699265" lon="9.92424061676054"><ele>474.0</ele><time>2026-03-29T13:49:52Z</time></trkpt><trkpt lat="44.69523118642115" lon="9.924299362939847"><ele>472.0</ele><time>2026-03-29T13:49:53Z</time></trkpt><trkpt lat="44.69512116076944" lon="9.924391661938639"><ele>470.0</ele><time>2026-03-29T13:49:54Z</time></trkpt><trkpt lat="44.69502418082018" lon="9.924495020225544"><ele>468.0</ele><time>2026-03-29T13:49:55Z</time></trkpt><trkpt lat="44.69494122893025" lon="9.92460792928386"><ele>468.0</ele><time>2026-03-29T13:49:56Z</time></trkpt><trkpt lat="44.69484502485635" lon="9.924685571064852"><ele>468.0</ele><time>2026-03-29T13:49:57Z</time></trkpt><trkpt lat="44.69474008379779" lon="9.924763005792228"><ele>468.0</ele><time>2026-03-29T13:49:58Z</time></trkpt><trkpt lat="44.69463876278015" lon="9.924834957425196"><ele>468.0</ele><time>2026-03-29T13:49:59Z</time></trkpt><trkpt lat="44.69454691709391" lon="9.924922868526039"><ele>468.0</ele><time>2026-03-29T13:50:00Z</time></trkpt><trkpt lat="44.69445354939086" lon="9.92500965665312"><ele>467.99999999999994</ele><time>2026-03-29T13:50:01Z</time></trkpt><trkpt lat="44.69436884565817" lon="9.925105707473218"><ele>467.99999999999994</ele><time>2026-03-29T13:50:02Z</time></trkpt><trkpt lat="44.69429302855504" lon="9.92520214810361"><ele>468.0</ele><time>2026-03-29T13:50:03Z</time></trkpt><trkpt lat="44.69422437431607" lon="9.925282953824984"><ele>468.0</ele><time>2026-03-29T13:50:04Z</time></trkpt><trkpt lat="44.69415229652905" lon="9.92534944694328"><ele>467.3333333333333</ele><time>2026-03-29T13:50:05Z</time></trkpt><trkpt lat="44.694072359864045" lon="9.925387989204895"><ele>466.66666666666663</ele><time>2026-03-29T13:50:06Z</time></trkpt><trkpt lat="44.693986780220165" lon="9.925364856922629"><ele>466.0</ele><time>2026-03-29T13:50:07Z</time></trkpt><trkpt lat="44.69391875029777" lon="9.925300606174579"><ele>465.3333333333333</ele><time>2026-03-29T13:50:08Z</time></trkpt><trkpt lat="44.69386737612551" lon="9.925208755293589"><ele>464.66666666666663</ele><time>2026-03-29T13:50:09Z</time></trkpt><trkpt lat="44.693863202496345" lon="9.925096467377852"><ele>464.0</ele><time>2026-03-29T13:50:10Z</time></trkpt><trkpt lat="44.69387057943191" lon="9.924995947859482"><ele>463.99999999999994</ele><time>2026-03-29T13:50:11Z</time></trkpt><trkpt lat="44.69387111268767" lon="9.92487951404391"><ele>464.0</ele><time>2026-03-29T13:50:12Z</time></trkpt><trkpt lat="44.69386000118268" lon="9.924759109571287"><ele>464.0</ele><time>2026-03-29T13:50:13Z</time></trkpt><trkpt lat="44.69382093464214" lon="9.924647811922588"><ele>464.0</ele><time>2026-03-29T13:50:14Z</time></trkpt><trkpt lat="44.69378484110434" lon="9.924540148810232"><ele>463.99999999999994</ele><time>2026-03-29T13:50:15Z</time></trkpt><trkpt lat="44.69374417747695" lon="9.924438589007224"><ele>464.0</ele><time>2026-03-29T13:50:16Z</time></trkpt><trkpt lat="44.693705301637436" lon="9.92433999861922"><ele>463.99999999999994</ele><time>2026-03-29T13:50:17Z</time></trkpt><trkpt lat="44.69367222980921" lon="9.924241710832716"><ele>464.0</ele><time>2026-03-29T13:50:18Z</time></trkpt><trkpt lat="44.69364047629353" lon="9.924144993669088"><ele>464.0</ele><time>2026-03-29T13:50:19Z</time></trkpt><trkpt lat="44.69360905881908" lon="9.924053572838721"><ele>464.0</ele><time>2026-03-29T13:50:20Z</time></trkpt><trkpt lat="44.69356256702702" lon="9.923929804541634"><ele>463.99999999999994</ele><time>2026-03-29T13:50:22Z</time></trkpt><trkpt lat="44.69349840528441" lon="9.923847746918273"><ele>464.0</ele><time>2026-03-29T13:50:24Z</time></trkpt><trkpt lat="44.693444223449156" lon="9.924134379826876"><ele>460.6</ele><time>2026-03-29T13:50:27Z</time></trkpt><trkpt lat="44.69346940663453" lon="9.924258745899033"><ele>457.2</ele><time>2026-03-29T13:50:28Z</time></trkpt><trkpt lat="44.693479776417" lon="9.924397515038677"><ele>453.80000000000007</ele><time>2026-03-29T13:50:29Z</time></trkpt><trkpt lat="44.69345465461841" lon="9.924538712472101"><ele>450.40000000000003</ele><time>2026-03-29T13:50:30Z</time></trkpt><trkpt lat="44.69339572229467" lon="9.924680118634209"><ele>447.0</ele><time>2026-03-29T13:50:31Z</time></trkpt><trkpt lat="44.69331097814509" lon="9.924800271285667"><ele>447.0</ele><time>2026-03-29T13:50:32Z</time></trkpt><trkpt lat="44.69320111788139" lon="9.924898371652374"><ele>447.0</ele><time>2026-03-29T13:50:33Z</time></trkpt><trkpt lat="44.69309254800139" lon="9.92498670865997"><ele>447.0</ele><time>2026-03-29T13:50:34Z</time></trkpt><trkpt lat="44.692987864719434" lon="9.925076480065103"><ele>447.0</ele><time>2026-03-29T13:50:35Z</time></trkpt><trkpt lat="44.69288802524418" lon="9.92520097698497"><ele>447.25</ele><time>2026-03-29T13:50:36Z</time></trkpt><trkpt lat="44.69279190251969" lon="9.92533922526133"><ele>447.5</ele><time>2026-03-29T13:50:37Z</time></trkpt><trkpt lat="44.69269862166559" lon="9.925469374817995"><ele>447.75</ele><time>2026-03-29T13:50:38Z</time></trkpt><trkpt lat="44.69260331310778" lon="9.92559523868448"><ele>448.0</ele><time>2026-03-29T13:50:39Z</time></trkpt><trkpt lat="44.69251615957128" lon="9.925720884595343"><ele>446.59999999999997</ele><time>2026-03-29T13:50:40Z</time></trkpt><trkpt lat="44.69243457698025" lon="9.925836505583506"><ele>445.19999999999993</ele><time>2026-03-29T13:50:41Z</time></trkpt><trkpt lat="44.69235581601576" lon="9.925943207640056"><ele>443.8</ele><time>2026-03-29T13:50:42Z</time></trkpt><trkpt lat="44.692279432787586" lon="9.926045407537737"><ele>442.4</ele><time>2026-03-29T13:50:43Z</time></trkpt><trkpt lat="44.692198240251585" lon="9.92613878425979"><ele>441.0</ele><time>2026-03-29T13:50:44Z</time></trkpt><trkpt lat="44.69212209929033" lon="9.926219825174508"><ele>440.4</ele><time>2026-03-29T13:50:45Z</time></trkpt><trkpt lat="44.69204253949228" lon="9.926293660828193"><ele>439.8</ele><time>2026-03-29T13:50:46Z</time></trkpt><trkpt lat="44.69194761173866" lon="9.926353286558511"><ele>439.19999999999993</ele><time>2026-03-29T13:50:47Z</time></trkpt><trkpt lat="44.69185025149366" lon="9.926386571611094"><ele>438.59999999999997</ele><time>2026-03-29T13:50:48Z</time></trkpt><trkpt lat="44.69175073579027" lon="9.92638542690599"><ele>438.0</ele><time>2026-03-29T13:50:49Z</time></trkpt><trkpt lat="44.69165441720538" lon="9.92634907650916"><ele>437.5</ele><time>2026-03-29T13:50:50Z</time></trkpt><trkpt lat="44.691579567769" lon="9.926313364411218"><ele>437.0</ele><time>2026-03-29T13:50:51Z</time></trkpt><trkpt lat="44.691500649766674" lon="9.926291926758633"><ele>436.5</ele><time>2026-03-29T13:50:52Z</time></trkpt><trkpt lat="44.691413038275684" lon="9.926318688947017"><ele>436.0</ele><time>2026-03-29T13:50:53Z</time></trkpt><trkpt lat="44.69132985427976" lon="9.92638649982598"><ele>435.5</ele><time>2026-03-29T13:50:54Z</time></trkpt><trkpt lat="44.691245410933725" lon="9.926468179980263"><ele>435.0</ele><time>2026-03-29T13:50:55Z</time></trkpt><trkpt lat="44.69114629516068" lon="9.926545397521217"><ele>433.0</ele><time>2026-03-29T13:50:56Z</time></trkpt><trkpt lat="44.69103487130254" lon="9.926612441853521"><ele>431.0</ele><time>2026-03-29T13:50:57Z</time></trkpt><trkpt lat="44.690920678600044" lon="9.926658685270873"><ele>429.0</ele><time>2026-03-29T13:50:58Z</time></trkpt><trkpt lat="44.69080689994366" lon="9.926673059923223"><ele>427.0</ele><time>2026-03-29T13:50:59Z</time></trkpt><trkpt lat="44.690690695807454" lon="9.926685326263327"><ele>427.0</ele><time>2026-03-29T13:51:00Z</time></trkpt><trkpt lat="44.69057061409594" lon="9.926684688805691"><ele>427.00000000000006</ele><time>2026-03-29T13:51:01Z</time></trkpt><trkpt lat="44.69045882239393" lon="9.926687261866801"><ele>427.00000000000006</ele><time>2026-03-29T13:51:02Z</time></trkpt><trkpt lat="44.690360179327016" lon="9.926701078964147"><ele>427.0</ele><time>2026-03-29T13:51:03Z</time></trkpt><trkpt lat="44.69027133934768" lon="9.92672206123379"><ele>427.0</ele><time>2026-03-29T13:51:04Z</time></trkpt><trkpt lat="44.69019687136142" lon="9.926766919324482"><ele>426.25</ele><time>2026-03-29T13:51:05Z</time></trkpt><trkpt lat="44.69012763556815" lon="9.926864700121211"><ele>425.5</ele><time>2026-03-29T13:51:06Z</time></trkpt><trkpt lat="44.69005436337022" lon="9.926996864732525"><ele>424.75</ele><time>2026-03-29T13:51:07Z</time></trkpt><trkpt lat="44.68998067758441" lon="9.927153604465325"><ele>424.0</ele><time>2026-03-29T13:51:08Z</time></trkpt><trkpt lat="44.68988699684807" lon="9.927215859810266"><ele>424.0</ele><time>2026-03-29T13:51:09Z</time></trkpt><trkpt lat="44.68980414503944" lon="9.927278227181082"><ele>424.0</ele><time>2026-03-29T13:51:10Z</time></trkpt><trkpt lat="44.68971000409005" lon="9.927310626151526"><ele>424.0</ele><time>2026-03-29T13:51:11Z</time></trkpt><trkpt lat="44.689595581884795" lon="9.927325570599704"><ele>424.0</ele><time>2026-03-29T13:51:12Z</time></trkpt><trkpt lat="44.68947249543944" lon="9.927330563880899"><ele>424.0</ele><time>2026-03-29T13:51:13Z</time></trkpt><trkpt lat="44.68935785344486" lon="9.927315757808373"><ele>422.25</ele><time>2026-03-29T13:51:14Z</time></trkpt><trkpt lat="44.68924351076202" lon="9.92726857642613"><ele>420.5</ele><time>2026-03-29T13:51:15Z</time></trkpt><trkpt lat="44.68912557856621" lon="9.927213472007274"><ele>418.75</ele><time>2026-03-29T13:51:16Z</time></trkpt><trkpt lat="44.68902004676132" lon="9.927134127990652"><ele>417.0</ele><time>2026-03-29T13:51:17Z</time></trkpt><trkpt lat="44.688924447640595" lon="9.927063738347115"><ele>417.0</ele><time>2026-03-29T13:51:18Z</time></trkpt><trkpt lat="44.68882368461236" lon="9.927009967625962"><ele>417.0</ele><time>2026-03-29T13:51:19Z</time></trkpt><trkpt lat="44.688702157485984" lon="9.92698159915359"><ele>417.0</ele><time>2026-03-29T13:51:20Z</time></trkpt><trkpt lat="44.688570806063524" lon="9.926994955256825"><ele>417.0</ele><time>2026-03-29T13:51:21Z</time></trkpt><trkpt lat="44.68843357711824" lon="9.927044454018908"><ele>415.75</ele><time>2026-03-29T13:51:22Z</time></trkpt><trkpt lat="44.68830417500192" lon="9.927125437087524"><ele>414.5</ele><time>2026-03-29T13:51:23Z</time></trkpt><trkpt lat="44.688192097901684" lon="9.927216081106094"><ele>413.25</ele><time>2026-03-29T13:51:24Z</time></trkpt><trkpt lat="44.688096994697894" lon="9.92730215762917"><ele>412.0</ele><time>2026-03-29T13:51:25Z</time></trkpt><trkpt lat="44.68800513371865" lon="9.927364674236502"><ele>412.0</ele><time>2026-03-29T13:51:26Z</time></trkpt><trkpt lat="44.68791398646282" lon="9.927393325397286"><ele>412.0</ele><time>2026-03-29T13:51:27Z</time></trkpt><trkpt lat="44.687819417253614" lon="9.927381182112462"><ele>412.0</ele><time>2026-03-29T13:51:28Z</time></trkpt><trkpt lat="44.68772665820259" lon="9.92730472982324"><ele>412.0</ele><time>2026-03-29T13:51:29Z</time></trkpt><trkpt lat="44.68763017242814" lon="9.92721659666772"><ele>412.0</ele><time>2026-03-29T13:51:30Z</time></trkpt><trkpt lat="44.68752957905215" lon="9.927130220599437"><ele>411.20000000000005</ele><time>2026-03-29T13:51:31Z</time></trkpt><trkpt lat="44.68746052614583" lon="9.927004490299819"><ele>410.4</ele><time>2026-03-29T13:51:32Z</time></trkpt><trkpt lat="44.687387818623144" lon="9.926893583377824"><ele>409.6</ele><time>2026-03-29T13:51:33Z</time></trkpt><trkpt lat="44.68734270498731" lon="9.926775106472334"><ele>408.79999999999995</ele><time>2026-03-29T13:51:34Z</time></trkpt><trkpt lat="44.68728883687675" lon="9.926685280989652"><ele>408.0</ele><time>2026-03-29T13:51:35Z</time></trkpt><trkpt lat="44.68723748204262" lon="9.926618253865371"><ele>408.0</ele><time>2026-03-29T13:51:36Z</time></trkpt><trkpt lat="44.68709155559525" lon="9.926582270921353"><ele>408.0</ele><time>2026-03-29T13:51:38Z</time></trkpt><trkpt lat="44.68701227839233" lon="9.926669026241557"><ele>408.0</ele><time>2026-03-29T13:51:39Z</time></trkpt><trkpt lat="44.686953889049256" lon="9.926803977030048"><ele>408.0</ele><time>2026-03-29T13:51:40Z</time></trkpt><trkpt lat="44.68691673995006" lon="9.926967814141769"><ele>405.5</ele><time>2026-03-29T13:51:41Z</time></trkpt><trkpt lat="44.68688836044764" lon="9.927119695723626"><ele>403.0</ele><time>2026-03-29T13:51:42Z</time></trkpt><trkpt lat="44.68680005105466" lon="9.927249043854806"><ele>400.5</ele><time>2026-03-29T13:51:43Z</time></trkpt><trkpt lat="44.68669639542066" lon="9.92735095725939"><ele>398.0</ele><time>2026-03-29T13:51:44Z</time></trkpt><trkpt lat="44.68658768502457" lon="9.927435842538296"><ele>398.0</ele><time>2026-03-29T13:51:45Z</time></trkpt><trkpt lat="44.68646884478097" lon="9.92748655105899"><ele>398.0</ele><time>2026-03-29T13:51:46Z</time></trkpt><trkpt lat="44.686368753846956" lon="9.927503482616977"><ele>398.0</ele><time>2026-03-29T13:51:47Z</time></trkpt><trkpt lat="44.686234563721754" lon="9.927512868075583"><ele>398.0</ele><time>2026-03-29T13:51:48Z</time></trkpt><trkpt lat="44.68610895304394" lon="9.927520995358918"><ele>396.59999999999997</ele><time>2026-03-29T13:51:49Z</time></trkpt><trkpt lat="44.68599687144418" lon="9.927501015223593"><ele>395.2</ele><time>2026-03-29T13:51:50Z</time></trkpt><trkpt lat="44.685882511639505" lon="9.927506789785488"><ele>393.8</ele><time>2026-03-29T13:51:51Z</time></trkpt><trkpt lat="44.68577655054212" lon="9.927533066620247"><ele>392.4</ele><time>2026-03-29T13:51:52Z</time></trkpt><trkpt lat="44.685670364913754" lon="9.927580852895709"><ele>391.0</ele><time>2026-03-29T13:51:53Z</time></trkpt><trkpt lat="44.685568680984545" lon="9.927650818921181"><ele>391.0</ele><time>2026-03-29T13:51:54Z</time></trkpt><trkpt lat="44.6854688715593" lon="9.9277270362955"><ele>391.0</ele><time>2026-03-29T13:51:55Z</time></trkpt><trkpt lat="44.685369694363196" lon="9.927794349072522"><ele>391.0</ele><time>2026-03-29T13:51:56Z</time></trkpt><trkpt lat="44.68527521146975" lon="9.927852091015719"><ele>391.0</ele><time>2026-03-29T13:51:57Z</time></trkpt><trkpt lat="44.68518735878998" lon="9.927915466455087"><ele>391.0</ele><time>2026-03-29T13:51:58Z</time></trkpt><trkpt lat="44.685108754069844" lon="9.927976364934711"><ele>386.20000000000005</ele><time>2026-03-29T13:51:59Z</time></trkpt><trkpt lat="44.685037286462" lon="9.928053412425793"><ele>381.40000000000003</ele><time>2026-03-29T13:52:00Z</time></trkpt><trkpt lat="44.684978736915404" lon="9.928161905952361"><ele>376.6</ele><time>2026-03-29T13:52:01Z</time></trkpt><trkpt lat="44.68494016918254" lon="9.928303604480913"><ele>371.8</ele><time>2026-03-29T13:52:02Z</time></trkpt><trkpt lat="44.68491422549544" lon="9.928470977821213"><ele>367.0</ele><time>2026-03-29T13:52:03Z</time></trkpt><trkpt lat="44.68488959393522" lon="9.928630750546994"><ele>367.0</ele><time>2026-03-29T13:52:04Z</time></trkpt><trkpt lat="44.68486280153644" lon="9.928793125497764"><ele>367.0</ele><time>2026-03-29T13:52:05Z</time></trkpt><trkpt lat="44.68483320890225" lon="9.928968373711488"><ele>367.0</ele><time>2026-03-29T13:52:06Z</time></trkpt><trkpt lat="44.68480648065292" lon="9.929135028012958"><ele>367.0</ele><time>2026-03-29T13:52:07Z</time></trkpt><trkpt lat="44.68479548116265" lon="9.929314850113935"><ele>366.5</ele><time>2026-03-29T13:52:08Z</time></trkpt><trkpt lat="44.684797992823235" lon="9.929509371824256"><ele>366.0</ele><time>2026-03-29T13:52:09Z</time></trkpt><trkpt lat="44.68479430305469" lon="9.929694121010183"><ele>365.5</ele><time>2026-03-29T13:52:10Z</time></trkpt><trkpt lat="44.68479196126913" lon="9.929865372375783"><ele>365.0</ele><time>2026-03-29T13:52:11Z</time></trkpt><trkpt lat="44.68479534223466" lon="9.930029411265897"><ele>365.8</ele><time>2026-03-29T13:52:12Z</time></trkpt><trkpt lat="44.684799660530025" lon="9.930195334880914"><ele>366.6</ele><time>2026-03-29T13:52:13Z</time></trkpt><trkpt lat="44.68479095195561" lon="9.930348020174156"><ele>367.4</ele><time>2026-03-29T13:52:14Z</time></trkpt><trkpt lat="44.68475816612496" lon="9.930470732027297"><ele>368.2</ele><time>2026-03-29T13:52:15Z</time></trkpt><trkpt lat="44.68469580782326" lon="9.930563111425789"><ele>369.0</ele><time>2026-03-29T13:52:16Z</time></trkpt><trkpt lat="44.68460883619664" lon="9.93061350404429"><ele>369.0</ele><time>2026-03-29T13:52:17Z</time></trkpt><trkpt lat="44.68451874982814" lon="9.93064996399268"><ele>369.0</ele><time>2026-03-29T13:52:18Z</time></trkpt><trkpt lat="44.68444347792839" lon="9.930715479736753"><ele>369.0</ele><time>2026-03-29T13:52:19Z</time></trkpt><trkpt lat="44.684385876653046" lon="9.930864807590767"><ele>369.0</ele><time>2026-03-29T13:52:20Z</time></trkpt><trkpt lat="44.68434362791602" lon="9.931038719184283"><ele>369.0</ele><time>2026-03-29T13:52:21Z</time></trkpt><trkpt lat="44.68429312053694" lon="9.931207561758827"><ele>361.5</ele><time>2026-03-29T13:52:22Z</time></trkpt><trkpt lat="44.68422925706831" lon="9.931369638261517"><ele>354.0</ele><time>2026-03-29T13:52:23Z</time></trkpt><trkpt lat="44.68416731721514" lon="9.931522124124037"><ele>346.5</ele><time>2026-03-29T13:52:24Z</time></trkpt><trkpt lat="44.68411312138588" lon="9.931657497580602"><ele>339.0</ele><time>2026-03-29T13:52:25Z</time></trkpt><trkpt lat="44.684067732944776" lon="9.931781069084831"><ele>338.0</ele><time>2026-03-29T13:52:26Z</time></trkpt><trkpt lat="44.684031133062724" lon="9.931895662792078"><ele>337.0</ele><time>2026-03-29T13:52:27Z</time></trkpt><trkpt lat="44.6840206191501" lon="9.932027851678871"><ele>336.0</ele><time>2026-03-29T13:52:28Z</time></trkpt><trkpt lat="44.68404449993186" lon="9.932176636962446"><ele>335.0</ele><time>2026-03-29T13:52:29Z</time></trkpt><trkpt lat="44.68409545892613" lon="9.932343804872664"><ele>334.0</ele><time>2026-03-29T13:52:30Z</time></trkpt><trkpt lat="44.68413727885132" lon="9.93251398751721"><ele>332.25</ele><time>2026-03-29T13:52:31Z</time></trkpt><trkpt lat="44.68416647302852" lon="9.932686415675962"><ele>330.5</ele><time>2026-03-29T13:52:32Z</time></trkpt><trkpt lat="44.684171082911725" lon="9.932860853206067"><ele>328.75</ele><time>2026-03-29T13:52:33Z</time></trkpt><trkpt lat="44.68416976208371" lon="9.93303068181912"><ele>327.0</ele><time>2026-03-29T13:52:34Z</time></trkpt><trkpt lat="44.68416018598469" lon="9.933193028378405"><ele>327.0</ele><time>2026-03-29T13:52:35Z</time></trkpt><trkpt lat="44.68412801791726" lon="9.933342734194255"><ele>327.0</ele><time>2026-03-29T13:52:36Z</time></trkpt><trkpt lat="44.68408492074368" lon="9.93347610427434"><ele>327.0</ele><time>2026-03-29T13:52:37Z</time></trkpt><trkpt lat="44.68404707021343" lon="9.933601045628228"><ele>327.0</ele><time>2026-03-29T13:52:38Z</time></trkpt><trkpt lat="44.6840128277822" lon="9.933720987977068"><ele>327.0</ele><time>2026-03-29T13:52:39Z</time></trkpt><trkpt lat="44.683980806942486" lon="9.933834740866532"><ele>326.0</ele><time>2026-03-29T13:52:40Z</time></trkpt><trkpt lat="44.68394164924282" lon="9.933930467244563"><ele>325.0</ele><time>2026-03-29T13:52:41Z</time></trkpt><trkpt lat="44.68390695606074" lon="9.934012204226237"><ele>324.0</ele><time>2026-03-29T13:52:42Z</time></trkpt><trkpt lat="44.683854897626375" lon="9.934120489014964"><ele>323.0</ele><time>2026-03-29T13:52:44Z</time></trkpt><trkpt lat="44.68379965790233" lon="9.934186308702843"><ele>322.0</ele><time>2026-03-29T13:52:47Z</time></trkpt><trkpt lat="44.683707384873976" lon="9.934318694211012"><ele>321.0</ele><time>2026-03-29T13:52:49Z</time></trkpt><trkpt lat="44.68364964207881" lon="9.934405709232008"><ele>320.4285714285714</ele><time>2026-03-29T13:52:50Z</time></trkpt><trkpt lat="44.683606739760066" lon="9.93447535644905"><ele>319.85714285714283</ele><time>2026-03-29T13:52:51Z</time></trkpt><trkpt lat="44.68354426238118" lon="9.934562809800429"><ele>319.2857142857143</ele><time>2026-03-29T13:52:53Z</time></trkpt><trkpt lat="44.68360976255232" lon="9.934519453062006"><ele>318.71428571428567</ele><time>2026-03-29T13:55:53Z</time></trkpt><trkpt lat="44.68357793786249" lon="9.934442504856008"><ele>318.1428571428571</ele><time>2026-03-29T13:55:55Z</time></trkpt><trkpt lat="44.683521521594244" lon="9.934390788736078"><ele>317.57142857142856</ele><time>2026-03-29T13:55:57Z</time></trkpt><trkpt lat="44.683464608261595" lon="9.934337294821121"><ele>317.0</ele><time>2026-03-29T13:55:59Z</time></trkpt><trkpt lat="44.68340320724042" lon="9.93429249526658"><ele>317.6666666666667</ele><time>2026-03-29T13:56:01Z</time></trkpt><trkpt lat="44.683379042640745" lon="9.934182494483023"><ele>318.33333333333337</ele><time>2026-03-29T13:56:03Z</time></trkpt><trkpt lat="44.683421229305026" lon="9.934042461873409"><ele>319.0</ele><time>2026-03-29T13:56:05Z</time></trkpt><trkpt lat="44.68344274888218" lon="9.93395903901629"><ele>319.6666666666667</ele><time>2026-03-29T13:56:06Z</time></trkpt><trkpt lat="44.68351946202998" lon="9.933852755893964"><ele>320.3333333333333</ele><time>2026-03-29T13:56:08Z</time></trkpt><trkpt lat="44.683553430271765" lon="9.933740857393314"><ele>321.0</ele><time>2026-03-29T13:56:10Z</time></trkpt><trkpt lat="44.68361262927641" lon="9.933619138730077"><ele>321.0</ele><time>2026-03-29T13:56:12Z</time></trkpt><trkpt lat="44.683610802670515" lon="9.933524286773537"><ele>321.0</ele><time>2026-03-29T13:56:13Z</time></trkpt><trkpt lat="44.683649531314366" lon="9.93337698676756"><ele>321.0</ele><time>2026-03-29T13:56:15Z</time></trkpt><trkpt lat="44.683650067759515" lon="9.933231737423675"><ele>321.0</ele><time>2026-03-29T13:56:17Z</time></trkpt><trkpt lat="44.683624666382656" lon="9.93304991640037"><ele>321.0</ele><time>2026-03-29T13:56:19Z</time></trkpt><trkpt lat="44.68360853910462" lon="9.932960877784131"><ele>318.5</ele><time>2026-03-29T13:56:20Z</time></trkpt><trkpt lat="44.683570572753105" lon="9.932792015496615"><ele>316.0</ele><time>2026-03-29T13:56:22Z</time></trkpt><trkpt lat="44.683548169681615" lon="9.932688751614695"><ele>313.5</ele><time>2026-03-29T13:56:23Z</time></trkpt><trkpt lat="44.68352471798233" lon="9.932581573101277"><ele>311.0</ele><time>2026-03-29T13:56:24Z</time></trkpt><trkpt lat="44.68350124195923" lon="9.932469391700067"><ele>308.5</ele><time>2026-03-29T13:56:25Z</time></trkpt><trkpt lat="44.683476482932825" lon="9.932361462908442"><ele>306.0</ele><time>2026-03-29T13:56:26Z</time></trkpt><trkpt lat="44.68344185838399" lon="9.932245864788454"><ele>305.6666666666667</ele><time>2026-03-29T13:56:27Z</time></trkpt><trkpt lat="44.683393370763284" lon="9.932129763836402"><ele>305.3333333333333</ele><time>2026-03-29T13:56:28Z</time></trkpt><trkpt lat="44.68333350549941" lon="9.93202001134892"><ele>305.0</ele><time>2026-03-29T13:56:29Z</time></trkpt><trkpt lat="44.68328261363827" lon="9.93192460570351"><ele>304.66666666666663</ele><time>2026-03-29T13:56:30Z</time></trkpt><trkpt lat="44.68323463356511" lon="9.93182396104996"><ele>304.3333333333333</ele><time>2026-03-29T13:56:31Z</time></trkpt><trkpt lat="44.68319546587941" lon="9.931726695836721"><ele>304.0</ele><time>2026-03-29T13:56:32Z</time></trkpt><trkpt lat="44.68316226726536" lon="9.931625333729205"><ele>304.0</ele><time>2026-03-29T13:56:33Z</time></trkpt><trkpt lat="44.68312879777563" lon="9.93151116812358"><ele>304.0</ele><time>2026-03-29T13:56:34Z</time></trkpt><trkpt lat="44.6831050705459" lon="9.931395344850324"><ele>304.0</ele><time>2026-03-29T13:56:35Z</time></trkpt><trkpt lat="44.68307310533535" lon="9.931289946447285"><ele>304.0</ele><time>2026-03-29T13:56:36Z</time></trkpt><trkpt lat="44.68304177538065" lon="9.931178411454171"><ele>304.0</ele><time>2026-03-29T13:56:37Z</time></trkpt><trkpt lat="44.68300212662194" lon="9.931074448031561"><ele>304.0</ele><time>2026-03-29T13:56:38Z</time></trkpt><trkpt lat="44.68295425512384" lon="9.930988595174291"><ele>304.0</ele><time>2026-03-29T13:56:39Z</time></trkpt><trkpt lat="44.6829044625241" lon="9.930914835192201"><ele>304.0</ele><time>2026-03-29T13:56:40Z</time></trkpt><trkpt lat="44.68285778412706" lon="9.930842767611786"><ele>304.0</ele><time>2026-03-29T13:56:41Z</time></trkpt><trkpt lat="44.682815465631826" lon="9.930756864284803"><ele>304.0</ele><time>2026-03-29T13:56:42Z</time></trkpt><trkpt lat="44.682784355823124" lon="9.93065029371021"><ele>304.0</ele><time>2026-03-29T13:56:43Z</time></trkpt><trkpt lat="44.68274701741703" lon="9.930537863158886"><ele>304.0</ele><time>2026-03-29T13:56:44Z</time></trkpt><trkpt lat="44.68269478430693" lon="9.930438140239456"><ele>298.4</ele><time>2026-03-29T13:56:45Z</time></trkpt><trkpt lat="44.682614854191286" lon="9.93034765785482"><ele>292.79999999999995</ele><time>2026-03-29T13:56:46Z</time></trkpt><trkpt lat="44.68253141106564" lon="9.930269049256372"><ele>287.20000000000005</ele><time>2026-03-29T13:56:47Z</time></trkpt><trkpt lat="44.68244923285874" lon="9.930183886078115"><ele>281.6</ele><time>2026-03-29T13:56:48Z</time></trkpt><trkpt lat="44.68237104735377" lon="9.930094607495699"><ele>276.0</ele><time>2026-03-29T13:56:49Z</time></trkpt><trkpt lat="44.682295625278776" lon="9.93000419239747"><ele>275.8333333333333</ele><time>2026-03-29T13:56:50Z</time></trkpt><trkpt lat="44.68221869346075" lon="9.929917353700478"><ele>275.6666666666667</ele><time>2026-03-29T13:56:51Z</time></trkpt><trkpt lat="44.68214798477863" lon="9.929834768206561"><ele>275.5</ele><time>2026-03-29T13:56:52Z</time></trkpt><trkpt lat="44.68208963146025" lon="9.929749125455874"><ele>275.33333333333337</ele><time>2026-03-29T13:56:53Z</time></trkpt><trkpt lat="44.68204473334873" lon="9.92965610880515"><ele>275.1666666666667</ele><time>2026-03-29T13:56:54Z</time></trkpt><trkpt lat="44.6820108324511" lon="9.929551165787075"><ele>275.0</ele><time>2026-03-29T13:56:55Z</time></trkpt><trkpt lat="44.68198250630842" lon="9.929449890897395"><ele>275.0</ele><time>2026-03-29T13:56:56Z</time></trkpt><trkpt lat="44.68195223448966" lon="9.929347026969966"><ele>275.0</ele><time>2026-03-29T13:56:57Z</time></trkpt><trkpt lat="44.68191940842777" lon="9.929234815603245"><ele>275.0</ele><time>2026-03-29T13:56:58Z</time></trkpt><trkpt lat="44.68188493986673" lon="9.929111922036201"><ele>275.0</ele><time>2026-03-29T13:56:59Z</time></trkpt><trkpt lat="44.681850800336356" lon="9.928984713781102"><ele>275.0</ele><time>2026-03-29T13:57:00Z</time></trkpt><trkpt lat="44.68181713741357" lon="9.928861152866217"><ele>271.6</ele><time>2026-03-29T13:57:01Z</time></trkpt><trkpt lat="44.681781458889375" lon="9.928741430387355"><ele>268.2</ele><time>2026-03-29T13:57:02Z</time></trkpt><trkpt lat="44.68174098435784" lon="9.92861785967658"><ele>264.8</ele><time>2026-03-29T13:57:03Z</time></trkpt><trkpt lat="44.68168622406921" lon="9.928504502737077"><ele>261.4</ele><time>2026-03-29T13:57:04Z</time></trkpt><trkpt lat="44.681625163191015" lon="9.928398158723198"><ele>258.0</ele><time>2026-03-29T13:57:05Z</time></trkpt><trkpt lat="44.68156703097337" lon="9.928297408049826"><ele>257.6</ele><time>2026-03-29T13:57:06Z</time></trkpt><trkpt lat="44.681509217715" lon="9.928197507728283"><ele>257.20000000000005</ele><time>2026-03-29T13:57:07Z</time></trkpt><trkpt lat="44.68145583021183" lon="9.928088360786623"><ele>256.8</ele><time>2026-03-29T13:57:08Z</time></trkpt><trkpt lat="44.68140275204862" lon="9.927968076871144"><ele>256.40000000000003</ele><time>2026-03-29T13:57:09Z</time></trkpt><trkpt lat="44.6813532203919" lon="9.927850069851766"><ele>256.0</ele><time>2026-03-29T13:57:10Z</time></trkpt><trkpt lat="44.68130631319623" lon="9.927730482179033"><ele>255.99999999999997</ele><time>2026-03-29T13:57:11Z</time></trkpt><trkpt lat="44.68125665970482" lon="9.92760788493725"><ele>256.0</ele><time>2026-03-29T13:57:12Z</time></trkpt><trkpt lat="44.681209107308284" lon="9.927486266861656"><ele>256.0</ele><time>2026-03-29T13:57:13Z</time></trkpt><trkpt lat="44.68117029797891" lon="9.927375897030933"><ele>256.0</ele><time>2026-03-29T13:57:14Z</time></trkpt><trkpt lat="44.681139156367486" lon="9.92728043685979"><ele>255.99999999999997</ele><time>2026-03-29T13:57:15Z</time></trkpt><trkpt lat="44.681113806594794" lon="9.927189677266643"><ele>256.0</ele><time>2026-03-29T13:57:16Z</time></trkpt><trkpt lat="44.68107427072408" lon="9.927113743186322"><ele>252.0</ele><time>2026-03-29T13:57:17Z</time></trkpt><trkpt lat="44.68096721033952" lon="9.92705015475875"><ele>248.00000000000003</ele><time>2026-03-29T13:57:19Z</time></trkpt><trkpt lat="44.68086304586551" lon="9.927014590146955"><ele>244.00000000000003</ele><time>2026-03-29T13:57:21Z</time></trkpt><trkpt lat="44.68079497263021" lon="9.926868316584946"><ele>240.0</ele><time>2026-03-29T13:57:23Z</time></trkpt><trkpt lat="44.680780973971295" lon="9.92674481394186"><ele>236.0</ele><time>2026-03-29T13:57:24Z</time></trkpt><trkpt lat="44.68075941060258" lon="9.926606560141446"><ele>236.0</ele><time>2026-03-29T13:57:25Z</time></trkpt><trkpt lat="44.68073045937466" lon="9.9264554800639"><ele>236.0</ele><time>2026-03-29T13:57:26Z</time></trkpt><trkpt lat="44.68070285318729" lon="9.926285566992734"><ele>236.0</ele><time>2026-03-29T13:57:27Z</time></trkpt><trkpt lat="44.68067369675968" lon="9.92610213254679"><ele>236.0</ele><time>2026-03-29T13:57:28Z</time></trkpt><trkpt lat="44.680640546764444" lon="9.9259064327831"><ele>236.0</ele><time>2026-03-29T13:57:29Z</time></trkpt><trkpt lat="44.680607329613046" lon="9.925715988928573"><ele>236.0</ele><time>2026-03-29T13:57:30Z</time></trkpt><trkpt lat="44.680577777235285" lon="9.925541677878272"><ele>236.0</ele><time>2026-03-29T13:57:31Z</time></trkpt><trkpt lat="44.68055092179352" lon="9.925384707412535"><ele>236.0</ele><time>2026-03-29T13:57:32Z</time></trkpt><trkpt lat="44.680526190488365" lon="9.925241419717077"><ele>236.0</ele><time>2026-03-29T13:57:33Z</time></trkpt><trkpt lat="44.68050211277254" lon="9.925112722428556"><ele>236.00000000000003</ele><time>2026-03-29T13:57:34Z</time></trkpt><trkpt lat="44.68047605527215" lon="9.92499457826572"><ele>236.00000000000003</ele><time>2026-03-29T13:57:35Z</time></trkpt><trkpt lat="44.680444405720905" lon="9.92490222122642"><ele>236.0</ele><time>2026-03-29T13:57:36Z</time></trkpt><trkpt lat="44.68044092887709" lon="9.924795632504178"><ele>236.0</ele><time>2026-03-29T13:57:38Z</time></trkpt><trkpt lat="44.680302973770885" lon="9.924841165211289"><ele>236.00000000000003</ele><time>2026-03-29T13:57:40Z</time></trkpt><trkpt lat="44.68028356374197" lon="9.9247464147186"><ele>236.0</ele><time>2026-03-29T13:57:42Z</time></trkpt><trkpt lat="44.68023116432907" lon="9.924665461278606"><ele>236.0</ele><time>2026-03-29T14:05:29.999Z</time></trkpt><trkpt lat="44.68027196364696" lon="9.924583970568609"><ele>236.0</ele><time>2026-03-29T14:05:31.999Z</time></trkpt><trkpt lat="44.68031177899196" lon="9.924508382137073"><ele>236.00000000000003</ele><time>2026-03-29T14:05:34.999Z</time></trkpt><trkpt lat="44.680345160736195" lon="9.9243785670338"><ele>236.0</ele><time>2026-03-29T14:05:37Z</time></trkpt><trkpt lat="44.680341990055545" lon="9.924271763042134"><ele>236.0</ele><time>2026-03-29T14:05:38Z</time></trkpt><trkpt lat="44.680323111242835" lon="9.924137144100854"><ele>236.00000000000003</ele><time>2026-03-29T14:05:39Z</time></trkpt><trkpt lat="44.68029948941503" lon="9.9239921757059"><ele>236.00000000000003</ele><time>2026-03-29T14:05:40Z</time></trkpt><trkpt lat="44.68026807168121" lon="9.923839046298257"><ele>236.0</ele><time>2026-03-29T14:05:41Z</time></trkpt><trkpt lat="44.68024507713208" lon="9.923699478605645"><ele>236.0</ele><time>2026-03-29T14:05:42Z</time></trkpt><trkpt lat="44.68021930079881" lon="9.92355334031561"><ele>236.0</ele><time>2026-03-29T14:05:43Z</time></trkpt><trkpt lat="44.680186941569715" lon="9.923403725078085"><ele>236.00000000000003</ele><time>2026-03-29T14:05:44Z</time></trkpt><trkpt lat="44.680161495250935" lon="9.923258368299019"><ele>236.00000000000003</ele><time>2026-03-29T14:05:45Z</time></trkpt><trkpt lat="44.680152103130126" lon="9.92309379966476"><ele>236.0</ele><time>2026-03-29T14:05:46Z</time></trkpt><trkpt lat="44.680135272746256" lon="9.922943323424667"><ele>236.0</ele><time>2026-03-29T14:05:47Z</time></trkpt><trkpt lat="44.68009633066793" lon="9.922742085963572"><ele>236.0</ele><time>2026-03-29T14:05:48Z</time></trkpt><trkpt lat="44.680106199511854" lon="9.922628057436976"><ele>236.0</ele><time>2026-03-29T14:05:49Z</time></trkpt><trkpt lat="44.680096997432734" lon="9.922451052821101"><ele>236.0</ele><time>2026-03-29T14:05:50Z</time></trkpt><trkpt lat="44.680115883451506" lon="9.922251854681607"><ele>236.0</ele><time>2026-03-29T14:05:51Z</time></trkpt><trkpt lat="44.6801115085336" lon="9.92205765541064"><ele>236.25</ele><time>2026-03-29T14:05:52Z</time></trkpt><trkpt lat="44.6801155627468" lon="9.92184649981007"><ele>236.5</ele><time>2026-03-29T14:05:53Z</time></trkpt><trkpt lat="44.680127004086515" lon="9.921647335112048"><ele>236.75</ele><time>2026-03-29T14:05:54Z</time></trkpt><trkpt lat="44.68012126472445" lon="9.921443041752958"><ele>237.0</ele><time>2026-03-29T14:05:55Z</time></trkpt><trkpt lat="44.680131395869005" lon="9.921236178544232"><ele>237.33333333333331</ele><time>2026-03-29T14:05:56Z</time></trkpt><trkpt lat="44.68013767381865" lon="9.921021043790526"><ele>237.66666666666666</ele><time>2026-03-29T14:05:57Z</time></trkpt><trkpt lat="44.68014314492943" lon="9.920795957897413"><ele>238.0</ele><time>2026-03-29T14:05:58Z</time></trkpt><trkpt lat="44.680147829865824" lon="9.920564919916151"><ele>239.0</ele><time>2026-03-29T14:05:59Z</time></trkpt><trkpt lat="44.68015397213486" lon="9.920326656018995"><ele>240.0</ele><time>2026-03-29T14:06:00Z</time></trkpt><trkpt lat="44.68015851781088" lon="9.920075351476857"><ele>241.0</ele><time>2026-03-29T14:06:01Z</time></trkpt><trkpt lat="44.68016049324586" lon="9.919810818166575"><ele>241.0</ele><time>2026-03-29T14:06:02Z</time></trkpt><trkpt lat="44.6801616863007" lon="9.919544008133323"><ele>241.0</ele><time>2026-03-29T14:06:03Z</time></trkpt><trkpt lat="44.680166141748415" lon="9.919277378100116"><ele>241.0</ele><time>2026-03-29T14:06:04Z</time></trkpt><trkpt lat="44.68017201371147" lon="9.919030517018163"><ele>241.33333333333331</ele><time>2026-03-29T14:06:05Z</time></trkpt><trkpt lat="44.68017785103843" lon="9.918781762102082"><ele>241.66666666666669</ele><time>2026-03-29T14:06:06Z</time></trkpt><trkpt lat="44.680180829080314" lon="9.918539785156131"><ele>242.0</ele><time>2026-03-29T14:06:07Z</time></trkpt><trkpt lat="44.68018485335897" lon="9.918312838507058"><ele>242.5</ele><time>2026-03-29T14:06:08Z</time></trkpt><trkpt lat="44.68019053620907" lon="9.918094636147703"><ele>243.0</ele><time>2026-03-29T14:06:09Z</time></trkpt><trkpt lat="44.68019032464313" lon="9.917893663353816"><ele>243.5</ele><time>2026-03-29T14:06:10Z</time></trkpt><trkpt lat="44.680193209745504" lon="9.917685335454413"><ele>244.0</ele><time>2026-03-29T14:06:11Z</time></trkpt><trkpt lat="44.68020736550847" lon="9.917479685439263"><ele>244.25</ele><time>2026-03-29T14:06:12Z</time></trkpt><trkpt lat="44.68024235526369" lon="9.917277626785355"><ele>244.5</ele><time>2026-03-29T14:06:13Z</time></trkpt><trkpt lat="44.68029243379772" lon="9.91708429170139"><ele>244.75</ele><time>2026-03-29T14:06:14Z</time></trkpt><trkpt lat="44.680356265911804" lon="9.916907077213985"><ele>245.0</ele><time>2026-03-29T14:06:15Z</time></trkpt><trkpt lat="44.680446763347874" lon="9.916753465047915"><ele>249.66666666666669</ele><time>2026-03-29T14:06:16Z</time></trkpt><trkpt lat="44.68055223702745" lon="9.916606394342901"><ele>254.33333333333331</ele><time>2026-03-29T14:06:17Z</time></trkpt><trkpt lat="44.68068278110028" lon="9.916483613892627"><ele>259.0</ele><time>2026-03-29T14:06:18Z</time></trkpt><trkpt lat="44.680823108732326" lon="9.916389869305481"><ele>259.0</ele><time>2026-03-29T14:06:19Z</time></trkpt><trkpt lat="44.680936252058636" lon="9.916324126851366"><ele>259.0</ele><time>2026-03-29T14:06:20Z</time></trkpt><trkpt lat="44.681013588205715" lon="9.916287064880692"><ele>259.0</ele><time>2026-03-29T14:06:21Z</time></trkpt><trkpt lat="44.681078922888624" lon="9.91630674587515"><ele>259.0</ele><time>2026-03-29T14:06:23Z</time></trkpt><trkpt lat="44.68112453377532" lon="9.916461034780811"><ele>259.0</ele><time>2026-03-29T14:06:25Z</time></trkpt><trkpt lat="44.681133645622374" lon="9.916588029962131"><ele>260.4</ele><time>2026-03-29T14:06:26Z</time></trkpt><trkpt lat="44.68113724604016" lon="9.916722818273007"><ele>261.79999999999995</ele><time>2026-03-29T14:06:27Z</time></trkpt><trkpt lat="44.68114547924312" lon="9.916873810733708"><ele>263.20000000000005</ele><time>2026-03-29T14:06:28Z</time></trkpt><trkpt lat="44.68116669335052" lon="9.91702671568652"><ele>264.6</ele><time>2026-03-29T14:06:29Z</time></trkpt><trkpt lat="44.68119617247939" lon="9.91717622702633"><ele>266.0</ele><time>2026-03-29T14:06:30Z</time></trkpt><trkpt lat="44.68122953343724" lon="9.917302376773076"><ele>266.2</ele><time>2026-03-29T14:06:31Z</time></trkpt><trkpt lat="44.68126775863589" lon="9.91743353088487"><ele>266.40000000000003</ele><time>2026-03-29T14:06:32Z</time></trkpt><trkpt lat="44.68130246054834" lon="9.917584323320693"><ele>266.6</ele><time>2026-03-29T14:06:33Z</time></trkpt><trkpt lat="44.68133530358642" lon="9.917728961720956"><ele>266.8</ele><time>2026-03-29T14:06:34Z</time></trkpt><trkpt lat="44.68136793896527" lon="9.917843101754446"><ele>267.0</ele><time>2026-03-29T14:06:35Z</time></trkpt><trkpt lat="44.681395040214284" lon="9.917947541721714"><ele>267.0</ele><time>2026-03-29T14:06:36Z</time></trkpt><trkpt lat="44.68141748030223" lon="9.918039821085516"><ele>267.0</ele><time>2026-03-29T14:06:37Z</time></trkpt><trkpt lat="44.68146178271348" lon="9.91819677792176"><ele>267.0</ele><time>2026-03-29T14:06:39Z</time></trkpt><trkpt lat="44.68162222841415" lon="9.918198590126579"><ele>267.0</ele><time>2026-03-29T14:06:41Z</time></trkpt><trkpt lat="44.68171621534751" lon="9.918154712654045"><ele>267.0</ele><time>2026-03-29T14:06:42Z</time></trkpt><trkpt lat="44.68182667176177" lon="9.918103324091224"><ele>270.25</ele><time>2026-03-29T14:06:43Z</time></trkpt><trkpt lat="44.68193988948874" lon="9.918058614087796"><ele>273.5</ele><time>2026-03-29T14:06:44Z</time></trkpt><trkpt lat="44.68205747712615" lon="9.91802409528663"><ele>276.75</ele><time>2026-03-29T14:06:45Z</time></trkpt><trkpt lat="44.68217916224217" lon="9.917983369360922"><ele>280.0</ele><time>2026-03-29T14:06:46Z</time></trkpt><trkpt lat="44.68230339886537" lon="9.917936027862611"><ele>280.0</ele><time>2026-03-29T14:06:47Z</time></trkpt><trkpt lat="44.68242847554961" lon="9.91788950975699"><ele>280.0</ele><time>2026-03-29T14:06:48Z</time></trkpt><trkpt lat="44.68256272604743" lon="9.917843145821632"><ele>280.0</ele><time>2026-03-29T14:06:49Z</time></trkpt><trkpt lat="44.68269700611156" lon="9.917802405919772"><ele>280.0</ele><time>2026-03-29T14:06:50Z</time></trkpt><trkpt lat="44.682804630074195" lon="9.917771061187006"><ele>282.6</ele><time>2026-03-29T14:06:51Z</time></trkpt><trkpt lat="44.68290583979633" lon="9.917736100783394"><ele>285.2</ele><time>2026-03-29T14:06:52Z</time></trkpt><trkpt lat="44.68300383451642" lon="9.917705266852307"><ele>287.8</ele><time>2026-03-29T14:06:52.999Z</time></trkpt><trkpt lat="44.683100845770724" lon="9.917674050813623"><ele>290.4</ele><time>2026-03-29T14:06:53.999Z</time></trkpt><trkpt lat="44.683209065145405" lon="9.917638614488725"><ele>293.0</ele><time>2026-03-29T14:06:54.999Z</time></trkpt><trkpt lat="44.683316469086456" lon="9.917601764606184"><ele>293.0</ele><time>2026-03-29T14:06:55.999Z</time></trkpt><trkpt lat="44.683402975046555" lon="9.917580021234906"><ele>293.0</ele><time>2026-03-29T14:06:56.999Z</time></trkpt><trkpt lat="44.68347729852983" lon="9.917565793367043"><ele>293.0</ele><time>2026-03-29T14:06:57.999Z</time></trkpt><trkpt lat="44.6835507793092" lon="9.917555334586774"><ele>293.0</ele><time>2026-03-29T14:06:58.999Z</time></trkpt><trkpt lat="44.68363107762866" lon="9.917575701486665"><ele>293.0</ele><time>2026-03-29T14:06:59.999Z</time></trkpt><trkpt lat="44.683702964847505" lon="9.91763253428306"><ele>293.0</ele><time>2026-03-29T14:07:00.999Z</time></trkpt><trkpt lat="44.68372106462208" lon="9.917740893885767"><ele>293.8</ele><time>2026-03-29T14:07:01.999Z</time></trkpt><trkpt lat="44.68372642389218" lon="9.917835930327348"><ele>294.6</ele><time>2026-03-29T14:07:02.999Z</time></trkpt><trkpt lat="44.68374541591508" lon="9.917960917833092"><ele>295.4</ele><time>2026-03-29T14:07:03.999Z</time></trkpt><trkpt lat="44.6837576764112" lon="9.918075702200085"><ele>296.2</ele><time>2026-03-29T14:07:04.999Z</time></trkpt><trkpt lat="44.683782120488566" lon="9.918233854636878"><ele>297.0</ele><time>2026-03-29T14:07:06.999Z</time></trkpt><trkpt lat="44.683878977391984" lon="9.918343508876937"><ele>297.0</ele><time>2026-03-29T14:07:08.999Z</time></trkpt><trkpt lat="44.68398410599511" lon="9.918313432181595"><ele>297.0</ele><time>2026-03-29T14:07:09.999Z</time></trkpt><trkpt lat="44.684088350196234" lon="9.918287934163109"><ele>297.0</ele><time>2026-03-29T14:07:10.999Z</time></trkpt><trkpt lat="44.68419514221448" lon="9.918267695148216"><ele>297.0</ele><time>2026-03-29T14:07:11.999Z</time></trkpt><trkpt lat="44.68428161370538" lon="9.918257247338468"><ele>297.0</ele><time>2026-03-29T14:07:12.999Z</time></trkpt><trkpt lat="44.68437187950172" lon="9.918248637752926"><ele>298.4</ele><time>2026-03-29T14:07:13.999Z</time></trkpt><trkpt lat="44.68446946593507" lon="9.918239751525126"><ele>299.79999999999995</ele><time>2026-03-29T14:07:14.999Z</time></trkpt><trkpt lat="44.68456109350427" lon="9.91823451649364"><ele>301.2</ele><time>2026-03-29T14:07:15.999Z</time></trkpt><trkpt lat="44.68465626016127" lon="9.918220719975483"><ele>302.59999999999997</ele><time>2026-03-29T14:07:16.999Z</time></trkpt><trkpt lat="44.6847510363467" lon="9.918194112760798"><ele>304.0</ele><time>2026-03-29T14:07:17.999Z</time></trkpt><trkpt lat="44.68484209869541" lon="9.918139567214668"><ele>304.0</ele><time>2026-03-29T14:07:18.999Z</time></trkpt><trkpt lat="44.6849306804341" lon="9.918082107767145"><ele>304.0</ele><time>2026-03-29T14:07:19.999Z</time></trkpt><trkpt lat="44.68501884457645" lon="9.918020737094674"><ele>304.0</ele><time>2026-03-29T14:07:20.999Z</time></trkpt><trkpt lat="44.68511243392596" lon="9.917962771829663"><ele>304.0</ele><time>2026-03-29T14:07:21.999Z</time></trkpt><trkpt lat="44.685208687893166" lon="9.917899991087793"><ele>304.0</ele><time>2026-03-29T14:07:22.999Z</time></trkpt><trkpt lat="44.685303380598036" lon="9.91783438479405"><ele>305.0</ele><time>2026-03-29T14:07:23.999Z</time></trkpt><trkpt lat="44.685383813653736" lon="9.917781138333432"><ele>306.0</ele><time>2026-03-29T14:07:24.999Z</time></trkpt><trkpt lat="44.68546689231752" lon="9.917732122771717"><ele>307.0</ele><time>2026-03-29T14:07:25.999Z</time></trkpt><trkpt lat="44.685560193951915" lon="9.917663141121162"><ele>308.0</ele><time>2026-03-29T14:07:26.999Z</time></trkpt><trkpt lat="44.68565832844788" lon="9.917593577634767"><ele>309.0</ele><time>2026-03-29T14:07:27.999Z</time></trkpt><trkpt lat="44.68575328735421" lon="9.91753130822779"><ele>309.6666666666667</ele><time>2026-03-29T14:07:28.999Z</time></trkpt><trkpt lat="44.68583776344463" lon="9.917463358716104"><ele>310.3333333333333</ele><time>2026-03-29T14:07:29.999Z</time></trkpt><trkpt lat="44.68590150400708" lon="9.917386282230929"><ele>311.0</ele><time>2026-03-29T14:07:30.999Z</time></trkpt><trkpt lat="44.685950557873916" lon="9.917308925580858"><ele>311.66666666666663</ele><time>2026-03-29T14:07:31.999Z</time></trkpt><trkpt lat="44.686011198295276" lon="9.91722786301598"><ele>312.3333333333333</ele><time>2026-03-29T14:07:32.999Z</time></trkpt><trkpt lat="44.68608140561431" lon="9.91714256013855"><ele>313.0</ele><time>2026-03-29T14:07:33.999Z</time></trkpt><trkpt lat="44.68616399364933" lon="9.917061862051145"><ele>315.3333333333333</ele><time>2026-03-29T14:07:34.999Z</time></trkpt><trkpt lat="44.686236482364386" lon="9.916999981129845"><ele>317.66666666666663</ele><time>2026-03-29T14:07:35.999Z</time></trkpt><trkpt lat="44.6862979603504" lon="9.9169467594685"><ele>320.0</ele><time>2026-03-29T14:07:36.999Z</time></trkpt><trkpt lat="44.68635355550092" lon="9.916895727281995"><ele>322.3333333333333</ele><time>2026-03-29T14:07:37.999Z</time></trkpt><trkpt lat="44.68641064243207" lon="9.916836405735461"><ele>324.6666666666667</ele><time>2026-03-29T14:07:38.999Z</time></trkpt><trkpt lat="44.6864699622761" lon="9.916760038426077"><ele>327.0</ele><time>2026-03-29T14:07:39.999Z</time></trkpt><trkpt lat="44.686543562192114" lon="9.916717777184756"><ele>327.0</ele><time>2026-03-29T14:07:40.999Z</time></trkpt><trkpt lat="44.686617109420034" lon="9.916679717754668"><ele>327.0</ele><time>2026-03-29T14:07:41.999Z</time></trkpt><trkpt lat="44.686702919503624" lon="9.916745788207235"><ele>327.0</ele><time>2026-03-29T14:07:43Z</time></trkpt><trkpt lat="44.686804150107896" lon="9.916771567921035"><ele>327.0</ele><time>2026-03-29T14:07:44Z</time></trkpt><trkpt lat="44.68688544255974" lon="9.916828412096372"><ele>327.0</ele><time>2026-03-29T14:07:45Z</time></trkpt><trkpt lat="44.686941973797474" lon="9.916868302874281"><ele>327.0</ele><time>2026-03-29T14:07:46Z</time></trkpt><trkpt lat="44.68704834714381" lon="9.916973179978848"><ele>329.40000000000003</ele><time>2026-03-29T14:07:48Z</time></trkpt><trkpt lat="44.68711619750424" lon="9.917011634223181"><ele>331.8</ele><time>2026-03-29T14:07:49Z</time></trkpt><trkpt lat="44.68720989267709" lon="9.916995571451059"><ele>334.2</ele><time>2026-03-29T14:07:50Z</time></trkpt><trkpt lat="44.68731092370262" lon="9.916944785839993"><ele>336.6</ele><time>2026-03-29T14:07:51Z</time></trkpt><trkpt lat="44.68740823910179" lon="9.916872258166709"><ele>339.0</ele><time>2026-03-29T14:07:52Z</time></trkpt><trkpt lat="44.687511981187946" lon="9.916796218843233"><ele>341.0</ele><time>2026-03-29T14:07:53Z</time></trkpt><trkpt lat="44.687605310109646" lon="9.916728221528931"><ele>343.0</ele><time>2026-03-29T14:07:54Z</time></trkpt><trkpt lat="44.68768139787706" lon="9.916624738795512"><ele>345.0</ele><time>2026-03-29T14:07:55Z</time></trkpt><trkpt lat="44.68776401232187" lon="9.916516972318144"><ele>347.0</ele><time>2026-03-29T14:07:56Z</time></trkpt><trkpt lat="44.687859079205886" lon="9.916465944931208"><ele>349.0</ele><time>2026-03-29T14:07:57Z</time></trkpt><trkpt lat="44.687952908480774" lon="9.91645725353161"><ele>350.79999999999995</ele><time>2026-03-29T14:07:58Z</time></trkpt><trkpt lat="44.68803938496572" lon="9.916466833000712"><ele>352.59999999999997</ele><time>2026-03-29T14:07:59Z</time></trkpt><trkpt lat="44.68812488453915" lon="9.916504549086133"><ele>354.4</ele><time>2026-03-29T14:08:00Z</time></trkpt><trkpt lat="44.68820430958707" lon="9.916565306248783"><ele>356.2</ele><time>2026-03-29T14:08:01Z</time></trkpt><trkpt lat="44.68829259108512" lon="9.916634682290631"><ele>358.0</ele><time>2026-03-29T14:08:02Z</time></trkpt><trkpt lat="44.68838644421457" lon="9.916675278947638"><ele>358.0</ele><time>2026-03-29T14:08:03Z</time></trkpt><trkpt lat="44.688485104396904" lon="9.916663068332868"><ele>358.0</ele><time>2026-03-29T14:08:04Z</time></trkpt><trkpt lat="44.68856429346174" lon="9.916611654114005"><ele>358.0</ele><time>2026-03-29T14:08:05Z</time></trkpt><trkpt lat="44.688673106212306" lon="9.916558015026604"><ele>358.0</ele><time>2026-03-29T14:08:07Z</time></trkpt><trkpt lat="44.6887346043838" lon="9.916590667560419"><ele>358.0</ele><time>2026-03-29T14:08:08Z</time></trkpt><trkpt lat="44.68879157440269" lon="9.916683566652754"><ele>360.2</ele><time>2026-03-29T14:08:09Z</time></trkpt><trkpt lat="44.688827265243084" lon="9.91681128129234"><ele>362.4</ele><time>2026-03-29T14:08:10Z</time></trkpt><trkpt lat="44.68884495270476" lon="9.916979775775872"><ele>364.59999999999997</ele><time>2026-03-29T14:08:11Z</time></trkpt><trkpt lat="44.68886899198511" lon="9.917126299697529"><ele>366.79999999999995</ele><time>2026-03-29T14:08:12Z</time></trkpt><trkpt lat="44.68890121413455" lon="9.917228424352873"><ele>369.0</ele><time>2026-03-29T14:08:13Z</time></trkpt><trkpt lat="44.68892866485229" lon="9.91732898140792"><ele>369.0</ele><time>2026-03-29T14:08:14Z</time></trkpt><trkpt lat="44.68895834396283" lon="9.917424877191229"><ele>369.0</ele><time>2026-03-29T14:08:15Z</time></trkpt><trkpt lat="44.6889958849393" lon="9.91750382894556"><ele>369.0</ele><time>2026-03-29T14:08:16Z</time></trkpt><trkpt lat="44.68906149820879" lon="9.917579217069456"><ele>369.0</ele><time>2026-03-29T14:08:17Z</time></trkpt><trkpt lat="44.68914796683889" lon="9.917640896996623"><ele>369.0</ele><time>2026-03-29T14:08:18Z</time></trkpt><trkpt lat="44.689234793484715" lon="9.91768786981808"><ele>369.0</ele><time>2026-03-29T14:08:19Z</time></trkpt><trkpt lat="44.68932384830865" lon="9.917726551072947"><ele>369.8333333333333</ele><time>2026-03-29T14:08:20Z</time></trkpt><trkpt lat="44.689391059015755" lon="9.917747501116628"><ele>370.6666666666667</ele><time>2026-03-29T14:08:21Z</time></trkpt><trkpt lat="44.689496412789374" lon="9.917805588548253"><ele>371.5</ele><time>2026-03-29T14:08:23Z</time></trkpt><trkpt lat="44.689522567992526" lon="9.917889105188788"><ele>372.33333333333337</ele><time>2026-03-29T14:08:24Z</time></trkpt><trkpt lat="44.68952230617693" lon="9.917988029055726"><ele>373.1666666666667</ele><time>2026-03-29T14:08:25Z</time></trkpt><trkpt lat="44.68948758873812" lon="9.918096121157717"><ele>374.0</ele><time>2026-03-29T14:08:26Z</time></trkpt><trkpt lat="44.689460529149066" lon="9.91819815013356"><ele>378.0</ele><time>2026-03-29T14:08:27Z</time></trkpt><trkpt lat="44.68944382961034" lon="9.918285017400478"><ele>382.0</ele><time>2026-03-29T14:08:28Z</time></trkpt><trkpt lat="44.68950412368051" lon="9.918423612500767"><ele>386.0</ele><time>2026-03-29T14:08:30Z</time></trkpt><trkpt lat="44.689575313722244" lon="9.918456996940973"><ele>390.0</ele><time>2026-03-29T14:08:31Z</time></trkpt><trkpt lat="44.68965403477432" lon="9.918479922255788"><ele>393.99999999999994</ele><time>2026-03-29T14:08:32Z</time></trkpt><trkpt lat="44.689727202701484" lon="9.918542557131602"><ele>398.0</ele><time>2026-03-29T14:08:33Z</time></trkpt><trkpt lat="44.689782702205726" lon="9.918637352618632"><ele>398.79999999999995</ele><time>2026-03-29T14:08:34Z</time></trkpt><trkpt lat="44.68981040559552" lon="9.918767189269872"><ele>399.6</ele><time>2026-03-29T14:08:35Z</time></trkpt><trkpt lat="44.689848158812616" lon="9.918882312767172"><ele>400.4</ele><time>2026-03-29T14:08:36Z</time></trkpt><trkpt lat="44.68982914252826" lon="9.919001775376511"><ele>401.20000000000005</ele><time>2026-03-29T14:08:37Z</time></trkpt><trkpt lat="44.68978445667413" lon="9.919109410645502"><ele>402.0</ele><time>2026-03-29T14:08:38Z</time></trkpt><trkpt lat="44.68972889111575" lon="9.919212738460724"><ele>402.40000000000003</ele><time>2026-03-29T14:08:39Z</time></trkpt><trkpt lat="44.68969105671958" lon="9.919336374811508"><ele>402.8</ele><time>2026-03-29T14:08:40Z</time></trkpt><trkpt lat="44.68966031332699" lon="9.919457358630376"><ele>403.2</ele><time>2026-03-29T14:08:41Z</time></trkpt><trkpt lat="44.6896297864574" lon="9.9195956135703"><ele>403.6</ele><time>2026-03-29T14:08:42Z</time></trkpt><trkpt lat="44.68960927255707" lon="9.919758232038514"><ele>404.0</ele><time>2026-03-29T14:08:43Z</time></trkpt><trkpt lat="44.68959805744173" lon="9.919909545647757"><ele>403.99999999999994</ele><time>2026-03-29T14:08:44Z</time></trkpt><trkpt lat="44.689596663614296" lon="9.920040713635736"><ele>404.0</ele><time>2026-03-29T14:08:45Z</time></trkpt><trkpt lat="44.68960042507951" lon="9.920160469112558"><ele>404.0</ele><time>2026-03-29T14:08:46Z</time></trkpt><trkpt lat="44.68961594467759" lon="9.920278002475792"><ele>404.0</ele><time>2026-03-29T14:08:47Z</time></trkpt><trkpt lat="44.68964836754709" lon="9.920368660694418"><ele>403.99999999999994</ele><time>2026-03-29T14:08:48Z</time></trkpt><trkpt lat="44.6897042986083" lon="9.920438003174588"><ele>404.0</ele><time>2026-03-29T14:08:49Z</time></trkpt><trkpt lat="44.689781548910105" lon="9.920474181859154"><ele>402.6</ele><time>2026-03-29T14:08:50Z</time></trkpt><trkpt lat="44.68987117187116" lon="9.92048828761594"><ele>401.2</ele><time>2026-03-29T14:08:51Z</time></trkpt><trkpt lat="44.68996344690833" lon="9.920464736196772"><ele>399.8</ele><time>2026-03-29T14:08:52Z</time></trkpt><trkpt lat="44.69005474467811" lon="9.920416958110703"><ele>398.40000000000003</ele><time>2026-03-29T14:08:53Z</time></trkpt><trkpt lat="44.69014711598856" lon="9.920378112948322"><ele>397.0</ele><time>2026-03-29T14:08:54Z</time></trkpt><trkpt lat="44.690233357622226" lon="9.920340682227673"><ele>401.0</ele><time>2026-03-29T14:08:55Z</time></trkpt><trkpt lat="44.69031873529745" lon="9.92028749595096"><ele>405.0</ele><time>2026-03-29T14:08:56Z</time></trkpt><trkpt lat="44.690393616451956" lon="9.920191491654446"><ele>409.0</ele><time>2026-03-29T14:08:57Z</time></trkpt><trkpt lat="44.69046619263572" lon="9.920075753549474"><ele>413.0</ele><time>2026-03-29T14:08:58Z</time></trkpt><trkpt lat="44.6905403702004" lon="9.919990693975997"><ele>417.0</ele><time>2026-03-29T14:08:59Z</time></trkpt><trkpt lat="44.69063150673982" lon="9.919967760414902"><ele>417.8</ele><time>2026-03-29T14:09:00Z</time></trkpt><trkpt lat="44.690723968957" lon="9.919970076471122"><ele>418.6</ele><time>2026-03-29T14:09:01Z</time></trkpt><trkpt lat="44.69082447527137" lon="9.91997518265844"><ele>419.40000000000003</ele><time>2026-03-29T14:09:02Z</time></trkpt><trkpt lat="44.69092726346547" lon="9.919986997352574"><ele>420.20000000000005</ele><time>2026-03-29T14:09:03Z</time></trkpt><trkpt lat="44.69103470832181" lon="9.919969513892786"><ele>421.0</ele><time>2026-03-29T14:09:04Z</time></trkpt><trkpt lat="44.69111969820644" lon="9.919996577780978"><ele>423.33333333333337</ele><time>2026-03-29T14:09:05Z</time></trkpt><trkpt lat="44.69120280588425" lon="9.919995106164784"><ele>425.6666666666667</ele><time>2026-03-29T14:09:05.999Z</time></trkpt><trkpt lat="44.69126975564558" lon="9.920048564173147"><ele>428.0</ele><time>2026-03-29T14:09:06.999Z</time></trkpt><trkpt lat="44.69131578027025" lon="9.920125283252267"><ele>430.33333333333337</ele><time>2026-03-29T14:09:07.999Z</time></trkpt><trkpt lat="44.69134200840586" lon="9.92023284260945"><ele>432.6666666666667</ele><time>2026-03-29T14:09:08.999Z</time></trkpt><trkpt lat="44.69136237370732" lon="9.920357993237813"><ele>435.0</ele><time>2026-03-29T14:09:09.999Z</time></trkpt><trkpt lat="44.69141506823422" lon="9.920512519647117"><ele>435.0</ele><time>2026-03-29T14:09:11.999Z</time></trkpt><trkpt lat="44.691469884888036" lon="9.92060639646111"><ele>435.0</ele><time>2026-03-29T14:09:13.999Z</time></trkpt><trkpt lat="44.69151384719259" lon="9.920675090761137"><ele>435.0</ele><time>2026-03-29T14:09:16.999Z</time></trkpt><trkpt lat="44.69162935420436" lon="9.920518275386721"><ele>435.0</ele><time>2026-03-29T14:09:17.999Z</time></trkpt><trkpt lat="44.691631843355694" lon="9.920393061865532"><ele>435.0</ele><time>2026-03-29T14:09:18.999Z</time></trkpt><trkpt lat="44.69166960887466" lon="9.920289649291744"><ele>435.0</ele><time>2026-03-29T14:09:19.999Z</time></trkpt><trkpt lat="44.69170376055425" lon="9.920191590851001"><ele>435.0</ele><time>2026-03-29T14:09:20.999Z</time></trkpt><trkpt lat="44.6917469270746" lon="9.920085949963099"><ele>435.0</ele><time>2026-03-29T14:09:21.999Z</time></trkpt><trkpt lat="44.69177827650414" lon="9.919985396367705"><ele>435.0</ele><time>2026-03-29T14:09:22.999Z</time></trkpt><trkpt lat="44.691821967407066" lon="9.919901921588567"><ele>435.0</ele><time>2026-03-29T14:09:23.999Z</time></trkpt><trkpt lat="44.691876401127985" lon="9.919826434190623"><ele>435.0</ele><time>2026-03-29T14:09:24.999Z</time></trkpt><trkpt lat="44.691923016906635" lon="9.919749996574135"><ele>436.8333333333333</ele><time>2026-03-29T14:09:25.999Z</time></trkpt><trkpt lat="44.69197030199946" lon="9.919666833635857"><ele>438.66666666666663</ele><time>2026-03-29T14:09:26.999Z</time></trkpt><trkpt lat="44.692028517345406" lon="9.919624656001996"><ele>440.5</ele><time>2026-03-29T14:09:27.999Z</time></trkpt><trkpt lat="44.69210880620173" lon="9.91953126718929"><ele>442.3333333333333</ele><time>2026-03-29T14:09:29.999Z</time></trkpt><trkpt lat="44.69221624843974" lon="9.919445530521395"><ele>444.16666666666663</ele><time>2026-03-29T14:09:31.999Z</time></trkpt><trkpt lat="44.69227499499369" lon="9.91940213262855"><ele>446.0</ele><time>2026-03-29T14:09:32.999Z</time></trkpt><trkpt lat="44.69228736627982" lon="9.919247403687919"><ele>446.6</ele><time>2026-03-29T14:09:33.999Z</time></trkpt><trkpt lat="44.69232270201597" lon="9.919122424340184"><ele>447.20000000000005</ele><time>2026-03-29T14:09:34.999Z</time></trkpt><trkpt lat="44.692332362806944" lon="9.918978854579658"><ele>447.79999999999995</ele><time>2026-03-29T14:09:35.999Z</time></trkpt><trkpt lat="44.692356633866275" lon="9.918831336210827"><ele>448.4</ele><time>2026-03-29T14:09:36.999Z</time></trkpt><trkpt lat="44.692377079222446" lon="9.918685830721046"><ele>449.0</ele><time>2026-03-29T14:09:37.999Z</time></trkpt><trkpt lat="44.69239848888205" lon="9.918532722131387"><ele>448.4</ele><time>2026-03-29T14:09:38.999Z</time></trkpt><trkpt lat="44.692436446584004" lon="9.918385370687874"><ele>447.79999999999995</ele><time>2026-03-29T14:09:39.999Z</time></trkpt><trkpt lat="44.69246446774774" lon="9.918257719849652"><ele>447.20000000000005</ele><time>2026-03-29T14:09:40.999Z</time></trkpt><trkpt lat="44.69249406412355" lon="9.918134623728227"><ele>446.6</ele><time>2026-03-29T14:09:41.999Z</time></trkpt><trkpt lat="44.69256948868963" lon="9.918063907215089"><ele>446.0</ele><time>2026-03-29T14:09:42.999Z</time></trkpt><trkpt lat="44.69263868336419" lon="9.917990557614477"><ele>446.0</ele><time>2026-03-29T14:09:43.999Z</time></trkpt><trkpt lat="44.69273343322933" lon="9.91798447596818"><ele>446.0</ele><time>2026-03-29T14:09:44.999Z</time></trkpt><trkpt lat="44.69282285413778" lon="9.917936186086857"><ele>446.0</ele><time>2026-03-29T14:09:45.999Z</time></trkpt><trkpt lat="44.692924275236976" lon="9.917908719343462"><ele>446.0</ele><time>2026-03-29T14:09:46.999Z</time></trkpt><trkpt lat="44.69303008260085" lon="9.917872745987518"><ele>446.0</ele><time>2026-03-29T14:09:48Z</time></trkpt><trkpt lat="44.693133478900236" lon="9.91784149774303"><ele>450.0</ele><time>2026-03-29T14:09:49Z</time></trkpt><trkpt lat="44.693240005687514" lon="9.91778619755892"><ele>454.0</ele><time>2026-03-29T14:09:50Z</time></trkpt><trkpt lat="44.693342060568234" lon="9.917723180865178"><ele>458.0</ele><time>2026-03-29T14:09:51Z</time></trkpt><trkpt lat="44.69344795167874" lon="9.917644008012246"><ele>462.0</ele><time>2026-03-29T14:09:52Z</time></trkpt><trkpt lat="44.69355843112567" lon="9.917557738572063"><ele>466.5</ele><time>2026-03-29T14:09:53Z</time></trkpt><trkpt lat="44.69366392829468" lon="9.917445400525999"><ele>471.0</ele><time>2026-03-29T14:09:54Z</time></trkpt><trkpt lat="44.69375400263758" lon="9.917304821580018"><ele>475.5</ele><time>2026-03-29T14:09:55Z</time></trkpt><trkpt lat="44.69382801534019" lon="9.917145708657758"><ele>480.0</ele><time>2026-03-29T14:09:56Z</time></trkpt><trkpt lat="44.693888460562334" lon="9.91696723765272"><ele>480.0</ele><time>2026-03-29T14:09:57Z</time></trkpt><trkpt lat="44.69393444491428" lon="9.916777055872464"><ele>480.0</ele><time>2026-03-29T14:09:58Z</time></trkpt><trkpt lat="44.69396293955828" lon="9.916573433584125"><ele>480.0</ele><time>2026-03-29T14:09:59Z</time></trkpt><trkpt lat="44.69397620388319" lon="9.916367973467716"><ele>480.0</ele><time>2026-03-29T14:10:00Z</time></trkpt><trkpt lat="44.69398505342203" lon="9.916165107655598"><ele>480.25</ele><time>2026-03-29T14:10:01Z</time></trkpt><trkpt lat="44.693997963748195" lon="9.91598807219536"><ele>480.5</ele><time>2026-03-29T14:10:02Z</time></trkpt><trkpt lat="44.6940183869819" lon="9.91581173228114"><ele>480.75</ele><time>2026-03-29T14:10:03Z</time></trkpt><trkpt lat="44.69406683236327" lon="9.91563360446651"><ele>481.0</ele><time>2026-03-29T14:10:04Z</time></trkpt><trkpt lat="44.694120474534536" lon="9.915445234973005"><ele>482.75</ele><time>2026-03-29T14:10:05Z</time></trkpt><trkpt lat="44.6941678015941" lon="9.915245978957799"><ele>484.5</ele><time>2026-03-29T14:10:06Z</time></trkpt><trkpt lat="44.694214955777" lon="9.915075150597357"><ele>486.25</ele><time>2026-03-29T14:10:07Z</time></trkpt><trkpt lat="44.69425259301113" lon="9.914914325967677"><ele>488.0</ele><time>2026-03-29T14:10:08Z</time></trkpt><trkpt lat="44.694287414634175" lon="9.914768985689937"><ele>488.0</ele><time>2026-03-29T14:10:09Z</time></trkpt><trkpt lat="44.69434580380322" lon="9.914662629536801"><ele>487.99999999999994</ele><time>2026-03-29T14:10:10Z</time></trkpt><trkpt lat="44.69441479913386" lon="9.914568184953488"><ele>487.99999999999994</ele><time>2026-03-29T14:10:11Z</time></trkpt><trkpt lat="44.69449702285323" lon="9.914451948217714"><ele>488.0</ele><time>2026-03-29T14:10:12Z</time></trkpt><trkpt lat="44.69459345338396" lon="9.914337262617485"><ele>488.0</ele><time>2026-03-29T14:10:13Z</time></trkpt><trkpt lat="44.6946936426108" lon="9.9141970059406"><ele>490.75</ele><time>2026-03-29T14:10:14Z</time></trkpt><trkpt lat="44.6947689739667" lon="9.914053387993455"><ele>493.5</ele><time>2026-03-29T14:10:15Z</time></trkpt><trkpt lat="44.6948597368069" lon="9.913918681232326"><ele>496.25</ele><time>2026-03-29T14:10:16Z</time></trkpt><trkpt lat="44.69491941413348" lon="9.91379293524539"><ele>499.0</ele><time>2026-03-29T14:10:17Z</time></trkpt><trkpt lat="44.69497024934588" lon="9.913634356010826"><ele>499.0</ele><time>2026-03-29T14:10:18Z</time></trkpt><trkpt lat="44.694998617492836" lon="9.913458891552535"><ele>499.0</ele><time>2026-03-29T14:10:19Z</time></trkpt><trkpt lat="44.69499525420831" lon="9.913267568507145"><ele>499.0</ele><time>2026-03-29T14:10:20Z</time></trkpt><trkpt lat="44.69498669018802" lon="9.91306618198075"><ele>499.0</ele><time>2026-03-29T14:10:21Z</time></trkpt><trkpt lat="44.69500755038967" lon="9.912864636156149"><ele>498.4</ele><time>2026-03-29T14:10:22Z</time></trkpt><trkpt lat="44.694994877331" lon="9.912674476981845"><ele>497.79999999999995</ele><time>2026-03-29T14:10:23Z</time></trkpt><trkpt lat="44.694983414440294" lon="9.912519708959728"><ele>497.20000000000005</ele><time>2026-03-29T14:10:24Z</time></trkpt><trkpt lat="44.69497034119021" lon="9.912374938513786"><ele>496.6</ele><time>2026-03-29T14:10:25Z</time></trkpt><trkpt lat="44.69495452840786" lon="9.912237237041031"><ele>496.0</ele><time>2026-03-29T14:10:26Z</time></trkpt><trkpt lat="44.694928680402285" lon="9.912095841774992"><ele>497.1666666666667</ele><time>2026-03-29T14:10:27Z</time></trkpt><trkpt lat="44.69489690734114" lon="9.911977603942608"><ele>498.33333333333337</ele><time>2026-03-29T14:10:28Z</time></trkpt><trkpt lat="44.69486642000101" lon="9.911889248527059"><ele>499.5</ele><time>2026-03-29T14:10:29Z</time></trkpt><trkpt lat="44.69483208993887" lon="9.91181383402343"><ele>500.66666666666663</ele><time>2026-03-29T14:10:30Z</time></trkpt><trkpt lat="44.69479436708783" lon="9.911726722565232"><ele>501.8333333333333</ele><time>2026-03-29T14:10:31Z</time></trkpt><trkpt lat="44.6947488585901" lon="9.911622744526012"><ele>503.0</ele><time>2026-03-29T14:10:32Z</time></trkpt><trkpt lat="44.6946837619181" lon="9.911509769274687"><ele>505.2</ele><time>2026-03-29T14:10:33Z</time></trkpt><trkpt lat="44.69461130263846" lon="9.911406952676021"><ele>507.4</ele><time>2026-03-29T14:10:34Z</time></trkpt><trkpt lat="44.6945556169126" lon="9.911337626824407"><ele>509.59999999999997</ele><time>2026-03-29T14:10:35Z</time></trkpt><trkpt lat="44.69451520338792" lon="9.91118645566052"><ele>511.79999999999995</ele><time>2026-03-29T14:10:37Z</time></trkpt><trkpt lat="44.69454221083968" lon="9.911088313557784"><ele>514.0</ele><time>2026-03-29T14:10:38Z</time></trkpt><trkpt lat="44.69460161719629" lon="9.910983443326018"><ele>515.5</ele><time>2026-03-29T14:10:39Z</time></trkpt><trkpt lat="44.69467859730632" lon="9.910865535788927"><ele>517.0</ele><time>2026-03-29T14:10:40Z</time></trkpt><trkpt lat="44.69475035612436" lon="9.910732197576051"><ele>518.5</ele><time>2026-03-29T14:10:41Z</time></trkpt><trkpt lat="44.69482189000075" lon="9.91059120931576"><ele>520.0</ele><time>2026-03-29T14:10:42Z</time></trkpt><trkpt lat="44.694885368007505" lon="9.910461451684075"><ele>520.0</ele><time>2026-03-29T14:10:43Z</time></trkpt><trkpt lat="44.69497573812693" lon="9.910375466714438"><ele>520.0</ele><time>2026-03-29T14:10:44Z</time></trkpt><trkpt lat="44.695064702639925" lon="9.910295640642971"><ele>520.0</ele><time>2026-03-29T14:10:45Z</time></trkpt><trkpt lat="44.69516931826289" lon="9.910288101990593"><ele>520.0</ele><time>2026-03-29T14:10:46Z</time></trkpt><trkpt lat="44.69526881934709" lon="9.910347771601156"><ele>520.0</ele><time>2026-03-29T14:10:47Z</time></trkpt><trkpt lat="44.6953691193748" lon="9.910391490227171"><ele>522.5</ele><time>2026-03-29T14:10:48Z</time></trkpt><trkpt lat="44.69545810094708" lon="9.910471013673147"><ele>525.0</ele><time>2026-03-29T14:10:49Z</time></trkpt><trkpt lat="44.69556378606873" lon="9.910512751028097"><ele>527.5</ele><time>2026-03-29T14:10:50Z</time></trkpt><trkpt lat="44.69567973553142" lon="9.910504068994351"><ele>530.0</ele><time>2026-03-29T14:10:51Z</time></trkpt><trkpt lat="44.69580499054274" lon="9.910453632238903"><ele>530.0</ele><time>2026-03-29T14:10:52Z</time></trkpt><trkpt lat="44.69592080239157" lon="9.910425883095705"><ele>530.0</ele><time>2026-03-29T14:10:53Z</time></trkpt><trkpt lat="44.69602766733629" lon="9.91042210867203"><ele>530.0</ele><time>2026-03-29T14:10:54Z</time></trkpt><trkpt lat="44.69611270106998" lon="9.91042771030903"><ele>530.0</ele><time>2026-03-29T14:10:55Z</time></trkpt><trkpt lat="44.696196204070944" lon="9.91043769912089"><ele>530.0</ele><time>2026-03-29T14:10:56Z</time></trkpt><trkpt lat="44.69626322738481" lon="9.910405689341266"><ele>531.6666666666666</ele><time>2026-03-29T14:10:57Z</time></trkpt><trkpt lat="44.69635874641359" lon="9.910332053501621"><ele>533.3333333333333</ele><time>2026-03-29T14:10:58Z</time></trkpt><trkpt lat="44.69642753825281" lon="9.910245944943464"><ele>535.0</ele><time>2026-03-29T14:10:59Z</time></trkpt><trkpt lat="44.69647603321278" lon="9.910169605932023"><ele>536.6666666666666</ele><time>2026-03-29T14:11:00Z</time></trkpt><trkpt lat="44.69652776197459" lon="9.910088323293913"><ele>538.3333333333334</ele><time>2026-03-29T14:11:01Z</time></trkpt><trkpt lat="44.69658342701244" lon="9.910001800823938"><ele>540.0</ele><time>2026-03-29T14:11:02Z</time></trkpt><trkpt lat="44.69663295599512" lon="9.909907300460146"><ele>540.0</ele><time>2026-03-29T14:11:03Z</time></trkpt><trkpt lat="44.69670019701206" lon="9.909845762812115"><ele>540.0</ele><time>2026-03-29T14:11:04Z</time></trkpt><trkpt lat="44.696689204706416" lon="9.909651533079808"><ele>540.0</ele><time>2026-03-29T14:11:05Z</time></trkpt><trkpt lat="44.696690111506825" lon="9.909482149073897"><ele>540.0</ele><time>2026-03-29T14:11:06Z</time></trkpt><trkpt lat="44.696673453242845" lon="9.909297484083012"><ele>540.75</ele><time>2026-03-29T14:11:07Z</time></trkpt><trkpt lat="44.69665490462096" lon="9.909129451827893"><ele>541.5</ele><time>2026-03-29T14:11:08Z</time></trkpt><trkpt lat="44.69663883921192" lon="9.90897383059873"><ele>542.25</ele><time>2026-03-29T14:11:09Z</time></trkpt><trkpt lat="44.696623870370594" lon="9.908809586262652"><ele>543.0</ele><time>2026-03-29T14:11:10Z</time></trkpt><trkpt lat="44.696611954648766" lon="9.908634839466314"><ele>543.0</ele><time>2026-03-29T14:11:11Z</time></trkpt><trkpt lat="44.69660192857091" lon="9.908455545933966"><ele>543.0</ele><time>2026-03-29T14:11:12Z</time></trkpt><trkpt lat="44.69659419864698" lon="9.908293143457518"><ele>543.0</ele><time>2026-03-29T14:11:13Z</time></trkpt><trkpt lat="44.696587800882554" lon="9.908141103785685"><ele>543.0</ele><time>2026-03-29T14:11:14Z</time></trkpt><trkpt lat="44.69656458393928" lon="9.907972326671027"><ele>542.75</ele><time>2026-03-29T14:11:14.999Z</time></trkpt><trkpt lat="44.69657305998777" lon="9.907790793803677"><ele>542.5</ele><time>2026-03-29T14:11:15.999Z</time></trkpt><trkpt lat="44.69656295799886" lon="9.9076201128977"><ele>542.25</ele><time>2026-03-29T14:11:16.999Z</time></trkpt><trkpt lat="44.69654812564333" lon="9.907448164323226"><ele>542.0</ele><time>2026-03-29T14:11:17.999Z</time></trkpt><trkpt lat="44.69653207856137" lon="9.90726862536811"><ele>542.0</ele><time>2026-03-29T14:11:18.999Z</time></trkpt><trkpt lat="44.69651849827076" lon="9.90707955667733"><ele>542.0</ele><time>2026-03-29T14:11:19.999Z</time></trkpt><trkpt lat="44.69649064751023" lon="9.906889085181888"><ele>542.0</ele><time>2026-03-29T14:11:20.999Z</time></trkpt><trkpt lat="44.69649146208812" lon="9.906711788963232"><ele>542.0</ele><time>2026-03-29T14:11:21.999Z</time></trkpt><trkpt lat="44.696460800927355" lon="9.906552588335485"><ele>542.4</ele><time>2026-03-29T14:11:22.999Z</time></trkpt><trkpt lat="44.69644659941227" lon="9.906391817507815"><ele>542.8000000000001</ele><time>2026-03-29T14:11:23.999Z</time></trkpt><trkpt lat="44.69645052622405" lon="9.906221936619836"><ele>543.2</ele><time>2026-03-29T14:11:24.999Z</time></trkpt><trkpt lat="44.69644525188636" lon="9.906070721286639"><ele>543.6</ele><time>2026-03-29T14:11:25.999Z</time></trkpt><trkpt lat="44.69644855162067" lon="9.905933340672107"><ele>544.0</ele><time>2026-03-29T14:11:26.999Z</time></trkpt><trkpt lat="44.696461720563256" lon="9.905791373187837"><ele>545.5</ele><time>2026-03-29T14:11:27.999Z</time></trkpt><trkpt lat="44.696490788647175" lon="9.905651348986346"><ele>547.0</ele><time>2026-03-29T14:11:28.999Z</time></trkpt><trkpt lat="44.69650255165464" lon="9.905489253715839"><ele>548.5</ele><time>2026-03-29T14:11:29.999Z</time></trkpt><trkpt lat="44.6965214871552" lon="9.905326433391025"><ele>550.0</ele><time>2026-03-29T14:11:30.999Z</time></trkpt><trkpt lat="44.69652669689635" lon="9.905156806444609"><ele>551.2</ele><time>2026-03-29T14:11:31.999Z</time></trkpt><trkpt lat="44.696520981996144" lon="9.90500807982537"><ele>552.4</ele><time>2026-03-29T14:11:32.999Z</time></trkpt><trkpt lat="44.69649513253957" lon="9.904887531665922"><ele>553.6</ele><time>2026-03-29T14:11:33.999Z</time></trkpt><trkpt lat="44.69645672268365" lon="9.904762346335268"><ele>554.8</ele><time>2026-03-29T14:11:34.999Z</time></trkpt><trkpt lat="44.69638256606868" lon="9.90468530770235"><ele>556.0</ele><time>2026-03-29T14:11:35.999Z</time></trkpt><trkpt lat="44.69636463713428" lon="9.9045747722026"><ele>556.0</ele><time>2026-03-29T14:11:36.999Z</time></trkpt><trkpt lat="44.696353548393105" lon="9.904439065922414"><ele>556.0</ele><time>2026-03-29T14:11:37.999Z</time></trkpt><trkpt lat="44.696376950421616" lon="9.904267928751771"><ele>556.0</ele><time>2026-03-29T14:11:38.999Z</time></trkpt><trkpt lat="44.69640801762488" lon="9.90409153319346"><ele>556.0</ele><time>2026-03-29T14:11:39.999Z</time></trkpt><trkpt lat="44.69643286090762" lon="9.903925533618597"><ele>555.4</ele><time>2026-03-29T14:11:40.999Z</time></trkpt><trkpt lat="44.69645518561792" lon="9.90376945982762"><ele>554.8</ele><time>2026-03-29T14:11:41.999Z</time></trkpt><trkpt lat="44.696473106998205" lon="9.903629600758158"><ele>554.1999999999999</ele><time>2026-03-29T14:11:42.999Z</time></trkpt><trkpt lat="44.69648274307939" lon="9.903500063012041"><ele>553.6</ele><time>2026-03-29T14:11:43.999Z</time></trkpt><trkpt lat="44.69648586460778" lon="9.903385038980447"><ele>553.0</ele><time>2026-03-29T14:11:44.999Z</time></trkpt><trkpt lat="44.69649087486576" lon="9.903275517022978"><ele>550.8333333333334</ele><time>2026-03-29T14:11:45.999Z</time></trkpt><trkpt lat="44.696494662783444" lon="9.903176466468246"><ele>548.6666666666667</ele><time>2026-03-29T14:11:46.999Z</time></trkpt><trkpt lat="44.69650183656526" lon="9.90308575833871"><ele>546.5</ele><time>2026-03-29T14:11:47.999Z</time></trkpt><trkpt lat="44.696544655170705" lon="9.9029257843894"><ele>544.3333333333334</ele><time>2026-03-29T14:11:49.999Z</time></trkpt><trkpt lat="44.69663320900348" lon="9.902812049197488"><ele>542.1666666666666</ele><time>2026-03-29T14:11:51.999Z</time></trkpt><trkpt lat="44.69670190005511" lon="9.902781282953445"><ele>540.0</ele><time>2026-03-29T14:11:52.999Z</time></trkpt><trkpt lat="44.69677623015974" lon="9.9027582634063"><ele>540.0</ele><time>2026-03-29T14:11:54Z</time></trkpt><trkpt lat="44.69685126639897" lon="9.902735552322858"><ele>540.0</ele><time>2026-03-29T14:11:55Z</time></trkpt><trkpt lat="44.69693836663817" lon="9.9027027296345"><ele>540.0</ele><time>2026-03-29T14:11:56Z</time></trkpt><trkpt lat="44.69703646874936" lon="9.90265342662048"><ele>540.0</ele><time>2026-03-29T14:11:57Z</time></trkpt><trkpt lat="44.697137553562555" lon="9.902584209931023"><ele>540.0</ele><time>2026-03-29T14:11:58Z</time></trkpt><trkpt lat="44.69722217798386" lon="9.90249701712603"><ele>537.8</ele><time>2026-03-29T14:11:59Z</time></trkpt><trkpt lat="44.69729731363249" lon="9.902403263492328"><ele>535.6</ele><time>2026-03-29T14:12:00Z</time></trkpt><trkpt lat="44.697368230948996" lon="9.902318568885075"><ele>533.4</ele><time>2026-03-29T14:12:01Z</time></trkpt><trkpt lat="44.69743247636004" lon="9.902235116112978"><ele>531.2</ele><time>2026-03-29T14:12:02Z</time></trkpt><trkpt lat="44.697500648231575" lon="9.902152404928845"><ele>529.0</ele><time>2026-03-29T14:12:03Z</time></trkpt><trkpt lat="44.697580874068535" lon="9.90208180353035"><ele>529.0</ele><time>2026-03-29T14:12:04Z</time></trkpt><trkpt lat="44.69768201885734" lon="9.902010624768863"><ele>529.0</ele><time>2026-03-29T14:12:05Z</time></trkpt><trkpt lat="44.697796566282854" lon="9.901934605207716"><ele>529.0</ele><time>2026-03-29T14:12:06Z</time></trkpt><trkpt lat="44.697917589387" lon="9.901855900812643"><ele>529.0</ele><time>2026-03-29T14:12:07Z</time></trkpt><trkpt lat="44.6980284156892" lon="9.901784766280825"><ele>526.5</ele><time>2026-03-29T14:12:08Z</time></trkpt><trkpt lat="44.69813210145158" lon="9.901713359744761"><ele>524.0</ele><time>2026-03-29T14:12:09Z</time></trkpt><trkpt lat="44.69823750916766" lon="9.90164254823344"><ele>521.5</ele><time>2026-03-29T14:12:10Z</time></trkpt><trkpt lat="44.69834536184678" lon="9.901574574591228"><ele>519.0</ele><time>2026-03-29T14:12:11Z</time></trkpt><trkpt lat="44.698452200722485" lon="9.901504016640812"><ele>519.0</ele><time>2026-03-29T14:12:12Z</time></trkpt><trkpt lat="44.698547593108685" lon="9.901439701020418"><ele>519.0</ele><time>2026-03-29T14:12:13Z</time></trkpt><trkpt lat="44.69862784201199" lon="9.9013879620581"><ele>519.0</ele><time>2026-03-29T14:12:14Z</time></trkpt><trkpt lat="44.69870013533647" lon="9.901342410699595"><ele>519.0</ele><time>2026-03-29T14:12:15Z</time></trkpt><trkpt lat="44.698780541562286" lon="9.901285894533654"><ele>519.0</ele><time>2026-03-29T14:12:16Z</time></trkpt><trkpt lat="44.698863917905236" lon="9.90122880030995"><ele>520.0</ele><time>2026-03-29T14:12:17Z</time></trkpt><trkpt lat="44.698948639872214" lon="9.9011628886353"><ele>521.0</ele><time>2026-03-29T14:12:18Z</time></trkpt><trkpt lat="44.69902962657985" lon="9.901096079592937"><ele>522.0</ele><time>2026-03-29T14:12:19Z</time></trkpt><trkpt lat="44.69909406633979" lon="9.901032294655428"><ele>523.0</ele><time>2026-03-29T14:12:20Z</time></trkpt><trkpt lat="44.69915200728835" lon="9.900958444431192"><ele>524.0</ele><time>2026-03-29T14:12:21Z</time></trkpt><trkpt lat="44.699239439552485" lon="9.900878311188057"><ele>524.0</ele><time>2026-03-29T14:12:22Z</time></trkpt><trkpt lat="44.699311277631004" lon="9.90076771727795"><ele>524.0</ele><time>2026-03-29T14:12:23Z</time></trkpt><trkpt lat="44.69937158622599" lon="9.90064280846309"><ele>524.0</ele><time>2026-03-29T14:12:24Z</time></trkpt><trkpt lat="44.69944465985968" lon="9.900537354008307"><ele>524.0</ele><time>2026-03-29T14:12:25Z</time></trkpt><trkpt lat="44.69951800655991" lon="9.900428838218923"><ele>524.0</ele><time>2026-03-29T14:12:26Z</time></trkpt><trkpt lat="44.69959610074286" lon="9.900317021435319"><ele>523.2</ele><time>2026-03-29T14:12:27Z</time></trkpt><trkpt lat="44.699677665281754" lon="9.900214254935522"><ele>522.4</ele><time>2026-03-29T14:12:28Z</time></trkpt><trkpt lat="44.699765741198355" lon="9.90012709293519"><ele>521.6</ele><time>2026-03-29T14:12:29Z</time></trkpt><trkpt lat="44.69986531753739" lon="9.90006711613501"><ele>520.8</ele><time>2026-03-29T14:12:30Z</time></trkpt><trkpt lat="44.69997106140808" lon="9.900032295221125"><ele>520.0</ele><time>2026-03-29T14:12:31Z</time></trkpt><trkpt lat="44.70008818016988" lon="9.900008194996477"><ele>520.0</ele><time>2026-03-29T14:12:32Z</time></trkpt><trkpt lat="44.700206041974646" lon="9.899980412767837"><ele>520.0</ele><time>2026-03-29T14:12:33Z</time></trkpt><trkpt lat="44.70032336299111" lon="9.899951277613997"><ele>520.0</ele><time>2026-03-29T14:12:34Z</time></trkpt><trkpt lat="44.70043642727122" lon="9.899909311587246"><ele>520.0</ele><time>2026-03-29T14:12:35Z</time></trkpt><trkpt lat="44.70054300083278" lon="9.899854116644127"><ele>522.0</ele><time>2026-03-29T14:12:36Z</time></trkpt><trkpt lat="44.70064457577068" lon="9.8997965911392"><ele>524.0</ele><time>2026-03-29T14:12:37Z</time></trkpt><trkpt lat="44.700731354385084" lon="9.899722156055068"><ele>526.0</ele><time>2026-03-29T14:12:38Z</time></trkpt><trkpt lat="44.700812047483424" lon="9.899640614931078"><ele>528.0</ele><time>2026-03-29T14:12:39Z</time></trkpt><trkpt lat="44.70088105764984" lon="9.89955904898957"><ele>530.0</ele><time>2026-03-29T14:12:40Z</time></trkpt><trkpt lat="44.70095830549873" lon="9.899472563209105"><ele>530.0</ele><time>2026-03-29T14:12:41Z</time></trkpt><trkpt lat="44.701041047514146" lon="9.89937085308329"><ele>530.0</ele><time>2026-03-29T14:12:42Z</time></trkpt><trkpt lat="44.70112456764118" lon="9.899267114517372"><ele>530.0</ele><time>2026-03-29T14:12:43Z</time></trkpt><trkpt lat="44.701209628326176" lon="9.899186686760745"><ele>530.0</ele><time>2026-03-29T14:12:44Z</time></trkpt><trkpt lat="44.70127670211256" lon="9.899094604246152"><ele>530.0</ele><time>2026-03-29T14:12:45Z</time></trkpt><trkpt lat="44.70132465800098" lon="9.898976066193677"><ele>531.6</ele><time>2026-03-29T14:12:46Z</time></trkpt><trkpt lat="44.701348300290036" lon="9.898836125174675"><ele>533.2</ele><time>2026-03-29T14:12:47Z</time></trkpt><trkpt lat="44.70135950527758" lon="9.898689282609467"><ele>534.8</ele><time>2026-03-29T14:12:48Z</time></trkpt><trkpt lat="44.701367100918574" lon="9.898541805649204"><ele>536.4</ele><time>2026-03-29T14:12:49Z</time></trkpt><trkpt lat="44.70135380817661" lon="9.898388689647028"><ele>538.0</ele><time>2026-03-29T14:12:50Z</time></trkpt><trkpt lat="44.70130928013721" lon="9.898243540959722"><ele>538.6</ele><time>2026-03-29T14:12:51Z</time></trkpt><trkpt lat="44.70123888629254" lon="9.898116484457752"><ele>539.1999999999999</ele><time>2026-03-29T14:12:52Z</time></trkpt><trkpt lat="44.70117103469322" lon="9.897988022816437"><ele>539.8</ele><time>2026-03-29T14:12:53Z</time></trkpt><trkpt lat="44.70113787022571" lon="9.897850152313922"><ele>540.4</ele><time>2026-03-29T14:12:54Z</time></trkpt><trkpt lat="44.70108842718323" lon="9.897737726345408"><ele>541.0</ele><time>2026-03-29T14:12:55Z</time></trkpt><trkpt lat="44.701077452444025" lon="9.897628533813482"><ele>542.2</ele><time>2026-03-29T14:12:56Z</time></trkpt><trkpt lat="44.70110259426674" lon="9.89753805114046"><ele>543.4000000000001</ele><time>2026-03-29T14:12:57Z</time></trkpt><trkpt lat="44.70114827685056" lon="9.897462204319922"><ele>544.6</ele><time>2026-03-29T14:12:58Z</time></trkpt><trkpt lat="44.70121953137145" lon="9.897372218865241"><ele>545.8000000000001</ele><time>2026-03-29T14:12:59Z</time></trkpt><trkpt lat="44.70131098433125" lon="9.897288248284067"><ele>547.0</ele><time>2026-03-29T14:13:00Z</time></trkpt><trkpt lat="44.701408689704" lon="9.89720256582987"><ele>547.0</ele><time>2026-03-29T14:13:01Z</time></trkpt><trkpt lat="44.70150146888859" lon="9.897099037052273"><ele>547.0</ele><time>2026-03-29T14:13:02Z</time></trkpt><trkpt lat="44.70157827143284" lon="9.896955756573172"><ele>547.0</ele><time>2026-03-29T14:13:03Z</time></trkpt><trkpt lat="44.70162435242235" lon="9.896789539974169"><ele>547.0</ele><time>2026-03-29T14:13:04Z</time></trkpt><trkpt lat="44.70164278609584" lon="9.8966359200236"><ele>544.2</ele><time>2026-03-29T14:13:05Z</time></trkpt><trkpt lat="44.701682882551566" lon="9.896515807662405"><ele>541.4000000000001</ele><time>2026-03-29T14:13:06Z</time></trkpt><trkpt lat="44.70177491079919" lon="9.896466606238695"><ele>538.5999999999999</ele><time>2026-03-29T14:13:07Z</time></trkpt><trkpt lat="44.701872944823705" lon="9.896400736623155"><ele>535.8</ele><time>2026-03-29T14:13:08Z</time></trkpt><trkpt lat="44.70197960030609" lon="9.896318453163838"><ele>533.0</ele><time>2026-03-29T14:13:09Z</time></trkpt><trkpt lat="44.702095792167086" lon="9.89625160301693"><ele>538.1999999999999</ele><time>2026-03-29T14:13:10Z</time></trkpt><trkpt lat="44.702193377969564" lon="9.896195133907836"><ele>543.4</ele><time>2026-03-29T14:13:11Z</time></trkpt><trkpt lat="44.702274562214534" lon="9.896126435608643"><ele>548.5999999999999</ele><time>2026-03-29T14:13:12Z</time></trkpt><trkpt lat="44.702330071577514" lon="9.89602882311855"><ele>553.8</ele><time>2026-03-29T14:13:13Z</time></trkpt><trkpt lat="44.702350888793795" lon="9.895890687697891"><ele>559.0</ele><time>2026-03-29T14:13:14Z</time></trkpt><trkpt lat="44.70234811901571" lon="9.895738251094304"><ele>559.0</ele><time>2026-03-29T14:13:15Z</time></trkpt><trkpt lat="44.70231383952895" lon="9.89556853834185"><ele>559.0</ele><time>2026-03-29T14:13:16Z</time></trkpt><trkpt lat="44.702290359745724" lon="9.895429262942937"><ele>559.0</ele><time>2026-03-29T14:13:17Z</time></trkpt><trkpt lat="44.702299356320964" lon="9.89532580904132"><ele>559.0</ele><time>2026-03-29T14:13:18Z</time></trkpt><trkpt lat="44.70229573053313" lon="9.895224728692911"><ele>559.0</ele><time>2026-03-29T14:13:19Z</time></trkpt><trkpt lat="44.702294846342625" lon="9.895116707448977"><ele>558.6666666666667</ele><time>2026-03-29T14:13:20Z</time></trkpt><trkpt lat="44.70228424751687" lon="9.894963771862628"><ele>558.3333333333334</ele><time>2026-03-29T14:13:21Z</time></trkpt><trkpt lat="44.702295883932734" lon="9.894823571638774"><ele>558.0</ele><time>2026-03-29T14:13:22Z</time></trkpt><trkpt lat="44.70230235856192" lon="9.894706081206452"><ele>557.6666666666666</ele><time>2026-03-29T14:13:23Z</time></trkpt><trkpt lat="44.70231145979267" lon="9.894610115295635"><ele>557.3333333333333</ele><time>2026-03-29T14:13:24Z</time></trkpt><trkpt lat="44.7023342587572" lon="9.894525204468852"><ele>557.0</ele><time>2026-03-29T14:13:25Z</time></trkpt><trkpt lat="44.7023658746542" lon="9.894433435569054"><ele>557.0</ele><time>2026-03-29T14:13:26Z</time></trkpt><trkpt lat="44.702406627998194" lon="9.894345871792531"><ele>557.0</ele><time>2026-03-29T14:13:27Z</time></trkpt><trkpt lat="44.70249160490305" lon="9.894298896197409"><ele>557.0</ele><time>2026-03-29T14:13:28Z</time></trkpt><trkpt lat="44.70257870274993" lon="9.894267465283265"><ele>557.0</ele><time>2026-03-29T14:13:29Z</time></trkpt><trkpt lat="44.702669657451175" lon="9.894239900401548"><ele>557.0</ele><time>2026-03-29T14:13:30Z</time></trkpt><trkpt lat="44.70276066452802" lon="9.894201575563049"><ele>557.0</ele><time>2026-03-29T14:13:31Z</time></trkpt><trkpt lat="44.70285218986164" lon="9.894160325359755"><ele>558.8333333333333</ele><time>2026-03-29T14:13:32Z</time></trkpt><trkpt lat="44.702938707945215" lon="9.894127794040639"><ele>560.6666666666666</ele><time>2026-03-29T14:13:33Z</time></trkpt><trkpt lat="44.70302575722461" lon="9.894094476370034"><ele>562.5</ele><time>2026-03-29T14:13:34Z</time></trkpt><trkpt lat="44.70311222034835" lon="9.894060512861435"><ele>564.3333333333334</ele><time>2026-03-29T14:13:35Z</time></trkpt><trkpt lat="44.703199432203654" lon="9.894031578500652"><ele>566.1666666666667</ele><time>2026-03-29T14:13:36Z</time></trkpt><trkpt lat="44.70328775885011" lon="9.894011551274966"><ele>568.0</ele><time>2026-03-29T14:13:36.999Z</time></trkpt><trkpt lat="44.70336643035027" lon="9.893999288525533"><ele>568.0</ele><time>2026-03-29T14:13:37.999Z</time></trkpt><trkpt lat="44.703440065263095" lon="9.893991023009118"><ele>568.0</ele><time>2026-03-29T14:13:38.999Z</time></trkpt><trkpt lat="44.70350581205888" lon="9.893985321767255"><ele>568.0</ele><time>2026-03-29T14:13:39.999Z</time></trkpt><trkpt lat="44.703579386882474" lon="9.89398582701367"><ele>568.0</ele><time>2026-03-29T14:13:40.999Z</time></trkpt><trkpt lat="44.703645728914545" lon="9.89399521443984"><ele>568.0</ele><time>2026-03-29T14:13:41.999Z</time></trkpt><trkpt lat="44.70372042276465" lon="9.89401499360925"><ele>568.0</ele><time>2026-03-29T14:13:42.999Z</time></trkpt><trkpt lat="44.70380095484206" lon="9.894022968737678"><ele>568.0</ele><time>2026-03-29T14:13:43.999Z</time></trkpt><trkpt lat="44.70387304212263" lon="9.89402806802336"><ele>570.1666666666667</ele><time>2026-03-29T14:13:44.999Z</time></trkpt><trkpt lat="44.70394568017952" lon="9.894038539058917"><ele>572.3333333333334</ele><time>2026-03-29T14:13:45.999Z</time></trkpt><trkpt lat="44.70402809613067" lon="9.894039589239586"><ele>574.5</ele><time>2026-03-29T14:13:46.999Z</time></trkpt><trkpt lat="44.704110914440726" lon="9.894032135450196"><ele>576.6666666666666</ele><time>2026-03-29T14:13:47.999Z</time></trkpt><trkpt lat="44.70419352422187" lon="9.894013611795538"><ele>578.8333333333333</ele><time>2026-03-29T14:13:48.999Z</time></trkpt><trkpt lat="44.7042686915382" lon="9.893976263160114"><ele>581.0</ele><time>2026-03-29T14:13:49.999Z</time></trkpt><trkpt lat="44.704335517298595" lon="9.893907590808091"><ele>581.0</ele><time>2026-03-29T14:13:50.999Z</time></trkpt><trkpt lat="44.70440295672635" lon="9.893857068337773"><ele>581.0</ele><time>2026-03-29T14:13:51.999Z</time></trkpt><trkpt lat="44.704483888741464" lon="9.89380384755902"><ele>581.0</ele><time>2026-03-29T14:13:52.999Z</time></trkpt><trkpt lat="44.7045474282172" lon="9.893770658039042"><ele>581.0</ele><time>2026-03-29T14:13:53.999Z</time></trkpt><trkpt lat="44.70461294263549" lon="9.893752896925001"><ele>581.0</ele><time>2026-03-29T14:13:54.999Z</time></trkpt><trkpt lat="44.704676379916684" lon="9.893734712706854"><ele>581.0</ele><time>2026-03-29T14:13:55.999Z</time></trkpt><trkpt lat="44.7047469856042" lon="9.893757206903636"><ele>581.0</ele><time>2026-03-29T14:13:56.999Z</time></trkpt><trkpt lat="44.704817940887054" lon="9.893791925514256"><ele>581.8333333333333</ele><time>2026-03-29T14:13:57.999Z</time></trkpt><trkpt lat="44.704888971418974" lon="9.893834936024573"><ele>582.6666666666666</ele><time>2026-03-29T14:13:58.999Z</time></trkpt><trkpt lat="44.70496694756707" lon="9.893880579401698"><ele>583.5</ele><time>2026-03-29T14:14:00Z</time></trkpt><trkpt lat="44.70504139893531" lon="9.893921312770718"><ele>584.3333333333334</ele><time>2026-03-29T14:14:01Z</time></trkpt><trkpt lat="44.705116995592476" lon="9.893959545681554"><ele>585.1666666666667</ele><time>2026-03-29T14:14:02Z</time></trkpt><trkpt lat="44.70519140357675" lon="9.893975481796929"><ele>586.0</ele><time>2026-03-29T14:14:03Z</time></trkpt><trkpt lat="44.705274800348384" lon="9.893959748384038"><ele>586.0</ele><time>2026-03-29T14:14:04Z</time></trkpt><trkpt lat="44.705358714124436" lon="9.893934103328164"><ele>586.0</ele><time>2026-03-29T14:14:05Z</time></trkpt><trkpt lat="44.70543929077845" lon="9.893898608422468"><ele>586.0</ele><time>2026-03-29T14:14:06Z</time></trkpt><trkpt lat="44.705511119531835" lon="9.893869784128857"><ele>586.0</ele><time>2026-03-29T14:14:07Z</time></trkpt><trkpt lat="44.7056175702666" lon="9.893837126243602"><ele>586.0</ele><time>2026-03-29T14:14:09Z</time></trkpt><trkpt lat="44.70570993426427" lon="9.893874651580035"><ele>586.0</ele><time>2026-03-29T14:14:11Z</time></trkpt><trkpt lat="44.705739058779784" lon="9.89399794221495"><ele>586.0</ele><time>2026-03-29T14:14:13Z</time></trkpt><trkpt lat="44.705705376326506" lon="9.894075280585362"><ele>586.0</ele><time>2026-03-29T14:14:14Z</time></trkpt><trkpt lat="44.70564458608884" lon="9.894125308700866"><ele>586.0</ele><time>2026-03-29T14:14:15Z</time></trkpt><trkpt lat="44.70556823998119" lon="9.894141933118165"><ele>586.0</ele><time>2026-03-29T14:14:16Z</time></trkpt><trkpt lat="44.70548293176702" lon="9.894152214787207"><ele>586.0</ele><time>2026-03-29T14:14:17Z</time></trkpt><trkpt lat="44.705401338059325" lon="9.89417626925881"><ele>586.0</ele><time>2026-03-29T14:14:18Z</time></trkpt><trkpt lat="44.7053275322255" lon="9.89422791093844"><ele>586.0</ele><time>2026-03-29T14:14:19Z</time></trkpt><trkpt lat="44.705274754709926" lon="9.894286343749778"><ele>586.0</ele><time>2026-03-29T14:14:20Z</time></trkpt><trkpt lat="44.70522210781142" lon="9.894420500756434"><ele>586.0</ele><time>2026-03-29T14:14:22Z</time></trkpt><trkpt lat="44.70525788025363" lon="9.894583612048432"><ele>586.0</ele><time>2026-03-29T14:14:24Z</time></trkpt><trkpt lat="44.70531310008961" lon="9.8946345595018"><ele>586.0</ele><time>2026-03-29T14:14:25Z</time></trkpt><trkpt lat="44.705378879516715" lon="9.894664179041458"><ele>590.8</ele><time>2026-03-29T14:14:26Z</time></trkpt><trkpt lat="44.705453583926584" lon="9.894692480638307"><ele>595.6</ele><time>2026-03-29T14:14:27Z</time></trkpt><trkpt lat="44.7055220423246" lon="9.894756035214838"><ele>600.4</ele><time>2026-03-29T14:14:28Z</time></trkpt><trkpt lat="44.705606288555366" lon="9.894793497866651"><ele>605.2</ele><time>2026-03-29T14:14:29Z</time></trkpt><trkpt lat="44.70569315251551" lon="9.894874489087433"><ele>610.0</ele><time>2026-03-29T14:14:30Z</time></trkpt><trkpt lat="44.70579536211966" lon="9.894941907384892"><ele>610.0</ele><time>2026-03-29T14:14:31Z</time></trkpt><trkpt lat="44.705879418711206" lon="9.894986952802793"><ele>610.0</ele><time>2026-03-29T14:14:32Z</time></trkpt><trkpt lat="44.705959037229285" lon="9.895020065735478"><ele>610.0</ele><time>2026-03-29T14:14:33Z</time></trkpt><trkpt lat="44.706046074445396" lon="9.89505376860989"><ele>610.0</ele><time>2026-03-29T14:14:34Z</time></trkpt><trkpt lat="44.706132039782645" lon="9.895094863514755"><ele>610.0</ele><time>2026-03-29T14:14:35Z</time></trkpt><trkpt lat="44.70621718749554" lon="9.895136972340344"><ele>610.0</ele><time>2026-03-29T14:14:36Z</time></trkpt><trkpt lat="44.706305347907794" lon="9.895180910657905"><ele>616.2</ele><time>2026-03-29T14:14:37Z</time></trkpt><trkpt lat="44.706403483288284" lon="9.895213079729151"><ele>622.4</ele><time>2026-03-29T14:14:38Z</time></trkpt><trkpt lat="44.70650160540763" lon="9.895223591319281"><ele>628.5999999999999</ele><time>2026-03-29T14:14:39Z</time></trkpt><trkpt lat="44.70660831694428" lon="9.895225893354171"><ele>634.8</ele><time>2026-03-29T14:14:40Z</time></trkpt><trkpt lat="44.70672117830197" lon="9.895241447604171"><ele>641.0</ele><time>2026-03-29T14:14:41Z</time></trkpt><trkpt lat="44.70682532759342" lon="9.895245317116578"><ele>641.5</ele><time>2026-03-29T14:14:42Z</time></trkpt><trkpt lat="44.706914019377116" lon="9.8952550970119"><ele>642.0</ele><time>2026-03-29T14:14:43Z</time></trkpt><trkpt lat="44.706991217780434" lon="9.895265704799897"><ele>642.5</ele><time>2026-03-29T14:14:44Z</time></trkpt><trkpt lat="44.70707618391067" lon="9.89527456722136"><ele>643.0</ele><time>2026-03-29T14:14:45Z</time></trkpt><trkpt lat="44.70717183662103" lon="9.895278327190935"><ele>643.5</ele><time>2026-03-29T14:14:46Z</time></trkpt><trkpt lat="44.70726858766474" lon="9.895286638356367"><ele>644.0</ele><time>2026-03-29T14:14:47Z</time></trkpt><trkpt lat="44.70736394615645" lon="9.89530087476803"><ele>644.0</ele><time>2026-03-29T14:14:48Z</time></trkpt><trkpt lat="44.707464142867074" lon="9.895296489369226"><ele>644.0</ele><time>2026-03-29T14:14:49Z</time></trkpt><trkpt lat="44.70755653990825" lon="9.895286031649233"><ele>644.0</ele><time>2026-03-29T14:14:50Z</time></trkpt><trkpt lat="44.70763713207565" lon="9.8953181532134"><ele>644.0</ele><time>2026-03-29T14:14:51Z</time></trkpt><trkpt lat="44.70771078311784" lon="9.895322228459897"><ele>644.0</ele><time>2026-03-29T14:14:52Z</time></trkpt><trkpt lat="44.70777124031924" lon="9.895358154498513"><ele>644.0</ele><time>2026-03-29T14:14:53Z</time></trkpt><trkpt lat="44.707843265197354" lon="9.895396053209017"><ele>645.6666666666666</ele><time>2026-03-29T14:14:54Z</time></trkpt><trkpt lat="44.7079158134314" lon="9.895398293265275"><ele>647.3333333333333</ele><time>2026-03-29T14:14:55Z</time></trkpt><trkpt lat="44.70799507391011" lon="9.895374840465696"><ele>649.0</ele><time>2026-03-29T14:14:56Z</time></trkpt><trkpt lat="44.708072055481225" lon="9.895321313920643"><ele>650.6666666666666</ele><time>2026-03-29T14:14:57Z</time></trkpt><trkpt lat="44.708149131240866" lon="9.895272121536992"><ele>652.3333333333334</ele><time>2026-03-29T14:14:58Z</time></trkpt><trkpt lat="44.70824268127777" lon="9.895250152848904"><ele>654.0</ele><time>2026-03-29T14:14:59Z</time></trkpt><trkpt lat="44.708324501560035" lon="9.895212567858813"><ele>654.0</ele><time>2026-03-29T14:15:00Z</time></trkpt><trkpt lat="44.70839963937281" lon="9.895187969365509"><ele>654.0</ele><time>2026-03-29T14:15:01Z</time></trkpt><trkpt lat="44.708468824113254" lon="9.895177623431236"><ele>654.0</ele><time>2026-03-29T14:15:02Z</time></trkpt><trkpt lat="44.70855170267274" lon="9.895159674343983"><ele>654.0</ele><time>2026-03-29T14:15:03Z</time></trkpt><trkpt lat="44.70864622922056" lon="9.895173713223809"><ele>654.0</ele><time>2026-03-29T14:15:04Z</time></trkpt><trkpt lat="44.70874156067241" lon="9.895173679160004"><ele>654.0</ele><time>2026-03-29T14:15:05Z</time></trkpt><trkpt lat="44.7088312258491" lon="9.895176020410194"><ele>654.8333333333334</ele><time>2026-03-29T14:15:06Z</time></trkpt><trkpt lat="44.70891449385369" lon="9.895196854253564"><ele>655.6666666666666</ele><time>2026-03-29T14:15:07Z</time></trkpt><trkpt lat="44.70898909440435" lon="9.895242473758616"><ele>656.5</ele><time>2026-03-29T14:15:08Z</time></trkpt><trkpt lat="44.709063450860846" lon="9.895298362302865"><ele>657.3333333333333</ele><time>2026-03-29T14:15:09Z</time></trkpt><trkpt lat="44.70913195131262" lon="9.895368842387382"><ele>658.1666666666666</ele><time>2026-03-29T14:15:10Z</time></trkpt><trkpt lat="44.709207915880285" lon="9.89540348929537"><ele>659.0</ele><time>2026-03-29T14:15:11Z</time></trkpt><trkpt lat="44.70928954487377" lon="9.895412205040985"><ele>659.0</ele><time>2026-03-29T14:15:12Z</time></trkpt><trkpt lat="44.70936767650519" lon="9.895394264728283"><ele>659.0</ele><time>2026-03-29T14:15:13Z</time></trkpt><trkpt lat="44.709454866005935" lon="9.895375161738263"><ele>659.0</ele><time>2026-03-29T14:15:14Z</time></trkpt><trkpt lat="44.709543576001785" lon="9.895293050784863"><ele>659.0</ele><time>2026-03-29T14:15:15Z</time></trkpt><trkpt lat="44.70961520769854" lon="9.895189823314471"><ele>659.0</ele><time>2026-03-29T14:15:16Z</time></trkpt><trkpt lat="44.70967825552051" lon="9.895090581869464"><ele>658.1666666666666</ele><time>2026-03-29T14:15:17Z</time></trkpt><trkpt lat="44.709732808323686" lon="9.8950006967254"><ele>657.3333333333333</ele><time>2026-03-29T14:15:18Z</time></trkpt><trkpt lat="44.70979149816176" lon="9.894931078468483"><ele>656.5</ele><time>2026-03-29T14:15:19Z</time></trkpt><trkpt lat="44.70986663600616" lon="9.894876285924362"><ele>655.6666666666666</ele><time>2026-03-29T14:15:20Z</time></trkpt><trkpt lat="44.70994925335988" lon="9.894835184829239"><ele>654.8333333333334</ele><time>2026-03-29T14:15:21Z</time></trkpt><trkpt lat="44.71003011446062" lon="9.894807383758769"><ele>654.0</ele><time>2026-03-29T14:15:22Z</time></trkpt><trkpt lat="44.710113011452556" lon="9.894785936279334"><ele>654.0</ele><time>2026-03-29T14:15:23Z</time></trkpt><trkpt lat="44.71019580882111" lon="9.894746545051303"><ele>654.0</ele><time>2026-03-29T14:15:24Z</time></trkpt><trkpt lat="44.71027765057593" lon="9.894696241156117"><ele>654.0</ele><time>2026-03-29T14:15:25Z</time></trkpt><trkpt lat="44.7103664987619" lon="9.89463481692026"><ele>654.0</ele><time>2026-03-29T14:15:26Z</time></trkpt><trkpt lat="44.71044193976882" lon="9.894561029056614"><ele>654.0</ele><time>2026-03-29T14:15:27Z</time></trkpt><trkpt lat="44.71050757591456" lon="9.89450033438641"><ele>654.0</ele><time>2026-03-29T14:15:28Z</time></trkpt><trkpt lat="44.71057643248902" lon="9.894451755393536"><ele>658.2</ele><time>2026-03-29T14:15:29Z</time></trkpt><trkpt lat="44.71071024386679" lon="9.894449142982934"><ele>662.4000000000001</ele><time>2026-03-29T14:15:31Z</time></trkpt><trkpt lat="44.71078479835945" lon="9.894445364169666"><ele>666.6</ele><time>2026-03-29T14:15:32Z</time></trkpt><trkpt lat="44.71086892153288" lon="9.894485100457489"><ele>670.8</ele><time>2026-03-29T14:15:33Z</time></trkpt><trkpt lat="44.7109463203817" lon="9.894507222060543"><ele>675.0</ele><time>2026-03-29T14:15:34Z</time></trkpt><trkpt lat="44.71101598469214" lon="9.894540454287553"><ele>675.0</ele><time>2026-03-29T14:15:35Z</time></trkpt><trkpt lat="44.71107290992241" lon="9.894579004597087"><ele>675.0</ele><time>2026-03-29T14:15:36Z</time></trkpt><trkpt lat="44.71112180897241" lon="9.894649382463921"><ele>675.0</ele><time>2026-03-29T14:15:37Z</time></trkpt><trkpt lat="44.711181206146854" lon="9.894725675312385"><ele>675.0</ele><time>2026-03-29T14:15:38Z</time></trkpt><trkpt lat="44.711240620095" lon="9.894790588177573"><ele>675.0</ele><time>2026-03-29T14:15:38.999Z</time></trkpt><trkpt lat="44.71131154155641" lon="9.894828157685081"><ele>675.0</ele><time>2026-03-29T14:15:39.999Z</time></trkpt><trkpt lat="44.71138119606069" lon="9.894822057128467"><ele>675.0</ele><time>2026-03-29T14:15:40.999Z</time></trkpt><trkpt lat="44.711442172525786" lon="9.894773983698911"><ele>676.6666666666666</ele><time>2026-03-29T14:15:41.999Z</time></trkpt><trkpt lat="44.711493979025974" lon="9.894679441274077"><ele>678.3333333333334</ele><time>2026-03-29T14:15:42.999Z</time></trkpt><trkpt lat="44.71152875088583" lon="9.89456201237203"><ele>680.0</ele><time>2026-03-29T14:15:43.999Z</time></trkpt><trkpt lat="44.71159254656441" lon="9.894464109319628"><ele>681.6666666666667</ele><time>2026-03-29T14:15:44.999Z</time></trkpt><trkpt lat="44.71164818290459" lon="9.89437848649759"><ele>683.3333333333334</ele><time>2026-03-29T14:15:45.999Z</time></trkpt><trkpt lat="44.71170247082514" lon="9.894324516548743"><ele>685.0</ele><time>2026-03-29T14:15:46.999Z</time></trkpt><trkpt lat="44.71177382180743" lon="9.894279790131709"><ele>682.2</ele><time>2026-03-29T14:15:47.999Z</time></trkpt><trkpt lat="44.7118631814767" lon="9.894236841621286"><ele>679.4</ele><time>2026-03-29T14:15:48.999Z</time></trkpt><trkpt lat="44.711959072072496" lon="9.894172307772159"><ele>676.5999999999999</ele><time>2026-03-29T14:15:49.999Z</time></trkpt><trkpt lat="44.712069626247064" lon="9.894131423541435"><ele>673.8</ele><time>2026-03-29T14:15:50.999Z</time></trkpt><trkpt lat="44.712170818560296" lon="9.894086208944401"><ele>671.0</ele><time>2026-03-29T14:15:51.999Z</time></trkpt><trkpt lat="44.71227032545207" lon="9.89405119110658"><ele>671.0</ele><time>2026-03-29T14:15:52.999Z</time></trkpt><trkpt lat="44.71236935019451" lon="9.894030626035459"><ele>671.0</ele><time>2026-03-29T14:15:53.999Z</time></trkpt><trkpt lat="44.712459012301075" lon="9.894002854134044"><ele>671.0</ele><time>2026-03-29T14:15:54.999Z</time></trkpt><trkpt lat="44.71253064520735" lon="9.893993807504607"><ele>671.0</ele><time>2026-03-29T14:15:55.999Z</time></trkpt><trkpt lat="44.71261509644419" lon="9.89400874183061"><ele>671.0</ele><time>2026-03-29T14:15:56.999Z</time></trkpt><trkpt lat="44.712695838711575" lon="9.894011093137808"><ele>671.0</ele><time>2026-03-29T14:15:57.999Z</time></trkpt><trkpt lat="44.71277116868079" lon="9.894055058395715"><ele>669.3333333333333</ele><time>2026-03-29T14:15:58.999Z</time></trkpt><trkpt lat="44.71282077647653" lon="9.894120017562912"><ele>667.6666666666666</ele><time>2026-03-29T14:15:59.999Z</time></trkpt><trkpt lat="44.712866380641444" lon="9.894283782159821"><ele>666.0</ele><time>2026-03-29T14:16:01.999Z</time></trkpt><trkpt lat="44.71288687873339" lon="9.894384370524003"><ele>664.3333333333334</ele><time>2026-03-29T14:16:02.999Z</time></trkpt><trkpt lat="44.71290964063018" lon="9.89451562439721"><ele>662.6666666666667</ele><time>2026-03-29T14:16:03.999Z</time></trkpt><trkpt lat="44.71294983371435" lon="9.894609086359308"><ele>661.0</ele><time>2026-03-29T14:16:04.999Z</time></trkpt><trkpt lat="44.7130014501987" lon="9.894678050621092"><ele>664.6666666666667</ele><time>2026-03-29T14:16:06Z</time></trkpt><trkpt lat="44.71306073139513" lon="9.89472553712914"><ele>668.3333333333334</ele><time>2026-03-29T14:16:07Z</time></trkpt><trkpt lat="44.71312382735063" lon="9.894754778285172"><ele>672.0</ele><time>2026-03-29T14:16:08Z</time></trkpt><trkpt lat="44.71320782483192" lon="9.894762909042717"><ele>675.6666666666666</ele><time>2026-03-29T14:16:09Z</time></trkpt><trkpt lat="44.71328813523637" lon="9.894776633318793"><ele>679.3333333333333</ele><time>2026-03-29T14:16:10Z</time></trkpt><trkpt lat="44.71336738524017" lon="9.894805194656977"><ele>683.0</ele><time>2026-03-29T14:16:11Z</time></trkpt><trkpt lat="44.71343567571495" lon="9.89483287052269"><ele>683.0</ele><time>2026-03-29T14:16:12Z</time></trkpt><trkpt lat="44.71349855981894" lon="9.894855552165414"><ele>683.0</ele><time>2026-03-29T14:16:13Z</time></trkpt><trkpt lat="44.713627821316535" lon="9.894866345292476"><ele>683.0</ele><time>2026-03-29T14:16:15Z</time></trkpt><trkpt lat="44.713701236166926" lon="9.894811152994956"><ele>683.0</ele><time>2026-03-29T14:16:16Z</time></trkpt><trkpt lat="44.71377045720766" lon="9.894763158391441"><ele>683.0</ele><time>2026-03-29T14:16:17Z</time></trkpt><trkpt lat="44.71384394348097" lon="9.894714138751318"><ele>683.0</ele><time>2026-03-29T14:16:18Z</time></trkpt><trkpt lat="44.7139161148362" lon="9.894669142161083"><ele>683.8333333333333</ele><time>2026-03-29T14:16:19Z</time></trkpt><trkpt lat="44.71397665122939" lon="9.894618583242794"><ele>684.6666666666666</ele><time>2026-03-29T14:16:20Z</time></trkpt><trkpt lat="44.714027806030764" lon="9.894566188884863"><ele>685.5</ele><time>2026-03-29T14:16:21Z</time></trkpt><trkpt lat="44.71408059637644" lon="9.894516715366631"><ele>686.3333333333334</ele><time>2026-03-29T14:16:22Z</time></trkpt><trkpt lat="44.71419159602922" lon="9.894447099182445"><ele>687.1666666666667</ele><time>2026-03-29T14:16:24Z</time></trkpt><trkpt lat="44.71425763375589" lon="9.894444973795075"><ele>688.0</ele><time>2026-03-29T14:16:25Z</time></trkpt><trkpt lat="44.71434052547783" lon="9.89446318337585"><ele>689.5999999999999</ele><time>2026-03-29T14:16:26Z</time></trkpt><trkpt lat="44.71440747650865" lon="9.894486183137708"><ele>691.1999999999999</ele><time>2026-03-29T14:16:27Z</time></trkpt><trkpt lat="44.714529010991725" lon="9.89450484749636"><ele>692.8</ele><time>2026-03-29T14:16:29Z</time></trkpt><trkpt lat="44.714614245109374" lon="9.894377863883019"><ele>694.4</ele><time>2026-03-29T14:16:31Z</time></trkpt><trkpt lat="44.714688201417346" lon="9.894259440204303"><ele>696.0</ele><time>2026-03-29T14:16:32Z</time></trkpt><trkpt lat="44.71474410393321" lon="9.894130919517861"><ele>696.0</ele><time>2026-03-29T14:16:33Z</time></trkpt><trkpt lat="44.714788769477934" lon="9.894022340382742"><ele>696.0</ele><time>2026-03-29T14:16:34Z</time></trkpt><trkpt lat="44.71482514718906" lon="9.893900829681968"><ele>696.0</ele><time>2026-03-29T14:16:35Z</time></trkpt><trkpt lat="44.71483543872473" lon="9.893766452661023"><ele>696.0</ele><time>2026-03-29T14:16:36Z</time></trkpt><trkpt lat="44.71483368752683" lon="9.893640556578996"><ele>696.0</ele><time>2026-03-29T14:16:37Z</time></trkpt><trkpt lat="44.714816571982084" lon="9.893512812498834"><ele>695.8333333333334</ele><time>2026-03-29T14:16:38Z</time></trkpt><trkpt lat="44.7147923292064" lon="9.893385136034714"><ele>695.6666666666666</ele><time>2026-03-29T14:16:39Z</time></trkpt><trkpt lat="44.714763991517806" lon="9.893255438415613"><ele>695.5</ele><time>2026-03-29T14:16:40Z</time></trkpt><trkpt lat="44.71474351216044" lon="9.893142431281763"><ele>695.3333333333333</ele><time>2026-03-29T14:16:41Z</time></trkpt><trkpt lat="44.71473005136243" lon="9.893026007481925"><ele>695.1666666666666</ele><time>2026-03-29T14:16:42Z</time></trkpt><trkpt lat="44.71472421392933" lon="9.892918545977588"><ele>695.0</ele><time>2026-03-29T14:16:43Z</time></trkpt><trkpt lat="44.71472074316757" lon="9.892797707946407"><ele>695.0</ele><time>2026-03-29T14:16:44Z</time></trkpt><trkpt lat="44.714724259448175" lon="9.892676174156906"><ele>695.0</ele><time>2026-03-29T14:16:45Z</time></trkpt><trkpt lat="44.714740464590854" lon="9.892559138869224"><ele>695.0</ele><time>2026-03-29T14:16:46Z</time></trkpt><trkpt lat="44.71476441505238" lon="9.89244962024551"><ele>695.0</ele><time>2026-03-29T14:16:47Z</time></trkpt><trkpt lat="44.71479728066097" lon="9.892352891309939"><ele>695.0</ele><time>2026-03-29T14:16:48Z</time></trkpt><trkpt lat="44.71484879356673" lon="9.892267820107607"><ele>695.0</ele><time>2026-03-29T14:16:49Z</time></trkpt><trkpt lat="44.71492352751988" lon="9.89221282149066"><ele>694.8333333333333</ele><time>2026-03-29T14:16:50Z</time></trkpt><trkpt lat="44.714984032740276" lon="9.892147572989979"><ele>694.6666666666666</ele><time>2026-03-29T14:16:51Z</time></trkpt><trkpt lat="44.71504824779522" lon="9.892079230333717"><ele>694.5</ele><time>2026-03-29T14:16:52Z</time></trkpt><trkpt lat="44.715108955172525" lon="9.892023031382507"><ele>694.3333333333334</ele><time>2026-03-29T14:16:53Z</time></trkpt><trkpt lat="44.71517047877452" lon="9.891966827700944"><ele>694.1666666666667</ele><time>2026-03-29T14:16:54Z</time></trkpt><trkpt lat="44.71523356488705" lon="9.89190658914273"><ele>694.0</ele><time>2026-03-29T14:16:55Z</time></trkpt><trkpt lat="44.715298875834435" lon="9.891820153884888"><ele>696.8000000000001</ele><time>2026-03-29T14:16:56Z</time></trkpt><trkpt lat="44.715348374567405" lon="9.891735892549496"><ele>699.6</ele><time>2026-03-29T14:16:57Z</time></trkpt><trkpt lat="44.71540294459309" lon="9.891643165412892"><ele>702.4</ele><time>2026-03-29T14:16:58Z</time></trkpt><trkpt lat="44.715443101512534" lon="9.891494523336645"><ele>705.2</ele><time>2026-03-29T14:17:00Z</time></trkpt><trkpt lat="44.7154807005726" lon="9.891310288642853"><ele>708.0</ele><time>2026-03-29T14:17:02Z</time></trkpt><trkpt lat="44.71551565366852" lon="9.891198715887759"><ele>708.0</ele><time>2026-03-29T14:17:03Z</time></trkpt><trkpt lat="44.71554597450351" lon="9.891099774986426"><ele>708.0</ele><time>2026-03-29T14:17:04Z</time></trkpt><trkpt lat="44.71557514497462" lon="9.891016729931467"><ele>708.0</ele><time>2026-03-29T14:17:05Z</time></trkpt><trkpt lat="44.71562029736043" lon="9.890924739253471"><ele>708.0</ele><time>2026-03-29T14:17:06Z</time></trkpt><trkpt lat="44.715689489752506" lon="9.890875942427789"><ele>708.0</ele><time>2026-03-29T14:17:07Z</time></trkpt><trkpt lat="44.7157666731186" lon="9.89081792020729"><ele>708.0</ele><time>2026-03-29T14:17:08Z</time></trkpt><trkpt lat="44.715851654188924" lon="9.89073586536684"><ele>708.0</ele><time>2026-03-29T14:17:09Z</time></trkpt><trkpt lat="44.71594770060776" lon="9.890685945264819"><ele>708.0</ele><time>2026-03-29T14:17:10Z</time></trkpt><trkpt lat="44.71605471988824" lon="9.890667149834025"><ele>708.0</ele><time>2026-03-29T14:17:11Z</time></trkpt><trkpt lat="44.7161517423429" lon="9.890653172934924"><ele>708.0</ele><time>2026-03-29T14:17:12Z</time></trkpt><trkpt lat="44.716243725265365" lon="9.890621640585321"><ele>708.0</ele><time>2026-03-29T14:17:13Z</time></trkpt><trkpt lat="44.7163189309235" lon="9.890615342860102"><ele>708.0</ele><time>2026-03-29T14:17:14Z</time></trkpt><trkpt lat="44.71638452092747" lon="9.890595677770907"><ele>708.0</ele><time>2026-03-29T14:17:15Z</time></trkpt><trkpt lat="44.71644858358622" lon="9.890548733850913"><ele>708.0</ele><time>2026-03-29T14:17:16Z</time></trkpt><trkpt lat="44.716499176796354" lon="9.890475433057397"><ele>708.0</ele><time>2026-03-29T14:17:17Z</time></trkpt><trkpt lat="44.71652888246499" lon="9.890369614403996"><ele>708.0</ele><time>2026-03-29T14:17:18Z</time></trkpt><trkpt lat="44.71653665712199" lon="9.890232231828815"><ele>708.0</ele><time>2026-03-29T14:17:19Z</time></trkpt><trkpt lat="44.71658139499689" lon="9.890100963079277"><ele>704.4</ele><time>2026-03-29T14:17:20Z</time></trkpt><trkpt lat="44.71663395690665" lon="9.88996103315964"><ele>700.8</ele><time>2026-03-29T14:17:21Z</time></trkpt><trkpt lat="44.71668078311465" lon="9.889824707994167"><ele>697.2</ele><time>2026-03-29T14:17:22Z</time></trkpt><trkpt lat="44.71670414211364" lon="9.889675052204629"><ele>693.6</ele><time>2026-03-29T14:17:23Z</time></trkpt><trkpt lat="44.71670149830882" lon="9.889545046840201"><ele>690.0</ele><time>2026-03-29T14:17:24Z</time></trkpt><trkpt lat="44.71671202834489" lon="9.889433571009928"><ele>690.0</ele><time>2026-03-29T14:17:25Z</time></trkpt><trkpt lat="44.71672948390239" lon="9.88934226796222"><ele>690.0</ele><time>2026-03-29T14:17:26Z</time></trkpt><trkpt lat="44.71680316916195" lon="9.889250664302034"><ele>690.0</ele><time>2026-03-29T14:17:28Z</time></trkpt><trkpt lat="44.716867324726074" lon="9.889240818827375"><ele>690.0</ele><time>2026-03-29T14:17:29Z</time></trkpt><trkpt lat="44.71694337723768" lon="9.88930981952787"><ele>690.0</ele><time>2026-03-29T14:17:30Z</time></trkpt><trkpt lat="44.71703070055008" lon="9.889304602866767"><ele>690.0</ele><time>2026-03-29T14:17:31Z</time></trkpt><trkpt lat="44.71711075404389" lon="9.889330867896192"><ele>691.5</ele><time>2026-03-29T14:17:32Z</time></trkpt><trkpt lat="44.71718783578129" lon="9.88932520122707"><ele>693.0</ele><time>2026-03-29T14:17:33Z</time></trkpt><trkpt lat="44.71725710509148" lon="9.889268423444282"><ele>694.5</ele><time>2026-03-29T14:17:34Z</time></trkpt><trkpt lat="44.717306098202826" lon="9.889173841291296"><ele>696.0</ele><time>2026-03-29T14:17:35Z</time></trkpt><trkpt lat="44.71733530969102" lon="9.88905212283613"><ele>697.5</ele><time>2026-03-29T14:17:36Z</time></trkpt><trkpt lat="44.71738156629179" lon="9.888923722750166"><ele>699.0</ele><time>2026-03-29T14:17:37Z</time></trkpt><trkpt lat="44.71741293371942" lon="9.88880587296072"><ele>699.0</ele><time>2026-03-29T14:17:38Z</time></trkpt><trkpt lat="44.71747302536392" lon="9.888714999309464"><ele>699.0</ele><time>2026-03-29T14:17:39Z</time></trkpt><trkpt lat="44.71753281397677" lon="9.888606125430014"><ele>699.0</ele><time>2026-03-29T14:17:40Z</time></trkpt><trkpt lat="44.71758230958548" lon="9.888484004883964"><ele>699.0</ele><time>2026-03-29T14:17:41Z</time></trkpt><trkpt lat="44.71761361403613" lon="9.88834286504211"><ele>699.0</ele><time>2026-03-29T14:17:42Z</time></trkpt><trkpt lat="44.717627232067294" lon="9.888211012555862"><ele>698.1666666666666</ele><time>2026-03-29T14:17:43Z</time></trkpt><trkpt lat="44.717666493552784" lon="9.88810678576086"><ele>697.3333333333334</ele><time>2026-03-29T14:17:44Z</time></trkpt><trkpt lat="44.717694214561824" lon="9.888026038311343"><ele>696.5</ele><time>2026-03-29T14:17:45Z</time></trkpt><trkpt lat="44.71773236607368" lon="9.887948981160626"><ele>695.6666666666667</ele><time>2026-03-29T14:17:46Z</time></trkpt><trkpt lat="44.717830146740745" lon="9.88784240466743"><ele>694.8333333333334</ele><time>2026-03-29T14:17:48Z</time></trkpt><trkpt lat="44.71789878758013" lon="9.88776451925081"><ele>694.0</ele><time>2026-03-29T14:17:50Z</time></trkpt><trkpt lat="44.717901643547634" lon="9.887575607722704"><ele>690.6</ele><time>2026-03-29T14:17:52Z</time></trkpt><trkpt lat="44.71788673381297" lon="9.887446201687109"><ele>687.2</ele><time>2026-03-29T14:17:53Z</time></trkpt><trkpt lat="44.717861937702864" lon="9.887299461831581"><ele>683.8000000000001</ele><time>2026-03-29T14:17:54Z</time></trkpt><trkpt lat="44.717838488224466" lon="9.887139981008096"><ele>680.4000000000001</ele><time>2026-03-29T14:17:55Z</time></trkpt><trkpt lat="44.7178247257751" lon="9.886976819360932"><ele>677.0</ele><time>2026-03-29T14:17:56Z</time></trkpt><trkpt lat="44.71781371387832" lon="9.88682117472903"><ele>674.6</ele><time>2026-03-29T14:17:57Z</time></trkpt><trkpt lat="44.71779609011647" lon="9.886671637112665"><ele>672.2</ele><time>2026-03-29T14:17:58Z</time></trkpt><trkpt lat="44.717781171012795" lon="9.886520899044925"><ele>669.8</ele><time>2026-03-29T14:17:59Z</time></trkpt><trkpt lat="44.71776867990295" lon="9.886361347755347"><ele>667.4</ele><time>2026-03-29T14:18:00Z</time></trkpt><trkpt lat="44.71776060560113" lon="9.886210453760892"><ele>665.0</ele><time>2026-03-29T14:18:01Z</time></trkpt><trkpt lat="44.71776991211106" lon="9.886059385737953"><ele>665.0</ele><time>2026-03-29T14:18:02Z</time></trkpt><trkpt lat="44.71781417467423" lon="9.885938952765272"><ele>665.0</ele><time>2026-03-29T14:18:03Z</time></trkpt><trkpt lat="44.71784041727072" lon="9.8858206450561"><ele>665.0</ele><time>2026-03-29T14:18:03.999Z</time></trkpt><trkpt lat="44.71788587157711" lon="9.88571199182971"><ele>665.0</ele><time>2026-03-29T14:18:04.999Z</time></trkpt><trkpt lat="44.717913461475526" lon="9.885595212790534"><ele>665.0</ele><time>2026-03-29T14:18:05.999Z</time></trkpt><trkpt lat="44.71792324207734" lon="9.885469230395824"><ele>665.2</ele><time>2026-03-29T14:18:06.999Z</time></trkpt><trkpt lat="44.71791835128976" lon="9.885335901467258"><ele>665.4</ele><time>2026-03-29T14:18:07.999Z</time></trkpt><trkpt lat="44.717904606882264" lon="9.885195639090432"><ele>665.5999999999999</ele><time>2026-03-29T14:18:08.999Z</time></trkpt><trkpt lat="44.71789109813933" lon="9.885051840413688"><ele>665.8</ele><time>2026-03-29T14:18:09.999Z</time></trkpt><trkpt lat="44.71787344830634" lon="9.884899318749905"><ele>666.0</ele><time>2026-03-29T14:18:10.999Z</time></trkpt><trkpt lat="44.71785743856194" lon="9.884741934271451"><ele>667.5</ele><time>2026-03-29T14:18:12Z</time></trkpt><trkpt lat="44.71784745953902" lon="9.884574382468157"><ele>669.0</ele><time>2026-03-29T14:18:13Z</time></trkpt><trkpt lat="44.7178359574601" lon="9.884400377736164"><ele>670.5</ele><time>2026-03-29T14:18:14Z</time></trkpt><trkpt lat="44.71782840643731" lon="9.884231357595914"><ele>672.0</ele><time>2026-03-29T14:18:15Z</time></trkpt><trkpt lat="44.7178298549504" lon="9.884074700240754"><ele>672.0</ele><time>2026-03-29T14:18:16Z</time></trkpt><trkpt lat="44.717848801540235" lon="9.883916503954303"><ele>672.0</ele><time>2026-03-29T14:18:17Z</time></trkpt><trkpt lat="44.71787719062751" lon="9.883771225269317"><ele>672.0</ele><time>2026-03-29T14:18:18Z</time></trkpt><trkpt lat="44.71790831745879" lon="9.883633435841377"><ele>672.0</ele><time>2026-03-29T14:18:19Z</time></trkpt><trkpt lat="44.717942495585575" lon="9.88349691675983"><ele>672.0</ele><time>2026-03-29T14:18:20Z</time></trkpt><trkpt lat="44.71798177980731" lon="9.883358775450152"><ele>674.0</ele><time>2026-03-29T14:18:21Z</time></trkpt><trkpt lat="44.71802447164278" lon="9.883213696862313"><ele>676.0</ele><time>2026-03-29T14:18:22Z</time></trkpt><trkpt lat="44.71806815270512" lon="9.883055847235397"><ele>678.0</ele><time>2026-03-29T14:18:23Z</time></trkpt><trkpt lat="44.71811867966588" lon="9.882888346736175"><ele>680.0</ele><time>2026-03-29T14:18:24Z</time></trkpt><trkpt lat="44.71816980326174" lon="9.882710303094932"><ele>680.0</ele><time>2026-03-29T14:18:25Z</time></trkpt><trkpt lat="44.718223140893706" lon="9.882535060528552"><ele>680.0</ele><time>2026-03-29T14:18:26Z</time></trkpt><trkpt lat="44.718270273263265" lon="9.88236732160578"><ele>680.0</ele><time>2026-03-29T14:18:27Z</time></trkpt><trkpt lat="44.71831800318181" lon="9.882212590292582"><ele>680.0</ele><time>2026-03-29T14:18:28Z</time></trkpt><trkpt lat="44.718367632457515" lon="9.882076383565899"><ele>680.0</ele><time>2026-03-29T14:18:29Z</time></trkpt><trkpt lat="44.71843395495145" lon="9.88195987644172"><ele>680.0</ele><time>2026-03-29T14:18:30Z</time></trkpt><trkpt lat="44.718519691171764" lon="9.881842045750712"><ele>680.0</ele><time>2026-03-29T14:18:31Z</time></trkpt><trkpt lat="44.71862205496841" lon="9.881735888663325"><ele>680.0</ele><time>2026-03-29T14:18:32Z</time></trkpt><trkpt lat="44.718727559466885" lon="9.881627341659255"><ele>677.5</ele><time>2026-03-29T14:18:33Z</time></trkpt><trkpt lat="44.71882031765842" lon="9.881504496259979"><ele>675.0</ele><time>2026-03-29T14:18:34Z</time></trkpt><trkpt lat="44.718896522698316" lon="9.881360235547916"><ele>672.5</ele><time>2026-03-29T14:18:35Z</time></trkpt><trkpt lat="44.71896834479391" lon="9.881203103958521"><ele>670.0</ele><time>2026-03-29T14:18:36Z</time></trkpt><trkpt lat="44.71903367897115" lon="9.881034841767555"><ele>670.0</ele><time>2026-03-29T14:18:37Z</time></trkpt><trkpt lat="44.719089815553346" lon="9.880851077843507"><ele>670.0</ele><time>2026-03-29T14:18:38Z</time></trkpt><trkpt lat="44.71913055153796" lon="9.880666002781886"><ele>670.0</ele><time>2026-03-29T14:18:39Z</time></trkpt><trkpt lat="44.71915945332245" lon="9.880492379973463"><ele>670.0</ele><time>2026-03-29T14:18:40Z</time></trkpt><trkpt lat="44.719177444039985" lon="9.880330017307639"><ele>670.0</ele><time>2026-03-29T14:18:41Z</time></trkpt><trkpt lat="44.71920240745642" lon="9.880178749530915"><ele>670.0</ele><time>2026-03-29T14:18:42Z</time></trkpt><trkpt lat="44.71922393276321" lon="9.880033291299716"><ele>670.0</ele><time>2026-03-29T14:18:43Z</time></trkpt><trkpt lat="44.71924635115693" lon="9.879891483500357"><ele>670.0</ele><time>2026-03-29T14:18:44Z</time></trkpt><trkpt lat="44.71926813252008" lon="9.879737125492321"><ele>670.0</ele><time>2026-03-29T14:18:45Z</time></trkpt><trkpt lat="44.71929087672301" lon="9.87956827616687"><ele>669.5</ele><time>2026-03-29T14:18:46Z</time></trkpt><trkpt lat="44.71928879773595" lon="9.879390558659749"><ele>669.0</ele><time>2026-03-29T14:18:47Z</time></trkpt><trkpt lat="44.71925412359157" lon="9.879213870747964"><ele>668.5</ele><time>2026-03-29T14:18:48Z</time></trkpt><trkpt lat="44.7191840383449" lon="9.8790405445014"><ele>668.0</ele><time>2026-03-29T14:18:49Z</time></trkpt><trkpt lat="44.719101623096066" lon="9.878888581682101"><ele>667.8</ele><time>2026-03-29T14:18:50Z</time></trkpt><trkpt lat="44.71902041969195" lon="9.878765756640913"><ele>667.5999999999999</ele><time>2026-03-29T14:18:51Z</time></trkpt><trkpt lat="44.7189549325731" lon="9.878646942830478"><ele>667.4000000000001</ele><time>2026-03-29T14:18:52Z</time></trkpt><trkpt lat="44.71890037709228" lon="9.878537103668348"><ele>667.2</ele><time>2026-03-29T14:18:53Z</time></trkpt><trkpt lat="44.71886567085266" lon="9.878421176344608"><ele>667.0</ele><time>2026-03-29T14:18:54Z</time></trkpt><trkpt lat="44.71887240929742" lon="9.87828725682285"><ele>667.0</ele><time>2026-03-29T14:18:55Z</time></trkpt><trkpt lat="44.718899542164856" lon="9.878136659424538"><ele>667.0</ele><time>2026-03-29T14:18:56Z</time></trkpt><trkpt lat="44.71891241718302" lon="9.877965225989538"><ele>667.0</ele><time>2026-03-29T14:18:57Z</time></trkpt><trkpt lat="44.71894661518589" lon="9.877781506321508"><ele>667.0</ele><time>2026-03-29T14:18:58Z</time></trkpt><trkpt lat="44.71897231998738" lon="9.877588426118852"><ele>666.5</ele><time>2026-03-29T14:18:59Z</time></trkpt><trkpt lat="44.719000192337575" lon="9.8774230513702"><ele>666.0</ele><time>2026-03-29T14:19:00Z</time></trkpt><trkpt lat="44.71902698845087" lon="9.877269294096777"><ele>665.5</ele><time>2026-03-29T14:19:01Z</time></trkpt><trkpt lat="44.71906148286408" lon="9.877105220080585"><ele>665.0</ele><time>2026-03-29T14:19:02Z</time></trkpt><trkpt lat="44.719085342156895" lon="9.876913778879937"><ele>664.25</ele><time>2026-03-29T14:19:03Z</time></trkpt><trkpt lat="44.71912081314186" lon="9.876741557913443"><ele>663.5</ele><time>2026-03-29T14:19:04Z</time></trkpt><trkpt lat="44.719193427391936" lon="9.876600219087234"><ele>662.75</ele><time>2026-03-29T14:19:05Z</time></trkpt><trkpt lat="44.719280413279286" lon="9.876465309347202"><ele>662.0</ele><time>2026-03-29T14:19:06Z</time></trkpt><trkpt lat="44.71938121278805" lon="9.876330731799193"><ele>662.75</ele><time>2026-03-29T14:19:07Z</time></trkpt><trkpt lat="44.71950040908439" lon="9.876216236404673"><ele>663.5</ele><time>2026-03-29T14:19:08Z</time></trkpt><trkpt lat="44.719614364060405" lon="9.87608727151324"><ele>664.25</ele><time>2026-03-29T14:19:09Z</time></trkpt><trkpt lat="44.719714805237764" lon="9.87594393079118"><ele>665.0</ele><time>2026-03-29T14:19:10Z</time></trkpt><trkpt lat="44.719800244214326" lon="9.875793767486867"><ele>665.0</ele><time>2026-03-29T14:19:11Z</time></trkpt><trkpt lat="44.7198757799884" lon="9.875639016528947"><ele>665.0</ele><time>2026-03-29T14:19:12Z</time></trkpt><trkpt lat="44.719928374552275" lon="9.875472534541837"><ele>665.0</ele><time>2026-03-29T14:19:13Z</time></trkpt><trkpt lat="44.71994897847616" lon="9.875299424813239"><ele>665.0</ele><time>2026-03-29T14:19:14Z</time></trkpt><trkpt lat="44.719958731767534" lon="9.875125514863724"><ele>664.5</ele><time>2026-03-29T14:19:15Z</time></trkpt><trkpt lat="44.71997115393536" lon="9.874969853837484"><ele>664.0</ele><time>2026-03-29T14:19:16Z</time></trkpt><trkpt lat="44.72000492308374" lon="9.874816446858514"><ele>663.5</ele><time>2026-03-29T14:19:17Z</time></trkpt><trkpt lat="44.72009725472835" lon="9.874701809858326"><ele>663.0</ele><time>2026-03-29T14:19:18Z</time></trkpt><trkpt lat="44.72020378044988" lon="9.874584480025664"><ele>662.75</ele><time>2026-03-29T14:19:19Z</time></trkpt><trkpt lat="44.72033069341696" lon="9.874473533152035"><ele>662.5</ele><time>2026-03-29T14:19:20Z</time></trkpt><trkpt lat="44.7204515407013" lon="9.87436246016138"><ele>662.25</ele><time>2026-03-29T14:19:21Z</time></trkpt><trkpt lat="44.72055703063291" lon="9.874251140016643"><ele>662.0</ele><time>2026-03-29T14:19:22Z</time></trkpt><trkpt lat="44.72065256967914" lon="9.874129289902838"><ele>661.75</ele><time>2026-03-29T14:19:23Z</time></trkpt><trkpt lat="44.720730635431494" lon="9.873970809191869"><ele>661.5</ele><time>2026-03-29T14:19:24Z</time></trkpt><trkpt lat="44.72077929835446" lon="9.873788415957533"><ele>661.25</ele><time>2026-03-29T14:19:25Z</time></trkpt><trkpt lat="44.72080019086298" lon="9.873606037093259"><ele>661.0</ele><time>2026-03-29T14:19:26Z</time></trkpt><trkpt lat="44.720815063420545" lon="9.873441241337304"><ele>661.1666666666667</ele><time>2026-03-29T14:19:27Z</time></trkpt><trkpt lat="44.72083178108923" lon="9.87329791075726"><ele>661.3333333333334</ele><time>2026-03-29T14:19:28Z</time></trkpt><trkpt lat="44.72085126945992" lon="9.873176337438824"><ele>661.5</ele><time>2026-03-29T14:19:29Z</time></trkpt><trkpt lat="44.720863221363196" lon="9.873062596375773"><ele>661.6666666666666</ele><time>2026-03-29T14:19:30Z</time></trkpt><trkpt lat="44.720866939937984" lon="9.872964948435285"><ele>661.8333333333333</ele><time>2026-03-29T14:19:31Z</time></trkpt><trkpt lat="44.72086313834513" lon="9.872874616652629"><ele>662.0</ele><time>2026-03-29T14:19:32Z</time></trkpt><trkpt lat="44.72085784372508" lon="9.8727134669438"><ele>662.0</ele><time>2026-03-29T14:19:34Z</time></trkpt><trkpt lat="44.72067855910628" lon="9.872673953255674"><ele>662.0</ele><time>2026-03-29T14:19:36Z</time></trkpt><trkpt lat="44.720610113990716" lon="9.87267911518203"><ele>662.0</ele><time>2026-03-29T14:19:37Z</time></trkpt><trkpt lat="44.72053447457451" lon="9.872693259596957"><ele>662.0</ele><time>2026-03-29T14:19:38Z</time></trkpt><trkpt lat="44.72045751471161" lon="9.872719199888477"><ele>662.0</ele><time>2026-03-29T14:19:39Z</time></trkpt><trkpt lat="44.72041736523729" lon="9.872847532064604"><ele>662.0</ele><time>2026-03-29T14:19:40Z</time></trkpt><trkpt lat="44.72038810410073" lon="9.872980705119202"><ele>662.0</ele><time>2026-03-29T14:19:41Z</time></trkpt><trkpt lat="44.72037395954092" lon="9.873128079410336"><ele>662.0</ele><time>2026-03-29T14:19:42Z</time></trkpt><trkpt lat="44.72036790905939" lon="9.873284060695143"><ele>662.0</ele><time>2026-03-29T14:19:43Z</time></trkpt><trkpt lat="44.72036676157852" lon="9.873430958587221"><ele>662.0</ele><time>2026-03-29T14:19:44Z</time></trkpt><trkpt lat="44.72034790476795" lon="9.873559478747703"><ele>661.8571428571429</ele><time>2026-03-29T14:19:45Z</time></trkpt><trkpt lat="44.720337951082385" lon="9.873668389261208"><ele>661.7142857142857</ele><time>2026-03-29T14:19:46Z</time></trkpt><trkpt lat="44.7203184216152" lon="9.873763583882411"><ele>661.5714285714286</ele><time>2026-03-29T14:19:47Z</time></trkpt><trkpt lat="44.720279231230734" lon="9.873835127970155"><ele>661.4285714285714</ele><time>2026-03-29T14:19:48Z</time></trkpt><trkpt lat="44.72022385916513" lon="9.87388161272061"><ele>661.2857142857143</ele><time>2026-03-29T14:19:49Z</time></trkpt><trkpt lat="44.720150880861674" lon="9.873873793282684"><ele>661.1428571428571</ele><time>2026-03-29T14:19:50Z</time></trkpt><trkpt lat="44.72008989574955" lon="9.87380852819088"><ele>661.0</ele><time>2026-03-29T14:19:51Z</time></trkpt><trkpt lat="44.720085514173554" lon="9.873691114975783"><ele>659.5999999999999</ele><time>2026-03-29T14:19:52Z</time></trkpt><trkpt lat="44.72010213654848" lon="9.873594532571108"><ele>658.2</ele><time>2026-03-29T14:19:53Z</time></trkpt><trkpt lat="44.72008605694018" lon="9.873459933450386"><ele>656.8</ele><time>2026-03-29T14:19:54Z</time></trkpt><trkpt lat="44.72008156946651" lon="9.87330166308127"><ele>655.4000000000001</ele><time>2026-03-29T14:19:55Z</time></trkpt><trkpt lat="44.72005906940557" lon="9.873129483950633"><ele>654.0</ele><time>2026-03-29T14:19:56Z</time></trkpt><trkpt lat="44.72000379988874" lon="9.872955476866625"><ele>652.5</ele><time>2026-03-29T14:19:57Z</time></trkpt><trkpt lat="44.719939733282686" lon="9.872782521690304"><ele>651.0</ele><time>2026-03-29T14:19:58Z</time></trkpt><trkpt lat="44.71985755650065" lon="9.872632948657909"><ele>649.5</ele><time>2026-03-29T14:19:59Z</time></trkpt><trkpt lat="44.719766557039335" lon="9.872508805817088"><ele>648.0</ele><time>2026-03-29T14:20:00Z</time></trkpt><trkpt lat="44.71968414181496" lon="9.872381384470474"><ele>647.8</ele><time>2026-03-29T14:20:01Z</time></trkpt><trkpt lat="44.71961296545496" lon="9.872249441661332"><ele>647.5999999999999</ele><time>2026-03-29T14:20:02Z</time></trkpt><trkpt lat="44.719556646192544" lon="9.872129560577541"><ele>647.4000000000001</ele><time>2026-03-29T14:20:03Z</time></trkpt><trkpt lat="44.71949926561745" lon="9.871999111881987"><ele>647.2</ele><time>2026-03-29T14:20:04Z</time></trkpt><trkpt lat="44.719445458743856" lon="9.871891389265805"><ele>647.0</ele><time>2026-03-29T14:20:05Z</time></trkpt><trkpt lat="44.719371194489284" lon="9.871806130965295"><ele>643.6</ele><time>2026-03-29T14:20:06Z</time></trkpt><trkpt lat="44.71928206107198" lon="9.871750627910988"><ele>640.2</ele><time>2026-03-29T14:20:07Z</time></trkpt><trkpt lat="44.71918810987944" lon="9.871723063135816"><ele>636.8</ele><time>2026-03-29T14:20:08Z</time></trkpt><trkpt lat="44.71909639149702" lon="9.8717272074952"><ele>633.4</ele><time>2026-03-29T14:20:09Z</time></trkpt><trkpt lat="44.71900555416599" lon="9.871763495171916"><ele>630.0</ele><time>2026-03-29T14:20:10Z</time></trkpt><trkpt lat="44.718927483237586" lon="9.871836036546378"><ele>630.0</ele><time>2026-03-29T14:20:11Z</time></trkpt><trkpt lat="44.71886140117424" lon="9.871950130115462"><ele>630.0</ele><time>2026-03-29T14:20:12Z</time></trkpt><trkpt lat="44.718807375260134" lon="9.87209842533332"><ele>630.0</ele><time>2026-03-29T14:20:12.999Z</time></trkpt><trkpt lat="44.71876566045936" lon="9.872265516152455"><ele>630.0</ele><time>2026-03-29T14:20:13.999Z</time></trkpt><trkpt lat="44.71871062954727" lon="9.872441911150968"><ele>631.0</ele><time>2026-03-29T14:20:14.999Z</time></trkpt><trkpt lat="44.7186371033796" lon="9.872610788780522"><ele>632.0</ele><time>2026-03-29T14:20:15.999Z</time></trkpt><trkpt lat="44.71856310400561" lon="9.872753348059268"><ele>633.0</ele><time>2026-03-29T14:20:16.999Z</time></trkpt><trkpt lat="44.71849391797796" lon="9.87288661067801"><ele>634.0</ele><time>2026-03-29T14:20:18Z</time></trkpt><trkpt lat="44.718433691230395" lon="9.873012122619606"><ele>632.1666666666667</ele><time>2026-03-29T14:20:19Z</time></trkpt><trkpt lat="44.71837329995566" lon="9.873127121553342"><ele>630.3333333333334</ele><time>2026-03-29T14:20:20Z</time></trkpt><trkpt lat="44.71831727744153" lon="9.8732328509332"><ele>628.5</ele><time>2026-03-29T14:20:21Z</time></trkpt><trkpt lat="44.71826254483068" lon="9.873329430298082"><ele>626.6666666666666</ele><time>2026-03-29T14:20:22Z</time></trkpt><trkpt lat="44.71821674603568" lon="9.873421348610114"><ele>624.8333333333333</ele><time>2026-03-29T14:20:23Z</time></trkpt><trkpt lat="44.71815649563417" lon="9.873482530055526"><ele>623.0</ele><time>2026-03-29T14:20:24Z</time></trkpt><trkpt lat="44.71810551036109" lon="9.873540917650374"><ele>623.0</ele><time>2026-03-29T14:20:25Z</time></trkpt><trkpt lat="44.71803092387401" lon="9.873523887390213"><ele>623.0</ele><time>2026-03-29T14:20:26Z</time></trkpt><trkpt lat="44.717969302809834" lon="9.873463396130465"><ele>623.0</ele><time>2026-03-29T14:20:27Z</time></trkpt><trkpt lat="44.71793493255662" lon="9.873363749511418"><ele>623.0</ele><time>2026-03-29T14:20:28Z</time></trkpt><trkpt lat="44.717952707133115" lon="9.873226765688797"><ele>623.0</ele><time>2026-03-29T14:20:29Z</time></trkpt><trkpt lat="44.71796354019882" lon="9.873072179066646"><ele>623.0</ele><time>2026-03-29T14:20:30Z</time></trkpt><trkpt lat="44.71796427898048" lon="9.872898820699541"><ele>622.1999999999999</ele><time>2026-03-29T14:20:31Z</time></trkpt><trkpt lat="44.71795794613724" lon="9.872749727335478"><ele>621.4</ele><time>2026-03-29T14:20:32Z</time></trkpt><trkpt lat="44.71796176405713" lon="9.872613538856834"><ele>620.5999999999999</ele><time>2026-03-29T14:20:33Z</time></trkpt><trkpt lat="44.71797123157203" lon="9.872484079511407"><ele>619.8</ele><time>2026-03-29T14:20:34Z</time></trkpt><trkpt lat="44.71798050840535" lon="9.872355762875788"><ele>619.0</ele><time>2026-03-29T14:20:35Z</time></trkpt><trkpt lat="44.717966366927875" lon="9.872212272218222"><ele>618.0</ele><time>2026-03-29T14:20:36Z</time></trkpt><trkpt lat="44.71795645116091" lon="9.872050431464116"><ele>617.0</ele><time>2026-03-29T14:20:37Z</time></trkpt><trkpt lat="44.71786524463113" lon="9.87191392099885"><ele>616.0</ele><time>2026-03-29T14:20:38Z</time></trkpt><trkpt lat="44.71776265599901" lon="9.871797622933823"><ele>615.0</ele><time>2026-03-29T14:20:39Z</time></trkpt><trkpt lat="44.71764172958274" lon="9.87170539800556"><ele>610.75</ele><time>2026-03-29T14:20:40Z</time></trkpt><trkpt lat="44.71752730636818" lon="9.871621982059846"><ele>606.5</ele><time>2026-03-29T14:20:41Z</time></trkpt><trkpt lat="44.71742698154393" lon="9.871519135037092"><ele>602.25</ele><time>2026-03-29T14:20:42Z</time></trkpt><trkpt lat="44.71732102837987" lon="9.871430908985149"><ele>598.0</ele><time>2026-03-29T14:20:43Z</time></trkpt><trkpt lat="44.71720667075959" lon="9.871362728058052"><ele>598.0</ele><time>2026-03-29T14:20:44Z</time></trkpt><trkpt lat="44.7171047300939" lon="9.871266196302892"><ele>598.0</ele><time>2026-03-29T14:20:45Z</time></trkpt><trkpt lat="44.71700295513419" lon="9.871174552943277"><ele>598.0</ele><time>2026-03-29T14:20:46Z</time></trkpt><trkpt lat="44.716917146951765" lon="9.87109542307116"><ele>598.0</ele><time>2026-03-29T14:20:47Z</time></trkpt><trkpt lat="44.716848517357754" lon="9.871014426477455"><ele>598.0</ele><time>2026-03-29T14:20:48Z</time></trkpt><trkpt lat="44.71679954180162" lon="9.870908014174011"><ele>597.8</ele><time>2026-03-29T14:20:49Z</time></trkpt><trkpt lat="44.716792219955984" lon="9.870776215274752"><ele>597.5999999999999</ele><time>2026-03-29T14:20:50Z</time></trkpt><trkpt lat="44.716848888425716" lon="9.870654414969994"><ele>597.4000000000001</ele><time>2026-03-29T14:20:51Z</time></trkpt><trkpt lat="44.71687386968045" lon="9.870510028457142"><ele>597.2</ele><time>2026-03-29T14:20:52Z</time></trkpt><trkpt lat="44.716926224839824" lon="9.870362436189197"><ele>597.0</ele><time>2026-03-29T14:20:53Z</time></trkpt><trkpt lat="44.716965156703175" lon="9.870241298212077"><ele>597.0</ele><time>2026-03-29T14:20:54Z</time></trkpt><trkpt lat="44.71699997611754" lon="9.870131237686014"><ele>597.0</ele><time>2026-03-29T14:20:55Z</time></trkpt><trkpt lat="44.71703397308707" lon="9.870029776627975"><ele>597.0</ele><time>2026-03-29T14:20:56Z</time></trkpt><trkpt lat="44.71705950418001" lon="9.869922455355862"><ele>597.0</ele><time>2026-03-29T14:20:57Z</time></trkpt><trkpt lat="44.71707534619723" lon="9.869790133814"><ele>597.0</ele><time>2026-03-29T14:20:58Z</time></trkpt><trkpt lat="44.71702105118943" lon="9.86964421594667"><ele>597.0</ele><time>2026-03-29T14:20:59Z</time></trkpt><trkpt lat="44.71694597378767" lon="9.86951185947484"><ele>597.0</ele><time>2026-03-29T14:21:00Z</time></trkpt><trkpt lat="44.7168576543441" lon="9.869383213108446"><ele>597.0</ele><time>2026-03-29T14:21:01Z</time></trkpt><trkpt lat="44.71679331637248" lon="9.869259649861524"><ele>597.0</ele><time>2026-03-29T14:21:02Z</time></trkpt><trkpt lat="44.716710579477784" lon="9.869162682917281"><ele>594.25</ele><time>2026-03-29T14:21:03Z</time></trkpt><trkpt lat="44.71660062560135" lon="9.869105947628771"><ele>591.5</ele><time>2026-03-29T14:21:04Z</time></trkpt><trkpt lat="44.7164793924247" lon="9.869083195468164"><ele>588.75</ele><time>2026-03-29T14:21:05Z</time></trkpt><trkpt lat="44.71636867224065" lon="9.869035658879625"><ele>586.0</ele><time>2026-03-29T14:21:06Z</time></trkpt><trkpt lat="44.716286474001876" lon="9.868924750405567"><ele>586.0</ele><time>2026-03-29T14:21:07Z</time></trkpt><trkpt lat="44.716197274632115" lon="9.868804439325459"><ele>586.0</ele><time>2026-03-29T14:21:08Z</time></trkpt><trkpt lat="44.71613813405086" lon="9.86868186011196"><ele>586.0</ele><time>2026-03-29T14:21:09Z</time></trkpt><trkpt lat="44.7160908101919" lon="9.8685563809752"><ele>586.0</ele><time>2026-03-29T14:21:10Z</time></trkpt><trkpt lat="44.71602433813025" lon="9.86843943663142"><ele>586.0</ele><time>2026-03-29T14:21:11Z</time></trkpt><trkpt lat="44.71593423637722" lon="9.868355909725633"><ele>584.2</ele><time>2026-03-29T14:21:12Z</time></trkpt><trkpt lat="44.715848096766656" lon="9.868283840824054"><ele>582.4000000000001</ele><time>2026-03-29T14:21:13Z</time></trkpt><trkpt lat="44.71577901884773" lon="9.868188531890695"><ele>580.6</ele><time>2026-03-29T14:21:14Z</time></trkpt><trkpt lat="44.71573034011639" lon="9.868078735977763"><ele>578.8000000000001</ele><time>2026-03-29T14:21:15Z</time></trkpt><trkpt lat="44.71567766235139" lon="9.867994655723617"><ele>577.0</ele><time>2026-03-29T14:21:16Z</time></trkpt><trkpt lat="44.715602787758705" lon="9.867940747798498"><ele>577.0</ele><time>2026-03-29T14:21:17Z</time></trkpt><trkpt lat="44.715508929404045" lon="9.86793733731594"><ele>577.0</ele><time>2026-03-29T14:21:18Z</time></trkpt><trkpt lat="44.71540852675755" lon="9.867991680802499"><ele>577.0</ele><time>2026-03-29T14:21:19Z</time></trkpt><trkpt lat="44.71532961386675" lon="9.868066908407046"><ele>577.0</ele><time>2026-03-29T14:21:20Z</time></trkpt><trkpt lat="44.715249255160884" lon="9.86812163389634"><ele>577.0</ele><time>2026-03-29T14:21:21Z</time></trkpt><trkpt lat="44.715158417577186" lon="9.868130401269932"><ele>574.2</ele><time>2026-03-29T14:21:22Z</time></trkpt><trkpt lat="44.71506043744655" lon="9.868108044921069"><ele>571.4000000000001</ele><time>2026-03-29T14:21:23Z</time></trkpt><trkpt lat="44.71497393396333" lon="9.868072027538018"><ele>568.5999999999999</ele><time>2026-03-29T14:21:24Z</time></trkpt><trkpt lat="44.714878745489884" lon="9.868019936779346"><ele>565.8</ele><time>2026-03-29T14:21:25Z</time></trkpt><trkpt lat="44.71476181649375" lon="9.867983098250933"><ele>563.0</ele><time>2026-03-29T14:21:26Z</time></trkpt><trkpt lat="44.714642402204305" lon="9.867934804328478"><ele>563.0</ele><time>2026-03-29T14:21:27Z</time></trkpt><trkpt lat="44.71452314411175" lon="9.867909431649059"><ele>563.0</ele><time>2026-03-29T14:21:28Z</time></trkpt><trkpt lat="44.714413432531984" lon="9.86788932907039"><ele>563.0</ele><time>2026-03-29T14:21:29Z</time></trkpt><trkpt lat="44.71430511750036" lon="9.867871020021418"><ele>563.0</ele><time>2026-03-29T14:21:30Z</time></trkpt><trkpt lat="44.7141950459852" lon="9.867878114898698"><ele>560.1999999999999</ele><time>2026-03-29T14:21:31Z</time></trkpt><trkpt lat="44.714094204029244" lon="9.86791215089241"><ele>557.4</ele><time>2026-03-29T14:21:32Z</time></trkpt><trkpt lat="44.71400593538707" lon="9.867961810378576"><ele>554.5999999999999</ele><time>2026-03-29T14:21:33Z</time></trkpt><trkpt lat="44.71391311219301" lon="9.867986947662985"><ele>551.8</ele><time>2026-03-29T14:21:34Z</time></trkpt><trkpt lat="44.71382018170795" lon="9.867949818528878"><ele>549.0</ele><time>2026-03-29T14:21:35Z</time></trkpt><trkpt lat="44.71373074482367" lon="9.867901847054464"><ele>549.0</ele><time>2026-03-29T14:21:36Z</time></trkpt><trkpt lat="44.7136696127254" lon="9.867872267173539"><ele>549.0</ele><time>2026-03-29T14:21:37Z</time></trkpt><trkpt lat="44.7136261390502" lon="9.867793587828785"><ele>549.0</ele><time>2026-03-29T14:21:38Z</time></trkpt><trkpt lat="44.71361107294206" lon="9.867669158287056"><ele>549.0</ele><time>2026-03-29T14:21:39Z</time></trkpt><trkpt lat="44.71362930158641" lon="9.867504269159346"><ele>549.0</ele><time>2026-03-29T14:21:40Z</time></trkpt><trkpt lat="44.71366667842208" lon="9.867344281371748"><ele>551.0</ele><time>2026-03-29T14:21:41Z</time></trkpt><trkpt lat="44.71371784852298" lon="9.867211877840678"><ele>553.0</ele><time>2026-03-29T14:21:42Z</time></trkpt><trkpt lat="44.71381237055071" lon="9.867093302946895"><ele>555.0</ele><time>2026-03-29T14:21:43Z</time></trkpt><trkpt lat="44.71391236280666" lon="9.866958667302304"><ele>557.0</ele><time>2026-03-29T14:21:44Z</time></trkpt><trkpt lat="44.71398780433511" lon="9.866808263591688"><ele>555.6</ele><time>2026-03-29T14:21:45Z</time></trkpt><trkpt lat="44.71402663222072" lon="9.86663976533047"><ele>554.2</ele><time>2026-03-29T14:21:46Z</time></trkpt><trkpt lat="44.71404551866431" lon="9.866471422490408"><ele>552.8</ele><time>2026-03-29T14:21:47Z</time></trkpt><trkpt lat="44.71406065727834" lon="9.866315599789836"><ele>551.4</ele><time>2026-03-29T14:21:48Z</time></trkpt><trkpt lat="44.71408160305684" lon="9.866195126685742"><ele>550.0</ele><time>2026-03-29T14:21:49Z</time></trkpt><trkpt lat="44.71409524993366" lon="9.86609369962997"><ele>550.0</ele><time>2026-03-29T14:21:50Z</time></trkpt><trkpt lat="44.714076338911724" lon="9.865992697964233"><ele>550.0</ele><time>2026-03-29T14:21:51Z</time></trkpt><trkpt lat="44.71401728416849" lon="9.865909131781482"><ele>550.0</ele><time>2026-03-29T14:21:52Z</time></trkpt><trkpt lat="44.71391828847313" lon="9.865889006443847"><ele>550.0</ele><time>2026-03-29T14:21:53Z</time></trkpt><trkpt lat="44.713818284423795" lon="9.865932546623647"><ele>550.0</ele><time>2026-03-29T14:21:54Z</time></trkpt><trkpt lat="44.713737356963634" lon="9.866028820238537"><ele>550.0</ele><time>2026-03-29T14:21:55Z</time></trkpt><trkpt lat="44.71367450909055" lon="9.866173776408028"><ele>550.0</ele><time>2026-03-29T14:21:56Z</time></trkpt><trkpt lat="44.71364503044589" lon="9.866337839942272"><ele>550.0</ele><time>2026-03-29T14:21:57Z</time></trkpt><trkpt lat="44.713610082025724" lon="9.866474803927131"><ele>550.0</ele><time>2026-03-29T14:21:58Z</time></trkpt><trkpt lat="44.713529112942645" lon="9.866565306281519"><ele>550.0</ele><time>2026-03-29T14:21:59Z</time></trkpt><trkpt lat="44.71342598206751" lon="9.866578154711972"><ele>546.25</ele><time>2026-03-29T14:22:00Z</time></trkpt><trkpt lat="44.71331196448289" lon="9.866564350977546"><ele>542.5</ele><time>2026-03-29T14:22:01Z</time></trkpt><trkpt lat="44.713194076172066" lon="9.86651805785004"><ele>538.75</ele><time>2026-03-29T14:22:02Z</time></trkpt><trkpt lat="44.71307505704877" lon="9.86647463674193"><ele>535.0</ele><time>2026-03-29T14:22:03Z</time></trkpt><trkpt lat="44.712956005002674" lon="9.866428191568449"><ele>535.0</ele><time>2026-03-29T14:22:04Z</time></trkpt><trkpt lat="44.712842110235385" lon="9.866397714677548"><ele>535.0</ele><time>2026-03-29T14:22:05Z</time></trkpt><trkpt lat="44.71274079270687" lon="9.866351026076261"><ele>535.0</ele><time>2026-03-29T14:22:06Z</time></trkpt><trkpt lat="44.712651051412074" lon="9.86631801518755"><ele>535.0</ele><time>2026-03-29T14:22:07Z</time></trkpt><trkpt lat="44.712570534568435" lon="9.8663056898359"><ele>535.0</ele><time>2026-03-29T14:22:08Z</time></trkpt><trkpt lat="44.71248656823422" lon="9.866322707575133"><ele>531.8</ele><time>2026-03-29T14:22:09Z</time></trkpt><trkpt lat="44.712396713073815" lon="9.866382677935823"><ele>528.6</ele><time>2026-03-29T14:22:10Z</time></trkpt><trkpt lat="44.71232416152942" lon="9.866485917228015"><ele>525.4</ele><time>2026-03-29T14:22:11Z</time></trkpt><trkpt lat="44.7122798001174" lon="9.866610091001565"><ele>522.2</ele><time>2026-03-29T14:22:12Z</time></trkpt><trkpt lat="44.712243409728586" lon="9.866722890614428"><ele>519.0</ele><time>2026-03-29T14:22:13Z</time></trkpt><trkpt lat="44.71218962109441" lon="9.866796368487638"><ele>519.0</ele><time>2026-03-29T14:22:14Z</time></trkpt><trkpt lat="44.71211920424109" lon="9.866827288686885"><ele>519.0</ele><time>2026-03-29T14:22:15Z</time></trkpt><trkpt lat="44.712049813800924" lon="9.866778916342781"><ele>519.0</ele><time>2026-03-29T14:22:16Z</time></trkpt><trkpt lat="44.71199477659335" lon="9.866725412962985"><ele>519.0</ele><time>2026-03-29T14:22:17Z</time></trkpt><trkpt lat="44.71197699438283" lon="9.866601698850673"><ele>519.0</ele><time>2026-03-29T14:22:18Z</time></trkpt><trkpt lat="44.712027284748544" lon="9.866466087434947"><ele>519.0</ele><time>2026-03-29T14:22:19Z</time></trkpt><trkpt lat="44.71208965760233" lon="9.866326380320553"><ele>519.0</ele><time>2026-03-29T14:22:20Z</time></trkpt><trkpt lat="44.712148121030474" lon="9.866158428275817"><ele>519.0</ele><time>2026-03-29T14:22:21Z</time></trkpt><trkpt lat="44.71220099383523" lon="9.86599984408758"><ele>519.0</ele><time>2026-03-29T14:22:22Z</time></trkpt><trkpt lat="44.712240143198855" lon="9.865849839471686"><ele>519.0</ele><time>2026-03-29T14:22:23Z</time></trkpt><trkpt lat="44.71224211197785" lon="9.865719468006269"><ele>517.8</ele><time>2026-03-29T14:22:24Z</time></trkpt><trkpt lat="44.712228680958624" lon="9.865621793005891"><ele>516.5999999999999</ele><time>2026-03-29T14:22:25Z</time></trkpt><trkpt lat="44.71220507575628" lon="9.865529509102712"><ele>515.4</ele><time>2026-03-29T14:22:26Z</time></trkpt><trkpt lat="44.71211660643135" lon="9.86548384500457"><ele>514.1999999999999</ele><time>2026-03-29T14:22:27Z</time></trkpt><trkpt lat="44.712002909567765" lon="9.865522386513044"><ele>513.0</ele><time>2026-03-29T14:22:28Z</time></trkpt><trkpt lat="44.71191156723947" lon="9.865655290440511"><ele>510.5</ele><time>2026-03-29T14:22:29Z</time></trkpt><trkpt lat="44.71182372380251" lon="9.86581077777538"><ele>508.0</ele><time>2026-03-29T14:22:30Z</time></trkpt><trkpt lat="44.71173164502956" lon="9.865961931961081"><ele>505.5</ele><time>2026-03-29T14:22:31Z</time></trkpt><trkpt lat="44.71163460728316" lon="9.866093237809787"><ele>503.0</ele><time>2026-03-29T14:22:32Z</time></trkpt><trkpt lat="44.71155259081636" lon="9.86621738120917"><ele>503.0</ele><time>2026-03-29T14:22:33Z</time></trkpt><trkpt lat="44.71149372142214" lon="9.866353070059915"><ele>503.0</ele><time>2026-03-29T14:22:34Z</time></trkpt><trkpt lat="44.71147075485625" lon="9.866524663483636"><ele>503.0</ele><time>2026-03-29T14:22:35Z</time></trkpt><trkpt lat="44.711474960454886" lon="9.866731489393182"><ele>503.0</ele><time>2026-03-29T14:22:36Z</time></trkpt><trkpt lat="44.71147596030396" lon="9.866945087158976"><ele>502.0</ele><time>2026-03-29T14:22:37Z</time></trkpt><trkpt lat="44.71145987664572" lon="9.867126635225924"><ele>501.0</ele><time>2026-03-29T14:22:38Z</time></trkpt><trkpt lat="44.71142902218753" lon="9.867276744960762"><ele>500.0</ele><time>2026-03-29T14:22:39Z</time></trkpt><trkpt lat="44.71137112115345" lon="9.867400199780313"><ele>499.0</ele><time>2026-03-29T14:22:40Z</time></trkpt><trkpt lat="44.711302537187464" lon="9.867510808127008"><ele>499.00000000000006</ele><time>2026-03-29T14:22:41Z</time></trkpt><trkpt lat="44.711222916673194" lon="9.867594640016996"><ele>499.0</ele><time>2026-03-29T14:22:42Z</time></trkpt><trkpt lat="44.71114980610222" lon="9.86764508300107"><ele>499.0</ele><time>2026-03-29T14:22:43Z</time></trkpt><trkpt lat="44.711085238557196" lon="9.867680801543422"><ele>499.0</ele><time>2026-03-29T14:22:44Z</time></trkpt><trkpt lat="44.71101829726876" lon="9.867665179710752"><ele>499.00000000000006</ele><time>2026-03-29T14:22:45Z</time></trkpt><trkpt lat="44.71097118173034" lon="9.867595180329923"><ele>499.0</ele><time>2026-03-29T14:22:46Z</time></trkpt><trkpt lat="44.71096809224992" lon="9.867450895133983"><ele>495.5</ele><time>2026-03-29T14:22:47Z</time></trkpt><trkpt lat="44.71091448140186" lon="9.867290511834629"><ele>492.0</ele><time>2026-03-29T14:22:48Z</time></trkpt><trkpt lat="44.71087709676653" lon="9.86709588905233"><ele>488.5</ele><time>2026-03-29T14:22:49Z</time></trkpt><trkpt lat="44.71082985281995" lon="9.866897832812644"><ele>485.0</ele><time>2026-03-29T14:22:50Z</time></trkpt><trkpt lat="44.71080443421627" lon="9.866707200882484"><ele>485.0</ele><time>2026-03-29T14:22:51Z</time></trkpt><trkpt lat="44.71079794648183" lon="9.86651851557288"><ele>485.0</ele><time>2026-03-29T14:22:52Z</time></trkpt><trkpt lat="44.71079229357049" lon="9.866333196900456"><ele>485.0</ele><time>2026-03-29T14:22:53Z</time></trkpt><trkpt lat="44.71080159925972" lon="9.866161873605265"><ele>485.0</ele><time>2026-03-29T14:22:54Z</time></trkpt><trkpt lat="44.71079075009532" lon="9.865989589292507"><ele>484.6</ele><time>2026-03-29T14:22:55Z</time></trkpt><trkpt lat="44.710762670225364" lon="9.865857381548988"><ele>484.2</ele><time>2026-03-29T14:22:56Z</time></trkpt><trkpt lat="44.710706452076664" lon="9.865754187979098"><ele>483.79999999999995</ele><time>2026-03-29T14:22:57Z</time></trkpt><trkpt lat="44.71062382683599" lon="9.86569843187488"><ele>483.4</ele><time>2026-03-29T14:22:58Z</time></trkpt><trkpt lat="44.710527666275794" lon="9.865667595617364"><ele>483.0</ele><time>2026-03-29T14:22:59Z</time></trkpt><trkpt lat="44.71043048155775" lon="9.86575688045223"><ele>483.0</ele><time>2026-03-29T14:23:00Z</time></trkpt><trkpt lat="44.710363596218464" lon="9.865872642603097"><ele>483.0</ele><time>2026-03-29T14:23:01Z</time></trkpt><trkpt lat="44.71030941389561" lon="9.866029996639131"><ele>483.0</ele><time>2026-03-29T14:23:02Z</time></trkpt><trkpt lat="44.71025363713958" lon="9.866209324418396"><ele>483.0</ele><time>2026-03-29T14:23:03Z</time></trkpt><trkpt lat="44.71019201048269" lon="9.86639654891367"><ele>478.75</ele><time>2026-03-29T14:23:04Z</time></trkpt><trkpt lat="44.71013448687341" lon="9.866581887900463"><ele>474.5</ele><time>2026-03-29T14:23:05Z</time></trkpt><trkpt lat="44.7100879374091" lon="9.866760113796438"><ele>470.25</ele><time>2026-03-29T14:23:06Z</time></trkpt><trkpt lat="44.710059507076906" lon="9.866956447204688"><ele>466.0</ele><time>2026-03-29T14:23:07Z</time></trkpt><trkpt lat="44.71003181050162" lon="9.86715572442861"><ele>465.8</ele><time>2026-03-29T14:23:08Z</time></trkpt><trkpt lat="44.71000463822967" lon="9.867336819471399"><ele>465.6</ele><time>2026-03-29T14:23:09Z</time></trkpt><trkpt lat="44.70999113286505" lon="9.86749611536787"><ele>465.4</ele><time>2026-03-29T14:23:10Z</time></trkpt><trkpt lat="44.709966526178476" lon="9.867616595748261"><ele>465.2</ele><time>2026-03-29T14:23:11Z</time></trkpt><trkpt lat="44.70994212135155" lon="9.86770110836903"><ele>465.0</ele><time>2026-03-29T14:23:12Z</time></trkpt><trkpt lat="44.70990302607475" lon="9.86778243511124"><ele>465.0</ele><time>2026-03-29T14:23:13Z</time></trkpt><trkpt lat="44.70984616940519" lon="9.867859050489136"><ele>465.0</ele><time>2026-03-29T14:23:14Z</time></trkpt><trkpt lat="44.70976551834129" lon="9.867878534984037"><ele>465.0</ele><time>2026-03-29T14:23:15Z</time></trkpt><trkpt lat="44.709679818845984" lon="9.867831709242063"><ele>465.0</ele><time>2026-03-29T14:23:16Z</time></trkpt><trkpt lat="44.70962198834961" lon="9.86772108689717"><ele>465.0</ele><time>2026-03-29T14:23:17Z</time></trkpt><trkpt lat="44.709585532935535" lon="9.867590032359395"><ele>465.0</ele><time>2026-03-29T14:23:18Z</time></trkpt><trkpt lat="44.70953070979662" lon="9.867432914116124"><ele>465.0</ele><time>2026-03-29T14:23:19Z</time></trkpt><trkpt lat="44.70947902342942" lon="9.86727226092068"><ele>465.0</ele><time>2026-03-29T14:23:20Z</time></trkpt><trkpt lat="44.70942596517569" lon="9.867110141344229"><ele>465.0</ele><time>2026-03-29T14:23:21Z</time></trkpt><trkpt lat="44.70937220300778" lon="9.866965453772508"><ele>461.25</ele><time>2026-03-29T14:23:22Z</time></trkpt><trkpt lat="44.70930416532825" lon="9.866816240930673"><ele>457.5</ele><time>2026-03-29T14:23:23Z</time></trkpt><trkpt lat="44.70920994311962" lon="9.866709995197848"><ele>453.75</ele><time>2026-03-29T14:23:24Z</time></trkpt><trkpt lat="44.70907911735648" lon="9.866667541387548"><ele>450.0</ele><time>2026-03-29T14:23:25Z</time></trkpt><trkpt lat="44.70896324418483" lon="9.866611047714528"><ele>450.0</ele><time>2026-03-29T14:23:26Z</time></trkpt><trkpt lat="44.70887439452073" lon="9.866511464368559"><ele>450.0</ele><time>2026-03-29T14:23:27Z</time></trkpt><trkpt lat="44.70879972556975" lon="9.866421187101816"><ele>450.0</ele><time>2026-03-29T14:23:28Z</time></trkpt><trkpt lat="44.70873619927287" lon="9.866332721299768"><ele>450.0</ele><time>2026-03-29T14:23:29Z</time></trkpt><trkpt lat="44.70867774699956" lon="9.86626927332635"><ele>450.0</ele><time>2026-03-29T14:23:30Z</time></trkpt><trkpt lat="44.70864642943154" lon="9.866185760708763"><ele>450.0</ele><time>2026-03-29T14:23:31Z</time></trkpt><trkpt lat="44.708568314213" lon="9.86617635756294"><ele>447.0</ele><time>2026-03-29T14:23:32Z</time></trkpt><trkpt lat="44.70849900603594" lon="9.866175454522143"><ele>444.0</ele><time>2026-03-29T14:23:33Z</time></trkpt><trkpt lat="44.70844217623957" lon="9.86627677143657"><ele>441.0</ele><time>2026-03-29T14:23:34Z</time></trkpt><trkpt lat="44.70845196413402" lon="9.8664288981334"><ele>438.0</ele><time>2026-03-29T14:23:35Z</time></trkpt><trkpt lat="44.70848523313651" lon="9.866564765461476"><ele>435.0</ele><time>2026-03-29T14:23:36Z</time></trkpt><trkpt lat="44.70854262760195" lon="9.866703156779009"><ele>434.1666666666667</ele><time>2026-03-29T14:23:37Z</time></trkpt><trkpt lat="44.70859567213229" lon="9.866823097738589"><ele>433.33333333333337</ele><time>2026-03-29T14:23:38Z</time></trkpt><trkpt lat="44.70861540340123" lon="9.866933231763914"><ele>432.5</ele><time>2026-03-29T14:23:39Z</time></trkpt><trkpt lat="44.708629304179155" lon="9.867020155952172"><ele>431.6666666666667</ele><time>2026-03-29T14:23:40Z</time></trkpt><trkpt lat="44.70860199850394" lon="9.867170038419397"><ele>430.83333333333337</ele><time>2026-03-29T14:23:42Z</time></trkpt><trkpt lat="44.70853904838527" lon="9.867210842242645"><ele>430.0</ele><time>2026-03-29T14:23:43Z</time></trkpt><trkpt lat="44.708466067423" lon="9.867195027857022"><ele>430.0</ele><time>2026-03-29T14:23:44Z</time></trkpt><trkpt lat="44.70840927389454" lon="9.86707599594884"><ele>430.0</ele><time>2026-03-29T14:23:45Z</time></trkpt><trkpt lat="44.70832929988846" lon="9.866947416720684"><ele>430.0</ele><time>2026-03-29T14:23:46Z</time></trkpt><trkpt lat="44.70823206016424" lon="9.866836421174652"><ele>430.0</ele><time>2026-03-29T14:23:47Z</time></trkpt><trkpt lat="44.708137682628276" lon="9.866724109209738"><ele>431.25</ele><time>2026-03-29T14:23:48Z</time></trkpt><trkpt lat="44.708023120368686" lon="9.866645757226786"><ele>432.5</ele><time>2026-03-29T14:23:49Z</time></trkpt><trkpt lat="44.70791959294496" lon="9.866547131078905"><ele>433.75</ele><time>2026-03-29T14:23:50Z</time></trkpt><trkpt lat="44.70782402253022" lon="9.866471515919212"><ele>435.0</ele><time>2026-03-29T14:23:51Z</time></trkpt><trkpt lat="44.70772968813262" lon="9.866385867259085"><ele>431.8</ele><time>2026-03-29T14:23:52Z</time></trkpt><trkpt lat="44.70764801361859" lon="9.866296018264823"><ele>428.6</ele><time>2026-03-29T14:23:53Z</time></trkpt><trkpt lat="44.7075829464304" lon="9.866209723317642"><ele>425.4</ele><time>2026-03-29T14:23:54Z</time></trkpt><trkpt lat="44.70755797364828" lon="9.866076794941534"><ele>422.2</ele><time>2026-03-29T14:23:55Z</time></trkpt><trkpt lat="44.70756122191669" lon="9.865917165974615"><ele>419.0</ele><time>2026-03-29T14:23:56Z</time></trkpt><trkpt lat="44.7075938575676" lon="9.865735107472142"><ele>419.0</ele><time>2026-03-29T14:23:57Z</time></trkpt><trkpt lat="44.707637919201225" lon="9.86553933441495"><ele>419.0</ele><time>2026-03-29T14:23:58Z</time></trkpt><trkpt lat="44.70767821488352" lon="9.865346071836017"><ele>419.0</ele><time>2026-03-29T14:23:59Z</time></trkpt><trkpt lat="44.70771485769057" lon="9.865173842825548"><ele>419.0</ele><time>2026-03-29T14:24:00Z</time></trkpt><trkpt lat="44.70774694690197" lon="9.8650291284469"><ele>417.6</ele><time>2026-03-29T14:24:01Z</time></trkpt><trkpt lat="44.7077774226823" lon="9.864902623936935"><ele>416.2</ele><time>2026-03-29T14:24:02Z</time></trkpt><trkpt lat="44.70780424626356" lon="9.864799844826068"><ele>414.8</ele><time>2026-03-29T14:24:03Z</time></trkpt><trkpt lat="44.70781299483732" lon="9.864653588772933"><ele>413.40000000000003</ele><time>2026-03-29T14:24:05Z</time></trkpt><trkpt lat="44.70771551444868" lon="9.864520740211969"><ele>412.0</ele><time>2026-03-29T14:24:07Z</time></trkpt><trkpt lat="44.70760021863563" lon="9.864579040444449"><ele>412.0</ele><time>2026-03-29T14:24:08Z</time></trkpt><trkpt lat="44.70753022414942" lon="9.864719692090093"><ele>412.0</ele><time>2026-03-29T14:24:09Z</time></trkpt><trkpt lat="44.7074532566328" lon="9.864866558402937"><ele>412.0</ele><time>2026-03-29T14:24:10Z</time></trkpt><trkpt lat="44.70736153231245" lon="9.865016208100563"><ele>412.0</ele><time>2026-03-29T14:24:11Z</time></trkpt><trkpt lat="44.7072643451919" lon="9.86517074433941"><ele>413.75</ele><time>2026-03-29T14:24:12Z</time></trkpt><trkpt lat="44.707174317172054" lon="9.865311470042862"><ele>415.5</ele><time>2026-03-29T14:24:13Z</time></trkpt><trkpt lat="44.707087688796115" lon="9.865444234391392"><ele>417.25</ele><time>2026-03-29T14:24:14Z</time></trkpt><trkpt lat="44.70699961788609" lon="9.865578457540325"><ele>419.0</ele><time>2026-03-29T14:24:15Z</time></trkpt><trkpt lat="44.706912794813604" lon="9.865704951942353"><ele>416.0</ele><time>2026-03-29T14:24:16Z</time></trkpt><trkpt lat="44.70683271320924" lon="9.86581794637349"><ele>413.0</ele><time>2026-03-29T14:24:17Z</time></trkpt><trkpt lat="44.706765392536845" lon="9.865915969238737"><ele>410.0</ele><time>2026-03-29T14:24:18Z</time></trkpt><trkpt lat="44.70671443086642" lon="9.86601261209549"><ele>407.0</ele><time>2026-03-29T14:24:19Z</time></trkpt><trkpt lat="44.7066983398045" lon="9.8661136593676"><ele>404.0</ele><time>2026-03-29T14:24:20Z</time></trkpt><trkpt lat="44.70671950528761" lon="9.866254305394444"><ele>403.25</ele><time>2026-03-29T14:24:21Z</time></trkpt><trkpt lat="44.70677306474517" lon="9.866419043343697"><ele>402.5</ele><time>2026-03-29T14:24:22Z</time></trkpt><trkpt lat="44.70681944340733" lon="9.866586701212166"><ele>401.75</ele><time>2026-03-29T14:24:23Z</time></trkpt><trkpt lat="44.706849894198335" lon="9.866748261861707"><ele>401.0</ele><time>2026-03-29T14:24:24Z</time></trkpt><trkpt lat="44.706882424831846" lon="9.86689252101063"><ele>399.75</ele><time>2026-03-29T14:24:25Z</time></trkpt><trkpt lat="44.70689576692929" lon="9.867034998007757"><ele>398.5</ele><time>2026-03-29T14:24:26Z</time></trkpt><trkpt lat="44.706870614757115" lon="9.867177892474757"><ele>397.25</ele><time>2026-03-29T14:24:27Z</time></trkpt><trkpt lat="44.706777607128735" lon="9.867284529756342"><ele>396.0</ele><time>2026-03-29T14:24:28Z</time></trkpt><trkpt lat="44.706688724811215" lon="9.867420086524184"><ele>396.0</ele><time>2026-03-29T14:24:29Z</time></trkpt><trkpt lat="44.706591218307445" lon="9.867542787305483"><ele>396.0</ele><time>2026-03-29T14:24:30Z</time></trkpt><trkpt lat="44.70652112548652" lon="9.86769278263248"><ele>396.0</ele><time>2026-03-29T14:24:31Z</time></trkpt><trkpt lat="44.70648693171431" lon="9.867876252172557"><ele>396.0</ele><time>2026-03-29T14:24:32Z</time></trkpt><trkpt lat="44.70648384698302" lon="9.86808562899769"><ele>395.75</ele><time>2026-03-29T14:24:33Z</time></trkpt><trkpt lat="44.706493291058784" lon="9.868281680657267"><ele>395.5</ele><time>2026-03-29T14:24:34Z</time></trkpt><trkpt lat="44.70649086954296" lon="9.868459405092135"><ele>395.25</ele><time>2026-03-29T14:24:35Z</time></trkpt><trkpt lat="44.70646613528333" lon="9.868587291708096"><ele>395.0</ele><time>2026-03-29T14:24:36Z</time></trkpt><trkpt lat="44.70640684230068" lon="9.868687170932178"><ele>395.0</ele><time>2026-03-29T14:24:37Z</time></trkpt><trkpt lat="44.706304032846944" lon="9.868715761674501"><ele>395.0</ele><time>2026-03-29T14:24:38Z</time></trkpt><trkpt lat="44.70620676110896" lon="9.86878343813751"><ele>395.0</ele><time>2026-03-29T14:24:39Z</time></trkpt><trkpt lat="44.706117827506795" lon="9.868888621724386"><ele>395.0</ele><time>2026-03-29T14:24:40Z</time></trkpt><trkpt lat="44.706028518878504" lon="9.869018997663794"><ele>393.25</ele><time>2026-03-29T14:24:41Z</time></trkpt><trkpt lat="44.70595679120283" lon="9.869173721517225"><ele>391.5</ele><time>2026-03-29T14:24:42Z</time></trkpt><trkpt lat="44.70589511917005" lon="9.869323798090116"><ele>389.75</ele><time>2026-03-29T14:24:43Z</time></trkpt><trkpt lat="44.705822147745025" lon="9.869454474750732"><ele>388.0</ele><time>2026-03-29T14:24:44Z</time></trkpt><trkpt lat="44.70570946620665" lon="9.869515775042418"><ele>388.0</ele><time>2026-03-29T14:24:45Z</time></trkpt><trkpt lat="44.705585041891844" lon="9.869589285248733"><ele>388.0</ele><time>2026-03-29T14:24:46Z</time></trkpt><trkpt lat="44.70544660309312" lon="9.869669557135868"><ele>388.0</ele><time>2026-03-29T14:24:47Z</time></trkpt><trkpt lat="44.70531516216333" lon="9.869768919944326"><ele>388.0</ele><time>2026-03-29T14:24:48Z</time></trkpt><trkpt lat="44.70518604642293" lon="9.869847643219416"><ele>385.5</ele><time>2026-03-29T14:24:49Z</time></trkpt><trkpt lat="44.7050589712211" lon="9.869918825548833"><ele>383.0</ele><time>2026-03-29T14:24:50Z</time></trkpt><trkpt lat="44.70493884337665" lon="9.869989110990973"><ele>380.5</ele><time>2026-03-29T14:24:51Z</time></trkpt><trkpt lat="44.70482464468796" lon="9.870054593414409"><ele>378.0</ele><time>2026-03-29T14:24:52Z</time></trkpt><trkpt lat="44.704714776225416" lon="9.87011271766625"><ele>378.0</ele><time>2026-03-29T14:24:53Z</time></trkpt><trkpt lat="44.70460987753885" lon="9.87016714772379"><ele>378.0</ele><time>2026-03-29T14:24:54Z</time></trkpt><trkpt lat="44.70451272436258" lon="9.870224391158198"><ele>378.0</ele><time>2026-03-29T14:24:55Z</time></trkpt><trkpt lat="44.70441901766721" lon="9.870311016306392"><ele>378.0</ele><time>2026-03-29T14:24:56Z</time></trkpt><trkpt lat="44.704324130245034" lon="9.8704252363653"><ele>373.75</ele><time>2026-03-29T14:24:57Z</time></trkpt><trkpt lat="44.704231887222484" lon="9.870551939327932"><ele>369.5</ele><time>2026-03-29T14:24:58Z</time></trkpt><trkpt lat="44.70413965354695" lon="9.870680935606073"><ele>365.25</ele><time>2026-03-29T14:24:59Z</time></trkpt><trkpt lat="44.704038209232365" lon="9.87081765226833"><ele>361.0</ele><time>2026-03-29T14:25:00Z</time></trkpt><trkpt lat="44.70393454527958" lon="9.870946529027044"><ele>361.0</ele><time>2026-03-29T14:25:01Z</time></trkpt><trkpt lat="44.70383314561393" lon="9.871079714723937"><ele>361.0</ele><time>2026-03-29T14:25:02Z</time></trkpt><trkpt lat="44.70373515427449" lon="9.871216880437434"><ele>361.0</ele><time>2026-03-29T14:25:03Z</time></trkpt><trkpt lat="44.70363911243016" lon="9.87134411976534"><ele>361.0</ele><time>2026-03-29T14:25:04Z</time></trkpt><trkpt lat="44.70355026864148" lon="9.8714650266257"><ele>358.6</ele><time>2026-03-29T14:25:05Z</time></trkpt><trkpt lat="44.703472852695086" lon="9.871568918959703"><ele>356.20000000000005</ele><time>2026-03-29T14:25:06Z</time></trkpt><trkpt lat="44.703406319787526" lon="9.871652520620183"><ele>353.79999999999995</ele><time>2026-03-29T14:25:07Z</time></trkpt><trkpt lat="44.703334016950784" lon="9.871716779293465"><ele>351.4</ele><time>2026-03-29T14:25:08Z</time></trkpt><trkpt lat="44.70323808281004" lon="9.871738481269128"><ele>349.0</ele><time>2026-03-29T14:25:09Z</time></trkpt><trkpt lat="44.70312353953566" lon="9.871706130586325"><ele>349.0</ele><time>2026-03-29T14:25:10Z</time></trkpt><trkpt lat="44.70302514727122" lon="9.871600838282886"><ele>349.0</ele><time>2026-03-29T14:25:11Z</time></trkpt><trkpt lat="44.70291905752687" lon="9.871524256986635"><ele>349.0</ele><time>2026-03-29T14:25:12Z</time></trkpt><trkpt lat="44.702821359203654" lon="9.871472831770797"><ele>349.0</ele><time>2026-03-29T14:25:13Z</time></trkpt><trkpt lat="44.70274129761011" lon="9.871413448223647"><ele>349.0</ele><time>2026-03-29T14:25:14Z</time></trkpt><trkpt lat="44.7026680163846" lon="9.871378184967474"><ele>346.8333333333333</ele><time>2026-03-29T14:25:15Z</time></trkpt><trkpt lat="44.702602481752756" lon="9.871377737796484"><ele>344.66666666666663</ele><time>2026-03-29T14:25:16Z</time></trkpt><trkpt lat="44.7025480047789" lon="9.871430076410808"><ele>342.5</ele><time>2026-03-29T14:25:17Z</time></trkpt><trkpt lat="44.702513001351974" lon="9.871511939342765"><ele>340.3333333333333</ele><time>2026-03-29T14:25:18Z</time></trkpt><trkpt lat="44.70251917287093" lon="9.871624491320445"><ele>338.1666666666667</ele><time>2026-03-29T14:25:19Z</time></trkpt><trkpt lat="44.70257453912203" lon="9.871749816005005"><ele>336.0</ele><time>2026-03-29T14:25:20Z</time></trkpt><trkpt lat="44.702658494611605" lon="9.871865401257267"><ele>334.0</ele><time>2026-03-29T14:25:21Z</time></trkpt><trkpt lat="44.70272385017946" lon="9.87201071767407"><ele>332.0</ele><time>2026-03-29T14:25:22Z</time></trkpt><trkpt lat="44.702771557046404" lon="9.872160913248102"><ele>330.0</ele><time>2026-03-29T14:25:23Z</time></trkpt><trkpt lat="44.70275220653618" lon="9.8723395426996"><ele>328.0</ele><time>2026-03-29T14:25:24Z</time></trkpt><trkpt lat="44.702680432917774" lon="9.872487770967044"><ele>327.4</ele><time>2026-03-29T14:25:25Z</time></trkpt><trkpt lat="44.702631694153744" lon="9.87263426687684"><ele>326.79999999999995</ele><time>2026-03-29T14:25:26Z</time></trkpt><trkpt lat="44.70258175817495" lon="9.87274763650072"><ele>326.2</ele><time>2026-03-29T14:25:27Z</time></trkpt><trkpt lat="44.702554838586934" lon="9.872858014525388"><ele>325.6</ele><time>2026-03-29T14:25:28Z</time></trkpt><trkpt lat="44.70257415612948" lon="9.87301701266441"><ele>325.0</ele><time>2026-03-29T14:25:29Z</time></trkpt><trkpt lat="44.70263206121378" lon="9.873170120386275"><ele>325.0</ele><time>2026-03-29T14:25:30Z</time></trkpt><trkpt lat="44.702700868364595" lon="9.873299910147361"><ele>325.0</ele><time>2026-03-29T14:25:31Z</time></trkpt><trkpt lat="44.702753494117346" lon="9.873410181340217"><ele>325.0</ele><time>2026-03-29T14:25:32Z</time></trkpt><trkpt lat="44.70277999329077" lon="9.873527356767921"><ele>325.0</ele><time>2026-03-29T14:25:33Z</time></trkpt><trkpt lat="44.70277748112722" lon="9.873648578003827"><ele>325.0</ele><time>2026-03-29T14:25:34Z</time></trkpt><trkpt lat="44.70274675907753" lon="9.873770509007414"><ele>324.4</ele><time>2026-03-29T14:25:35Z</time></trkpt><trkpt lat="44.70268217256853" lon="9.873872333941527"><ele>323.8</ele><time>2026-03-29T14:25:36Z</time></trkpt><trkpt lat="44.7025766213807" lon="9.873943852590315"><ele>323.20000000000005</ele><time>2026-03-29T14:25:37Z</time></trkpt><trkpt lat="44.70249203235735" lon="9.874087273175805"><ele>322.6</ele><time>2026-03-29T14:25:38Z</time></trkpt><trkpt lat="44.702418540191886" lon="9.87417694472748"><ele>322.0</ele><time>2026-03-29T14:25:39Z</time></trkpt><trkpt lat="44.702332958171056" lon="9.87424460751414"><ele>322.0</ele><time>2026-03-29T14:25:40Z</time></trkpt><trkpt lat="44.702239276801976" lon="9.874285558225269"><ele>322.0</ele><time>2026-03-29T14:25:41Z</time></trkpt><trkpt lat="44.70214261893031" lon="9.874248147245305"><ele>322.0</ele><time>2026-03-29T14:25:42Z</time></trkpt><trkpt lat="44.70206474024981" lon="9.87421012970565"><ele>322.0</ele><time>2026-03-29T14:25:43Z</time></trkpt><trkpt lat="44.702017263076726" lon="9.874126083846582"><ele>322.0</ele><time>2026-03-29T14:25:44Z</time></trkpt><trkpt lat="44.70200753104105" lon="9.874005147992376"><ele>322.0</ele><time>2026-03-29T14:25:45Z</time></trkpt><trkpt lat="44.702024394685104" lon="9.873847506529087"><ele>322.0</ele><time>2026-03-29T14:25:46Z</time></trkpt><trkpt lat="44.7020397275529" lon="9.873677409984715"><ele>322.0</ele><time>2026-03-29T14:25:47Z</time></trkpt><trkpt lat="44.70204537554848" lon="9.873508626933825"><ele>322.0</ele><time>2026-03-29T14:25:48Z</time></trkpt><trkpt lat="44.702050787375946" lon="9.873392047350576"><ele>322.0</ele><time>2026-03-29T14:25:49Z</time></trkpt><trkpt lat="44.7020385828409" lon="9.873281361692202"><ele>322.0</ele><time>2026-03-29T14:25:50Z</time></trkpt><trkpt lat="44.70199537494499" lon="9.873186770724985"><ele>320.20000000000005</ele><time>2026-03-29T14:25:51Z</time></trkpt><trkpt lat="44.70190061827166" lon="9.873125675016245"><ele>318.40000000000003</ele><time>2026-03-29T14:25:52Z</time></trkpt><trkpt lat="44.70180582691018" lon="9.873075977285216"><ele>316.6</ele><time>2026-03-29T14:25:53Z</time></trkpt><trkpt lat="44.70173198487414" lon="9.872974249327742"><ele>314.8</ele><time>2026-03-29T14:25:54Z</time></trkpt><trkpt lat="44.70169840384566" lon="9.872807022484757"><ele>313.0</ele><time>2026-03-29T14:25:55Z</time></trkpt><trkpt lat="44.70171169688108" lon="9.872631236275565"><ele>312.6</ele><time>2026-03-29T14:25:56Z</time></trkpt><trkpt lat="44.701715054011274" lon="9.87248346648571"><ele>312.20000000000005</ele><time>2026-03-29T14:25:57Z</time></trkpt><trkpt lat="44.70172100546861" lon="9.872382440929142"><ele>311.8</ele><time>2026-03-29T14:25:58Z</time></trkpt><trkpt lat="44.70175097936913" lon="9.872211611530926"><ele>311.40000000000003</ele><time>2026-03-29T14:26:00Z</time></trkpt><trkpt lat="44.70170688488756" lon="9.872106268362629"><ele>311.0</ele><time>2026-03-29T14:26:02Z</time></trkpt><trkpt lat="44.701633445547486" lon="9.872105680973004"><ele>311.0</ele><time>2026-03-29T14:26:04Z</time></trkpt><trkpt lat="44.70155554296219" lon="9.872238599805389"><ele>311.0</ele><time>2026-03-29T14:26:06Z</time></trkpt><trkpt lat="44.701532574736106" lon="9.872368394543628"><ele>311.0</ele><time>2026-03-29T14:26:07Z</time></trkpt><trkpt lat="44.70150075928186" lon="9.872514362235721"><ele>311.0</ele><time>2026-03-29T14:26:08Z</time></trkpt><trkpt lat="44.70145895504411" lon="9.87268114067181"><ele>311.5</ele><time>2026-03-29T14:26:09Z</time></trkpt><trkpt lat="44.7014129980174" lon="9.872864486670414"><ele>312.0</ele><time>2026-03-29T14:26:10Z</time></trkpt><trkpt lat="44.70136205445732" lon="9.873066396821816"><ele>312.5</ele><time>2026-03-29T14:26:11Z</time></trkpt><trkpt lat="44.70131238647275" lon="9.87326279325157"><ele>313.0</ele><time>2026-03-29T14:26:12Z</time></trkpt><trkpt lat="44.70128273089999" lon="9.873447853411133"><ele>313.25</ele><time>2026-03-29T14:26:13Z</time></trkpt><trkpt lat="44.70123789850704" lon="9.873610275071668"><ele>313.5</ele><time>2026-03-29T14:26:14Z</time></trkpt><trkpt lat="44.701193341072475" lon="9.873778625113555"><ele>313.75</ele><time>2026-03-29T14:26:15Z</time></trkpt><trkpt lat="44.701153050612646" lon="9.873953269031842"><ele>314.0</ele><time>2026-03-29T14:26:16Z</time></trkpt><trkpt lat="44.701108984777115" lon="9.874128976507684"><ele>310.5</ele><time>2026-03-29T14:26:17Z</time></trkpt><trkpt lat="44.70106083419414" lon="9.874301321654563"><ele>307.0</ele><time>2026-03-29T14:26:18Z</time></trkpt><trkpt lat="44.701019152252535" lon="9.874477914245634"><ele>303.5</ele><time>2026-03-29T14:26:19Z</time></trkpt><trkpt lat="44.70097917570908" lon="9.874653204852823"><ele>300.0</ele><time>2026-03-29T14:26:20Z</time></trkpt><trkpt lat="44.700928632388035" lon="9.874813671671093"><ele>300.0</ele><time>2026-03-29T14:26:21Z</time></trkpt><trkpt lat="44.70086432484482" lon="9.87496847131971"><ele>300.0</ele><time>2026-03-29T14:26:22Z</time></trkpt><trkpt lat="44.70078751793232" lon="9.875122446523372"><ele>300.0</ele><time>2026-03-29T14:26:23Z</time></trkpt><trkpt lat="44.700692763105046" lon="9.87528724202805"><ele>300.0</ele><time>2026-03-29T14:26:24Z</time></trkpt><trkpt lat="44.700585481662344" lon="9.875459322396441"><ele>300.6666666666667</ele><time>2026-03-29T14:26:25Z</time></trkpt><trkpt lat="44.700469718447195" lon="9.875646644315125"><ele>301.33333333333337</ele><time>2026-03-29T14:26:26Z</time></trkpt><trkpt lat="44.70035673988158" lon="9.875841637224164"><ele>302.0</ele><time>2026-03-29T14:26:27Z</time></trkpt><trkpt lat="44.70024939355806" lon="9.876016960453715"><ele>301.0</ele><time>2026-03-29T14:26:28Z</time></trkpt><trkpt lat="44.70014851308855" lon="9.876174656599515"><ele>300.0</ele><time>2026-03-29T14:26:29Z</time></trkpt><trkpt lat="44.700056058514676" lon="9.876320624671903"><ele>299.0</ele><time>2026-03-29T14:26:30Z</time></trkpt><trkpt lat="44.699967997339485" lon="9.876467626847932"><ele>298.0</ele><time>2026-03-29T14:26:31Z</time></trkpt><trkpt lat="44.699879189107556" lon="9.876614013221502"><ele>298.0</ele><time>2026-03-29T14:26:32Z</time></trkpt><trkpt lat="44.69979318451311" lon="9.876748923200052"><ele>298.0</ele><time>2026-03-29T14:26:33Z</time></trkpt><trkpt lat="44.699708314709724" lon="9.87688931777867"><ele>298.0</ele><time>2026-03-29T14:26:34Z</time></trkpt><trkpt lat="44.699621177129906" lon="9.877034917141923"><ele>298.0</ele><time>2026-03-29T14:26:35Z</time></trkpt><trkpt lat="44.69953185659846" lon="9.877180443496895"><ele>298.0</ele><time>2026-03-29T14:26:36Z</time></trkpt><trkpt lat="44.699444187949105" lon="9.877330584143724"><ele>298.0</ele><time>2026-03-29T14:26:37Z</time></trkpt><trkpt lat="44.69935978423312" lon="9.877488102048948"><ele>298.0</ele><time>2026-03-29T14:26:38Z</time></trkpt><trkpt lat="44.699281623807366" lon="9.8776545368882"><ele>298.0</ele><time>2026-03-29T14:26:39Z</time></trkpt><trkpt lat="44.69920851006303" lon="9.877828604154667"><ele>301.0</ele><time>2026-03-29T14:26:40Z</time></trkpt><trkpt lat="44.69913360113327" lon="9.878002143430583"><ele>304.0</ele><time>2026-03-29T14:26:41Z</time></trkpt><trkpt lat="44.6990412394449" lon="9.878167025442247"><ele>307.0</ele><time>2026-03-29T14:26:42Z</time></trkpt><trkpt lat="44.69892689774485" lon="9.878310773228291"><ele>310.0</ele><time>2026-03-29T14:26:43Z</time></trkpt><trkpt lat="44.69878378159987" lon="9.878426337767925"><ele>308.0</ele><time>2026-03-29T14:26:44Z</time></trkpt><trkpt lat="44.69862860480682" lon="9.878511834389293"><ele>306.0</ele><time>2026-03-29T14:26:45Z</time></trkpt><trkpt lat="44.69848263904779" lon="9.878585545737181"><ele>304.0</ele><time>2026-03-29T14:26:46Z</time></trkpt><trkpt lat="44.69835415199133" lon="9.878671249825995"><ele>304.0</ele><time>2026-03-29T14:26:47Z</time></trkpt><trkpt lat="44.69822927436297" lon="9.878788438354412"><ele>304.0</ele><time>2026-03-29T14:26:48Z</time></trkpt><trkpt lat="44.69810901210025" lon="9.87893879011683"><ele>304.0</ele><time>2026-03-29T14:26:49Z</time></trkpt><trkpt lat="44.69799622673853" lon="9.879127285964412"><ele>302.0</ele><time>2026-03-29T14:26:50Z</time></trkpt><trkpt lat="44.697889275474076" lon="9.879339551710647"><ele>300.0</ele><time>2026-03-29T14:26:51Z</time></trkpt><trkpt lat="44.69777617226024" lon="9.879552578993179"><ele>298.0</ele><time>2026-03-29T14:26:52Z</time></trkpt><trkpt lat="44.697668783608385" lon="9.879758201482113"><ele>298.0</ele><time>2026-03-29T14:26:53Z</time></trkpt><trkpt lat="44.697562407688196" lon="9.879949817116922"><ele>298.0</ele><time>2026-03-29T14:26:54Z</time></trkpt><trkpt lat="44.69744690775667" lon="9.880134729479549"><ele>298.0</ele><time>2026-03-29T14:26:55Z</time></trkpt><trkpt lat="44.69733584591747" lon="9.880312844115306"><ele>302.3333333333333</ele><time>2026-03-29T14:26:56Z</time></trkpt><trkpt lat="44.69723622304014" lon="9.88048316014132"><ele>306.6666666666667</ele><time>2026-03-29T14:26:57Z</time></trkpt><trkpt lat="44.69713667419537" lon="9.880647387518344"><ele>311.0</ele><time>2026-03-29T14:26:58Z</time></trkpt><trkpt lat="44.69702699396427" lon="9.880794471989486"><ele>309.33333333333337</ele><time>2026-03-29T14:26:59Z</time></trkpt><trkpt lat="44.69689112329994" lon="9.880922206331501"><ele>307.6666666666667</ele><time>2026-03-29T14:27:00Z</time></trkpt><trkpt lat="44.69673755384816" lon="9.88101077149155"><ele>306.0</ele><time>2026-03-29T14:27:01Z</time></trkpt><trkpt lat="44.696588749417515" lon="9.881070980294767"><ele>306.0</ele><time>2026-03-29T14:27:02Z</time></trkpt><trkpt lat="44.6964404960876" lon="9.881132395327775"><ele>306.0</ele><time>2026-03-29T14:27:03Z</time></trkpt><trkpt lat="44.69629019568147" lon="9.881221789556754"><ele>306.0</ele><time>2026-03-29T14:27:04Z</time></trkpt><trkpt lat="44.69613781515874" lon="9.881345672444853"><ele>305.3333333333333</ele><time>2026-03-29T14:27:05Z</time></trkpt><trkpt lat="44.69598069927506" lon="9.881500884212846"><ele>304.66666666666663</ele><time>2026-03-29T14:27:06Z</time></trkpt><trkpt lat="44.6958249667776" lon="9.881686028770245"><ele>304.0</ele><time>2026-03-29T14:27:07Z</time></trkpt><trkpt lat="44.69567013075123" lon="9.881891708398392"><ele>304.0</ele><time>2026-03-29T14:27:08Z</time></trkpt><trkpt lat="44.695501163589704" lon="9.88211408548095"><ele>304.0</ele><time>2026-03-29T14:27:09Z</time></trkpt><trkpt lat="44.69533328258107" lon="9.882323628319911"><ele>302.0</ele><time>2026-03-29T14:27:10Z</time></trkpt><trkpt lat="44.69518562675668" lon="9.88251318508886"><ele>300.0</ele><time>2026-03-29T14:27:11Z</time></trkpt><trkpt lat="44.695048005262734" lon="9.88269537467031"><ele>298.0</ele><time>2026-03-29T14:27:12Z</time></trkpt><trkpt lat="44.69491930944307" lon="9.882876954500102"><ele>298.0</ele><time>2026-03-29T14:27:13Z</time></trkpt><trkpt lat="44.694794305537606" lon="9.883037240503013"><ele>298.0</ele><time>2026-03-29T14:27:14Z</time></trkpt><trkpt lat="44.69467362035355" lon="9.883190933058948"><ele>298.0</ele><time>2026-03-29T14:27:15Z</time></trkpt><trkpt lat="44.694566208653605" lon="9.883339754137971"><ele>301.66666666666663</ele><time>2026-03-29T14:27:16Z</time></trkpt><trkpt lat="44.69446110541149" lon="9.8834909226005"><ele>305.3333333333333</ele><time>2026-03-29T14:27:17Z</time></trkpt><trkpt lat="44.69436290278589" lon="9.88366285968547"><ele>309.0</ele><time>2026-03-29T14:27:18Z</time></trkpt><trkpt lat="44.69428549655179" lon="9.88385302984053"><ele>305.25</ele><time>2026-03-29T14:27:19Z</time></trkpt><trkpt lat="44.694237318348144" lon="9.884043271425728"><ele>301.5</ele><time>2026-03-29T14:27:20Z</time></trkpt><trkpt lat="44.69420552734958" lon="9.8841983491017"><ele>297.75</ele><time>2026-03-29T14:27:21Z</time></trkpt><trkpt lat="44.69415550786051" lon="9.884324333915824"><ele>294.0</ele><time>2026-03-29T14:27:22Z</time></trkpt><trkpt lat="44.69406654456012" lon="9.884420533764406"><ele>294.0</ele><time>2026-03-29T14:27:23Z</time></trkpt><trkpt lat="44.69394243834618" lon="9.884470952096027"><ele>294.0</ele><time>2026-03-29T14:27:24Z</time></trkpt><trkpt lat="44.69381228759445" lon="9.884449985876232"><ele>294.0</ele><time>2026-03-29T14:27:25Z</time></trkpt><trkpt lat="44.69368588601212" lon="9.884360033317925"><ele>294.0</ele><time>2026-03-29T14:27:26Z</time></trkpt><trkpt lat="44.69357339884321" lon="9.884266826955772"><ele>289.6666666666667</ele><time>2026-03-29T14:27:27Z</time></trkpt><trkpt lat="44.693430416285096" lon="9.884222445988309"><ele>285.33333333333337</ele><time>2026-03-29T14:27:28Z</time></trkpt><trkpt lat="44.69326582123726" lon="9.884200027266337"><ele>281.0</ele><time>2026-03-29T14:27:29Z</time></trkpt><trkpt lat="44.693093571327864" lon="9.884213491307897"><ele>281.0</ele><time>2026-03-29T14:27:30Z</time></trkpt><trkpt lat="44.692925451937604" lon="9.88423690249077"><ele>281.0</ele><time>2026-03-29T14:27:31Z</time></trkpt><trkpt lat="44.69275111430544" lon="9.884305365906668"><ele>281.0</ele><time>2026-03-29T14:27:32Z</time></trkpt><trkpt lat="44.69258068959803" lon="9.884406336587338"><ele>283.0</ele><time>2026-03-29T14:27:33Z</time></trkpt><trkpt lat="44.69242286932368" lon="9.884507321289014"><ele>285.0</ele><time>2026-03-29T14:27:34Z</time></trkpt><trkpt lat="44.69227368778664" lon="9.884582731154877"><ele>287.0</ele><time>2026-03-29T14:27:35Z</time></trkpt><trkpt lat="44.692133012320575" lon="9.884650482134061"><ele>287.0</ele><time>2026-03-29T14:27:36Z</time></trkpt><trkpt lat="44.692002496610776" lon="9.884726989763072"><ele>287.0</ele><time>2026-03-29T14:27:37Z</time></trkpt><trkpt lat="44.69188440605113" lon="9.884811281351256"><ele>287.0</ele><time>2026-03-29T14:27:38Z</time></trkpt><trkpt lat="44.69176842662673" lon="9.88488907145106"><ele>287.0</ele><time>2026-03-29T14:27:39Z</time></trkpt><trkpt lat="44.69165049483164" lon="9.884977816938589"><ele>287.6</ele><time>2026-03-29T14:27:40Z</time></trkpt><trkpt lat="44.69154591843547" lon="9.8850667110518"><ele>288.2</ele><time>2026-03-29T14:27:41Z</time></trkpt><trkpt lat="44.69147245616122" lon="9.885125911435102"><ele>288.8</ele><time>2026-03-29T14:27:42Z</time></trkpt><trkpt lat="44.69139766136848" lon="9.885177308245574"><ele>289.4</ele><time>2026-03-29T14:27:44Z</time></trkpt><trkpt lat="44.691456465832864" lon="9.885130725553639"><ele>290.0</ele><time>2026-03-29T14:27:56Z</time></trkpt><trkpt lat="44.69161031446062" lon="9.885052593412198"><ele>287.4</ele><time>2026-03-29T14:27:58Z</time></trkpt><trkpt lat="44.69169327688962" lon="9.88497423344202"><ele>284.8</ele><time>2026-03-29T14:28:00Z</time></trkpt><trkpt lat="44.691692613122974" lon="9.884853044850574"><ele>282.2</ele><time>2026-03-29T14:28:02Z</time></trkpt><trkpt lat="44.6916410821857" lon="9.884731778888469"><ele>279.6</ele><time>2026-03-29T14:28:04Z</time></trkpt><trkpt lat="44.69159442998936" lon="9.884600213636842"><ele>277.0</ele><time>2026-03-29T14:28:06Z</time></trkpt><trkpt lat="44.691548824254674" lon="9.884467316374465"><ele>277.0</ele><time>2026-03-29T14:28:08Z</time></trkpt><trkpt lat="44.691502507091606" lon="9.884331376104976"><ele>277.0</ele><time>2026-03-29T14:28:10Z</time></trkpt><trkpt lat="44.69145396560439" lon="9.884196192355175"><ele>277.0</ele><time>2026-03-29T14:28:12Z</time></trkpt><trkpt lat="44.69140970302029" lon="9.884068267044333"><ele>277.0</ele><time>2026-03-29T14:28:14Z</time></trkpt><trkpt lat="44.69139895864799" lon="9.883925557866705"><ele>277.0</ele><time>2026-03-29T14:28:16Z</time></trkpt><trkpt lat="44.69136996252904" lon="9.8838228556254"><ele>275.85714285714283</ele><time>2026-03-29T14:28:18Z</time></trkpt><trkpt lat="44.69130876858531" lon="9.883758726906272"><ele>274.71428571428567</ele><time>2026-03-29T14:29:02Z</time></trkpt><trkpt lat="44.69129008622979" lon="9.883668100920387"><ele>273.57142857142856</ele><time>2026-03-29T14:29:04Z</time></trkpt><trkpt lat="44.69128628304617" lon="9.88357372910886"><ele>272.42857142857144</ele><time>2026-03-29T14:29:06Z</time></trkpt><trkpt lat="44.69127079085193" lon="9.883468184732271"><ele>271.28571428571433</ele><time>2026-03-29T14:29:09Z</time></trkpt><trkpt lat="44.69124841320742" lon="9.883357081859636"><ele>270.14285714285717</ele><time>2026-03-29T14:29:12Z</time></trkpt><trkpt lat="44.69123376699364" lon="9.88326331625099"><ele>269.0</ele><time>2026-03-29T14:29:14Z</time></trkpt><trkpt lat="44.69122339255095" lon="9.883174531949253"><ele>268.6666666666667</ele><time>2026-03-29T14:29:16Z</time></trkpt><trkpt lat="44.69121416962059" lon="9.883070877087588"><ele>268.33333333333337</ele><time>2026-03-29T14:29:19Z</time></trkpt><trkpt lat="44.69120362976476" lon="9.882951860471573"><ele>268.0</ele><time>2026-03-29T14:29:22Z</time></trkpt><trkpt lat="44.691192014544306" lon="9.882840292124872"><ele>267.6666666666667</ele><time>2026-03-29T14:29:24Z</time></trkpt><trkpt lat="44.69118190261874" lon="9.882713092216301"><ele>267.3333333333333</ele><time>2026-03-29T14:29:26Z</time></trkpt><trkpt lat="44.691197768234204" lon="9.88259340175658"><ele>267.0</ele><time>2026-03-29T14:30:53.001Z</time></trkpt><trkpt lat="44.69121404153606" lon="9.882465365145213"><ele>267.0</ele><time>2026-03-29T14:30:55.001Z</time></trkpt><trkpt lat="44.69123858760755" lon="9.8823644496675"><ele>267.0</ele><time>2026-03-29T14:30:57.001Z</time></trkpt><trkpt lat="44.691230730009735" lon="9.882246622672769"><ele>267.0</ele><time>2026-03-29T14:30:59.001Z</time></trkpt><trkpt lat="44.691175989971846" lon="9.882128555042453"><ele>267.0</ele><time>2026-03-29T14:31:01.001Z</time></trkpt><trkpt lat="44.691092190197764" lon="9.882024257252832"><ele>267.0</ele><time>2026-03-29T14:31:03.001Z</time></trkpt><trkpt lat="44.690985449936136" lon="9.881992195228424"><ele>267.0</ele><time>2026-03-29T14:31:05.001Z</time></trkpt><trkpt lat="44.69091310315112" lon="9.881989169025497"><ele>267.0</ele><time>2026-03-29T14:31:06Z</time></trkpt><trkpt lat="44.69082953607102" lon="9.881993455941316"><ele>267.0</ele><time>2026-03-29T14:31:07Z</time></trkpt><trkpt lat="44.69074783866848" lon="9.881975193307868"><ele>267.0</ele><time>2026-03-29T14:31:08Z</time></trkpt><trkpt lat="44.690669983151956" lon="9.881978261666566"><ele>267.0</ele><time>2026-03-29T14:31:09Z</time></trkpt><trkpt lat="44.69059429575419" lon="9.881971926306203"><ele>267.0</ele><time>2026-03-29T14:31:10Z</time></trkpt><trkpt lat="44.690514236905" lon="9.88196060308438"><ele>267.0</ele><time>2026-03-29T14:31:11Z</time></trkpt><trkpt lat="44.69043315835839" lon="9.88194817321384"><ele>267.0</ele><time>2026-03-29T14:31:12Z</time></trkpt><trkpt lat="44.69035260566554" lon="9.88193622122601"><ele>267.0</ele><time>2026-03-29T14:31:13Z</time></trkpt><trkpt lat="44.69026522476788" lon="9.881931631099247"><ele>267.0</ele><time>2026-03-29T14:31:14Z</time></trkpt><trkpt lat="44.69018537337894" lon="9.88192679500947"><ele>267.0</ele><time>2026-03-29T14:31:15Z</time></trkpt><trkpt lat="44.69011288517657" lon="9.88190209507059"><ele>267.0</ele><time>2026-03-29T14:31:16Z</time></trkpt><trkpt lat="44.69004133730751" lon="9.881858652166882"><ele>267.1666666666667</ele><time>2026-03-29T14:31:17Z</time></trkpt><trkpt lat="44.68997104332401" lon="9.881792632005542"><ele>267.3333333333333</ele><time>2026-03-29T14:31:18Z</time></trkpt><trkpt lat="44.68990865803913" lon="9.881727604082755"><ele>267.5</ele><time>2026-03-29T14:31:19Z</time></trkpt><trkpt lat="44.68984321767665" lon="9.881648556341638"><ele>267.66666666666663</ele><time>2026-03-29T14:31:20Z</time></trkpt><trkpt lat="44.68981292969313" lon="9.881540623982819"><ele>267.8333333333333</ele><time>2026-03-29T14:31:21Z</time></trkpt><trkpt lat="44.68976415499781" lon="9.881428456346114"><ele>268.0</ele><time>2026-03-29T14:31:22Z</time></trkpt><trkpt lat="44.68971393306993" lon="9.881315813801482"><ele>268.0</ele><time>2026-03-29T14:31:23Z</time></trkpt><trkpt lat="44.689669237400025" lon="9.88121654261695"><ele>268.0</ele><time>2026-03-29T14:31:24Z</time></trkpt><trkpt lat="44.68959953861257" lon="9.881135743518977"><ele>268.0</ele><time>2026-03-29T14:31:25Z</time></trkpt><trkpt lat="44.689535230529124" lon="9.881041606099224"><ele>268.0</ele><time>2026-03-29T14:31:26Z</time></trkpt><trkpt lat="44.689474692748206" lon="9.880939807160933"><ele>268.0</ele><time>2026-03-29T14:31:27Z</time></trkpt><trkpt lat="44.68941817548531" lon="9.88083716927762"><ele>267.3333333333333</ele><time>2026-03-29T14:31:28Z</time></trkpt><trkpt lat="44.68936782112624" lon="9.88073732792957"><ele>266.66666666666663</ele><time>2026-03-29T14:31:29Z</time></trkpt><trkpt lat="44.68933161214603" lon="9.88065217018861"><ele>266.0</ele><time>2026-03-29T14:31:30Z</time></trkpt><trkpt lat="44.68927205803763" lon="9.880486451764437"><ele>265.3333333333333</ele><time>2026-03-29T14:31:32Z</time></trkpt><trkpt lat="44.68925860191637" lon="9.88038278844899"><ele>264.6666666666667</ele><time>2026-03-29T14:31:33Z</time></trkpt><trkpt lat="44.68923690377373" lon="9.88027746051063"><ele>264.0</ele><time>2026-03-29T14:31:33.999Z</time></trkpt><trkpt lat="44.689231886369505" lon="9.880155729583091"><ele>264.1666666666667</ele><time>2026-03-29T14:31:34.999Z</time></trkpt><trkpt lat="44.68920374068175" lon="9.880040204868221"><ele>264.3333333333333</ele><time>2026-03-29T14:31:35.999Z</time></trkpt><trkpt lat="44.68917412840731" lon="9.87993367001744"><ele>264.5</ele><time>2026-03-29T14:31:36.999Z</time></trkpt><trkpt lat="44.6891506069058" lon="9.879830541134602"><ele>264.66666666666663</ele><time>2026-03-29T14:31:37.999Z</time></trkpt><trkpt lat="44.68913188593071" lon="9.879724571977768"><ele>264.8333333333333</ele><time>2026-03-29T14:31:38.999Z</time></trkpt><trkpt lat="44.689113443002114" lon="9.879614480695466"><ele>265.0</ele><time>2026-03-29T14:31:39.999Z</time></trkpt><trkpt lat="44.68909315424816" lon="9.879502823280237"><ele>265.0</ele><time>2026-03-29T14:31:40.999Z</time></trkpt><trkpt lat="44.689070705334856" lon="9.87940193132464"><ele>265.0</ele><time>2026-03-29T14:31:41.999Z</time></trkpt><trkpt lat="44.689045727990965" lon="9.879294866686442"><ele>265.0</ele><time>2026-03-29T14:31:42.999Z</time></trkpt><trkpt lat="44.68901191906899" lon="9.87918123030176"><ele>265.0</ele><time>2026-03-29T14:31:43.999Z</time></trkpt><trkpt lat="44.6889715083791" lon="9.879071289738736"><ele>265.0</ele><time>2026-03-29T14:31:44.999Z</time></trkpt><trkpt lat="44.68892350440142" lon="9.878959231969679"><ele>265.0</ele><time>2026-03-29T14:31:45.999Z</time></trkpt><trkpt lat="44.68887130557316" lon="9.878842140092466"><ele>265.0</ele><time>2026-03-29T14:31:46.999Z</time></trkpt><trkpt lat="44.6888178480282" lon="9.878724018742858"><ele>265.0</ele><time>2026-03-29T14:31:47.999Z</time></trkpt><trkpt lat="44.688763025589054" lon="9.878597830739203"><ele>265.0</ele><time>2026-03-29T14:31:48.999Z</time></trkpt><trkpt lat="44.68870930456046" lon="9.878464936881858"><ele>265.0</ele><time>2026-03-29T14:31:49.999Z</time></trkpt><trkpt lat="44.68865512254808" lon="9.878325809988771"><ele>265.0</ele><time>2026-03-29T14:31:50.999Z</time></trkpt><trkpt lat="44.688600406320006" lon="9.878185277473422"><ele>265.0</ele><time>2026-03-29T14:31:51.999Z</time></trkpt><trkpt lat="44.688549745730214" lon="9.878061463806636"><ele>265.0</ele><time>2026-03-29T14:31:52.999Z</time></trkpt><trkpt lat="44.688498898515746" lon="9.877944501910626"><ele>265.0</ele><time>2026-03-29T14:31:53.999Z</time></trkpt><trkpt lat="44.688437147785855" lon="9.8778101653116"><ele>265.0</ele><time>2026-03-29T14:31:54.999Z</time></trkpt><trkpt lat="44.68837122107617" lon="9.877671865793749"><ele>265.0</ele><time>2026-03-29T14:31:55.999Z</time></trkpt><trkpt lat="44.68830432207443" lon="9.877536225596465"><ele>265.0</ele><time>2026-03-29T14:31:56.999Z</time></trkpt><trkpt lat="44.68823248495133" lon="9.877421291920934"><ele>265.0</ele><time>2026-03-29T14:31:57.999Z</time></trkpt><trkpt lat="44.688172909765086" lon="9.877289078037183"><ele>265.0</ele><time>2026-03-29T14:31:58.999Z</time></trkpt><trkpt lat="44.688126460202554" lon="9.877160378952446"><ele>265.0</ele><time>2026-03-29T14:31:59.999Z</time></trkpt><trkpt lat="44.68811981869101" lon="9.877008962320428"><ele>265.0</ele><time>2026-03-29T14:32:00.999Z</time></trkpt><trkpt lat="44.688100464466274" lon="9.876852637778025"><ele>266.0</ele><time>2026-03-29T14:32:01.999Z</time></trkpt><trkpt lat="44.68806359783082" lon="9.876680359325015"><ele>267.0</ele><time>2026-03-29T14:32:02.999Z</time></trkpt><trkpt lat="44.68801688922434" lon="9.876506932641307"><ele>268.0</ele><time>2026-03-29T14:32:03.999Z</time></trkpt><trkpt lat="44.687963581520265" lon="9.876325663810226"><ele>269.0</ele><time>2026-03-29T14:32:04.999Z</time></trkpt><trkpt lat="44.68790744472273" lon="9.876146971503362"><ele>269.0</ele><time>2026-03-29T14:32:05.999Z</time></trkpt><trkpt lat="44.68786209471954" lon="9.875980773722564"><ele>269.0</ele><time>2026-03-29T14:32:06.999Z</time></trkpt><trkpt lat="44.687830840825264" lon="9.87581338206102"><ele>269.0</ele><time>2026-03-29T14:32:07.999Z</time></trkpt><trkpt lat="44.687795121140944" lon="9.875639042237388"><ele>269.0</ele><time>2026-03-29T14:32:08.999Z</time></trkpt><trkpt lat="44.68773652461424" lon="9.875471594014984"><ele>269.25</ele><time>2026-03-29T14:32:09.999Z</time></trkpt><trkpt lat="44.687664137121864" lon="9.87531335214307"><ele>269.5</ele><time>2026-03-29T14:32:10.999Z</time></trkpt><trkpt lat="44.68757530079442" lon="9.875173654495981"><ele>269.75</ele><time>2026-03-29T14:32:11.999Z</time></trkpt><trkpt lat="44.687466450827976" lon="9.875067167252812"><ele>270.0</ele><time>2026-03-29T14:32:12.999Z</time></trkpt><trkpt lat="44.6873744342608" lon="9.874932055545507"><ele>270.0</ele><time>2026-03-29T14:32:13.999Z</time></trkpt><trkpt lat="44.68726625596158" lon="9.87482072641559"><ele>270.0</ele><time>2026-03-29T14:32:14.999Z</time></trkpt><trkpt lat="44.687164930495065" lon="9.874714106297679"><ele>270.0</ele><time>2026-03-29T14:32:15.999Z</time></trkpt><trkpt lat="44.68707548549932" lon="9.874601366171124"><ele>270.0</ele><time>2026-03-29T14:32:16.999Z</time></trkpt><trkpt lat="44.686986368739596" lon="9.87447001358768"><ele>270.5</ele><time>2026-03-29T14:32:17.999Z</time></trkpt><trkpt lat="44.68688912178013" lon="9.87434938587736"><ele>271.0</ele><time>2026-03-29T14:32:18.999Z</time></trkpt><trkpt lat="44.686799907280445" lon="9.874214885399997"><ele>271.5</ele><time>2026-03-29T14:32:19.999Z</time></trkpt><trkpt lat="44.6867201932984" lon="9.874097234403568"><ele>272.0</ele><time>2026-03-29T14:32:20.999Z</time></trkpt><trkpt lat="44.68665089345962" lon="9.873988137827402"><ele>272.0</ele><time>2026-03-29T14:32:21.999Z</time></trkpt><trkpt lat="44.68659285070262" lon="9.873873422865302"><ele>272.0</ele><time>2026-03-29T14:32:22.999Z</time></trkpt><trkpt lat="44.68656316880923" lon="9.87374046927132"><ele>272.0</ele><time>2026-03-29T14:32:23.999Z</time></trkpt><trkpt lat="44.68654614720168" lon="9.873617776643492"><ele>272.0</ele><time>2026-03-29T14:32:24.999Z</time></trkpt><trkpt lat="44.686534632233446" lon="9.873479382759832"><ele>272.0</ele><time>2026-03-29T14:32:25.999Z</time></trkpt><trkpt lat="44.68653372695915" lon="9.873332864852118"><ele>273.25</ele><time>2026-03-29T14:32:26.999Z</time></trkpt><trkpt lat="44.686533196888846" lon="9.873177261049678"><ele>274.5</ele><time>2026-03-29T14:32:27.999Z</time></trkpt><trkpt lat="44.686534339905904" lon="9.873013791966342"><ele>275.75</ele><time>2026-03-29T14:32:28.999Z</time></trkpt><trkpt lat="44.68651777481539" lon="9.872844111406742"><ele>277.0</ele><time>2026-03-29T14:32:29.999Z</time></trkpt><trkpt lat="44.68652350930535" lon="9.87266964656821"><ele>278.5</ele><time>2026-03-29T14:32:30.999Z</time></trkpt><trkpt lat="44.6864993052505" lon="9.872506751594836"><ele>280.0</ele><time>2026-03-29T14:32:31.999Z</time></trkpt><trkpt lat="44.686458676951766" lon="9.872351030683884"><ele>281.5</ele><time>2026-03-29T14:32:32.999Z</time></trkpt><trkpt lat="44.68639939423297" lon="9.872208304559733"><ele>283.0</ele><time>2026-03-29T14:32:33.999Z</time></trkpt><trkpt lat="44.68632704016469" lon="9.872068117136738"><ele>283.0</ele><time>2026-03-29T14:32:34.999Z</time></trkpt><trkpt lat="44.686245469889464" lon="9.871936744842419"><ele>283.0</ele><time>2026-03-29T14:32:35.999Z</time></trkpt><trkpt lat="44.6861638070099" lon="9.871813321887663"><ele>283.0</ele><time>2026-03-29T14:32:36.999Z</time></trkpt><trkpt lat="44.68609692312611" lon="9.871700524372361"><ele>283.0</ele><time>2026-03-29T14:32:37.999Z</time></trkpt><trkpt lat="44.68604740373755" lon="9.87160114114142"><ele>283.0</ele><time>2026-03-29T14:32:38.999Z</time></trkpt><trkpt lat="44.6860101049256" lon="9.871500962655096"><ele>282.6</ele><time>2026-03-29T14:32:39.999Z</time></trkpt><trkpt lat="44.68601125509251" lon="9.871387726279455"><ele>282.20000000000005</ele><time>2026-03-29T14:32:40.999Z</time></trkpt><trkpt lat="44.68604030926392" lon="9.871270351261083"><ele>281.8</ele><time>2026-03-29T14:32:41.999Z</time></trkpt><trkpt lat="44.68605242491955" lon="9.871126873887789"><ele>281.40000000000003</ele><time>2026-03-29T14:32:42.999Z</time></trkpt><trkpt lat="44.68608836555011" lon="9.870978088970231"><ele>281.0</ele><time>2026-03-29T14:32:43.999Z</time></trkpt><trkpt lat="44.68612096928223" lon="9.870827931655642"><ele>283.83333333333337</ele><time>2026-03-29T14:32:44.999Z</time></trkpt><trkpt lat="44.68618944865381" lon="9.870723344946102"><ele>286.6666666666667</ele><time>2026-03-29T14:32:45.999Z</time></trkpt><trkpt lat="44.68624159878434" lon="9.870607966161879"><ele>289.5</ele><time>2026-03-29T14:32:46.999Z</time></trkpt><trkpt lat="44.68630268912987" lon="9.870533047111884"><ele>292.3333333333333</ele><time>2026-03-29T14:32:47.999Z</time></trkpt><trkpt lat="44.68635036487313" lon="9.870441373365145"><ele>295.16666666666663</ele><time>2026-03-29T14:32:48.999Z</time></trkpt><trkpt lat="44.686382755042025" lon="9.870340124312499"><ele>298.0</ele><time>2026-03-29T14:32:49.999Z</time></trkpt><trkpt lat="44.686355375181876" lon="9.870217839868651"><ele>298.0</ele><time>2026-03-29T14:32:50.999Z</time></trkpt><trkpt lat="44.68628053165481" lon="9.8701334310262"><ele>298.0</ele><time>2026-03-29T14:32:51.999Z</time></trkpt><trkpt lat="44.686229188243054" lon="9.870035120071853"><ele>298.0</ele><time>2026-03-29T14:32:52.999Z</time></trkpt><trkpt lat="44.68617653826489" lon="9.86993703353596"><ele>298.0</ele><time>2026-03-29T14:32:54Z</time></trkpt><trkpt lat="44.68610885113677" lon="9.86984352465628"><ele>298.0</ele><time>2026-03-29T14:32:55Z</time></trkpt><trkpt lat="44.68606973170347" lon="9.869716791641363"><ele>297.8</ele><time>2026-03-29T14:32:56Z</time></trkpt><trkpt lat="44.68601599836272" lon="9.869599459655765"><ele>297.6</ele><time>2026-03-29T14:32:57Z</time></trkpt><trkpt lat="44.68595133681538" lon="9.869477446457246"><ele>297.4</ele><time>2026-03-29T14:32:58Z</time></trkpt><trkpt lat="44.68587099564864" lon="9.869358051900859"><ele>297.2</ele><time>2026-03-29T14:32:59Z</time></trkpt><trkpt lat="44.68579206889975" lon="9.869251349443179"><ele>297.0</ele><time>2026-03-29T14:33:00Z</time></trkpt><trkpt lat="44.68569944769022" lon="9.869175945935948"><ele>299.4</ele><time>2026-03-29T14:33:01Z</time></trkpt><trkpt lat="44.6856049951356" lon="9.869128645473973"><ele>301.79999999999995</ele><time>2026-03-29T14:33:02Z</time></trkpt><trkpt lat="44.685530890034336" lon="9.869074733406512"><ele>304.2</ele><time>2026-03-29T14:33:03Z</time></trkpt><trkpt lat="44.685488813954976" lon="9.868973068466095"><ele>306.59999999999997</ele><time>2026-03-29T14:33:04Z</time></trkpt><trkpt lat="44.68545692462123" lon="9.868850391391842"><ele>309.0</ele><time>2026-03-29T14:33:05Z</time></trkpt><trkpt lat="44.68540313637788" lon="9.868708834191908"><ele>309.0</ele><time>2026-03-29T14:33:06Z</time></trkpt><trkpt lat="44.68535885439598" lon="9.8685627728511"><ele>309.0</ele><time>2026-03-29T14:33:07Z</time></trkpt><trkpt lat="44.68531885394751" lon="9.868422960333161"><ele>309.0</ele><time>2026-03-29T14:33:08Z</time></trkpt><trkpt lat="44.68531211842593" lon="9.8683177443715"><ele>309.0</ele><time>2026-03-29T14:33:09Z</time></trkpt><trkpt lat="44.68532473393291" lon="9.868177412076983"><ele>309.0</ele><time>2026-03-29T14:33:10Z</time></trkpt><trkpt lat="44.685360059639436" lon="9.868027669572491"><ele>311.75</ele><time>2026-03-29T14:33:11Z</time></trkpt><trkpt lat="44.685437411377116" lon="9.867896884478043"><ele>314.5</ele><time>2026-03-29T14:33:12Z</time></trkpt><trkpt lat="44.68549782672233" lon="9.867748039764738"><ele>317.25</ele><time>2026-03-29T14:33:13Z</time></trkpt><trkpt lat="44.68555922312366" lon="9.867596399519842"><ele>320.0</ele><time>2026-03-29T14:33:14Z</time></trkpt><trkpt lat="44.68561754131664" lon="9.867445685068342"><ele>321.25</ele><time>2026-03-29T14:33:15Z</time></trkpt><trkpt lat="44.68565339009097" lon="9.867286212231548"><ele>322.5</ele><time>2026-03-29T14:33:16Z</time></trkpt><trkpt lat="44.685701564027575" lon="9.867138395131768"><ele>323.75</ele><time>2026-03-29T14:33:17Z</time></trkpt><trkpt lat="44.68573824437467" lon="9.866992201676526"><ele>325.0</ele><time>2026-03-29T14:33:18Z</time></trkpt><trkpt lat="44.68576566971374" lon="9.86684609095582"><ele>325.8</ele><time>2026-03-29T14:33:19Z</time></trkpt><trkpt lat="44.68578364303251" lon="9.866711721613006"><ele>326.6</ele><time>2026-03-29T14:33:19.999Z</time></trkpt><trkpt lat="44.685815952886685" lon="9.866600448331194"><ele>327.4</ele><time>2026-03-29T14:33:20.999Z</time></trkpt><trkpt lat="44.68582785386416" lon="9.866477897979541"><ele>328.2</ele><time>2026-03-29T14:33:21.999Z</time></trkpt><trkpt lat="44.68581707264459" lon="9.86632522507779"><ele>329.0</ele><time>2026-03-29T14:33:22.999Z</time></trkpt><trkpt lat="44.68574042318609" lon="9.866187140017606"><ele>329.0</ele><time>2026-03-29T14:33:23.999Z</time></trkpt><trkpt lat="44.6856743878489" lon="9.86605677448324"><ele>329.0</ele><time>2026-03-29T14:33:24.999Z</time></trkpt><trkpt lat="44.68562509392688" lon="9.86591474987212"><ele>329.0</ele><time>2026-03-29T14:33:25.999Z</time></trkpt><trkpt lat="44.68556783836665" lon="9.865786242936812"><ele>329.0</ele><time>2026-03-29T14:33:26.999Z</time></trkpt><trkpt lat="44.68551049168928" lon="9.865654941548497"><ele>329.0</ele><time>2026-03-29T14:33:27.999Z</time></trkpt><trkpt lat="44.68543911440773" lon="9.865525500883892"><ele>330.75</ele><time>2026-03-29T14:33:28.999Z</time></trkpt><trkpt lat="44.6853858321813" lon="9.86536693063222"><ele>332.5</ele><time>2026-03-29T14:33:29.999Z</time></trkpt><trkpt lat="44.68534812626527" lon="9.865190199589664"><ele>334.25</ele><time>2026-03-29T14:33:30.999Z</time></trkpt><trkpt lat="44.6852858596418" lon="9.865054913221263"><ele>336.0</ele><time>2026-03-29T14:33:31.999Z</time></trkpt><trkpt lat="44.68523953986326" lon="9.864922570079585"><ele>336.0</ele><time>2026-03-29T14:33:32.999Z</time></trkpt><trkpt lat="44.68519314824208" lon="9.864792744823195"><ele>336.0</ele><time>2026-03-29T14:33:33.999Z</time></trkpt><trkpt lat="44.685158963094665" lon="9.86466416040028"><ele>336.0</ele><time>2026-03-29T14:33:34.999Z</time></trkpt><trkpt lat="44.68514834405067" lon="9.864537792645779"><ele>336.0</ele><time>2026-03-29T14:33:35.999Z</time></trkpt><trkpt lat="44.68514813581265" lon="9.864389769481527"><ele>336.0</ele><time>2026-03-29T14:33:36.999Z</time></trkpt><trkpt lat="44.685177117138096" lon="9.86426089259736"><ele>335.6</ele><time>2026-03-29T14:33:37.999Z</time></trkpt><trkpt lat="44.68518804033095" lon="9.864135766322029"><ele>335.20000000000005</ele><time>2026-03-29T14:33:38.999Z</time></trkpt><trkpt lat="44.68524971098771" lon="9.864025370366255"><ele>334.79999999999995</ele><time>2026-03-29T14:33:39.999Z</time></trkpt><trkpt lat="44.68529508592807" lon="9.863894672941827"><ele>334.4</ele><time>2026-03-29T14:33:40.999Z</time></trkpt><trkpt lat="44.685324836281204" lon="9.863763752376052"><ele>334.0</ele><time>2026-03-29T14:33:41.999Z</time></trkpt><trkpt lat="44.685322946939394" lon="9.863626879522748"><ele>334.4</ele><time>2026-03-29T14:33:42.999Z</time></trkpt><trkpt lat="44.685265174227624" lon="9.863489678347072"><ele>334.79999999999995</ele><time>2026-03-29T14:33:43.999Z</time></trkpt><trkpt lat="44.685203553014325" lon="9.863385145932925"><ele>335.20000000000005</ele><time>2026-03-29T14:33:44.999Z</time></trkpt><trkpt lat="44.68516276764531" lon="9.86327128214609"><ele>335.6</ele><time>2026-03-29T14:33:45.999Z</time></trkpt><trkpt lat="44.685119241798496" lon="9.863152793278038"><ele>336.0</ele><time>2026-03-29T14:33:46.999Z</time></trkpt><trkpt lat="44.685043467109125" lon="9.863056594993242"><ele>336.0</ele><time>2026-03-29T14:33:47.999Z</time></trkpt><trkpt lat="44.6849932721847" lon="9.862982939948209"><ele>336.0</ele><time>2026-03-29T14:33:48.999Z</time></trkpt><trkpt lat="44.68494763078504" lon="9.862898399164104"><ele>336.0</ele><time>2026-03-29T14:33:49.999Z</time></trkpt><trkpt lat="44.684893750645045" lon="9.862788134653767"><ele>336.0</ele><time>2026-03-29T14:33:50.999Z</time></trkpt><trkpt lat="44.68485082001195" lon="9.86265539100344"><ele>336.0</ele><time>2026-03-29T14:33:51.999Z</time></trkpt><trkpt lat="44.68482216595447" lon="9.862513806987192"><ele>337.6</ele><time>2026-03-29T14:33:52.999Z</time></trkpt><trkpt lat="44.68478854088857" lon="9.862363392288422"><ele>339.20000000000005</ele><time>2026-03-29T14:33:53.999Z</time></trkpt><trkpt lat="44.684745945888075" lon="9.862223921217513"><ele>340.79999999999995</ele><time>2026-03-29T14:33:54.999Z</time></trkpt><trkpt lat="44.68468436787324" lon="9.862110382497166"><ele>342.4</ele><time>2026-03-29T14:33:55.999Z</time></trkpt><trkpt lat="44.68459684669078" lon="9.8620271880488"><ele>344.0</ele><time>2026-03-29T14:33:56.999Z</time></trkpt><trkpt lat="44.684510806501216" lon="9.861957971581827"><ele>344.0</ele><time>2026-03-29T14:33:57.999Z</time></trkpt><trkpt lat="44.684440163148295" lon="9.861881080280591"><ele>344.0</ele><time>2026-03-29T14:33:58.999Z</time></trkpt><trkpt lat="44.684400097086055" lon="9.861783496960928"><ele>344.0</ele><time>2026-03-29T14:33:59.999Z</time></trkpt><trkpt lat="44.684386071108655" lon="9.861666760492238"><ele>344.0</ele><time>2026-03-29T14:34:00.999Z</time></trkpt><trkpt lat="44.68437582045421" lon="9.86157753667711"><ele>344.0</ele><time>2026-03-29T14:34:01.999Z</time></trkpt><trkpt lat="44.68441974882735" lon="9.861475986986171"><ele>344.0</ele><time>2026-03-29T14:34:02.999Z</time></trkpt><trkpt lat="44.68442745428365" lon="9.861359030863078"><ele>343.6</ele><time>2026-03-29T14:34:03.999Z</time></trkpt><trkpt lat="44.68442873805351" lon="9.861228350268096"><ele>343.2</ele><time>2026-03-29T14:34:04.999Z</time></trkpt><trkpt lat="44.68444014283757" lon="9.861110643098327"><ele>342.8</ele><time>2026-03-29T14:34:05.999Z</time></trkpt><trkpt lat="44.6844400119934" lon="9.86097369528667"><ele>342.40000000000003</ele><time>2026-03-29T14:34:06.999Z</time></trkpt><trkpt lat="44.68443565111038" lon="9.86083475116631"><ele>342.0</ele><time>2026-03-29T14:34:07.999Z</time></trkpt><trkpt lat="44.684433365925464" lon="9.860694240551611"><ele>343.2857142857143</ele><time>2026-03-29T14:34:08.999Z</time></trkpt><trkpt lat="44.68442587550296" lon="9.860582217982078"><ele>344.57142857142856</ele><time>2026-03-29T14:34:09.999Z</time></trkpt><trkpt lat="44.684410314153446" lon="9.860480633870203"><ele>345.8571428571429</ele><time>2026-03-29T14:34:10.999Z</time></trkpt><trkpt lat="44.68438123625796" lon="9.860387369998254"><ele>347.1428571428571</ele><time>2026-03-29T14:34:11.999Z</time></trkpt><trkpt lat="44.684362119355534" lon="9.860290532685987"><ele>348.42857142857144</ele><time>2026-03-29T14:34:12.999Z</time></trkpt><trkpt lat="44.68433911385817" lon="9.8601970529403"><ele>349.7142857142857</ele><time>2026-03-29T14:34:13.999Z</time></trkpt><trkpt lat="44.68433538121064" lon="9.860101343044251"><ele>351.0</ele><time>2026-03-29T14:34:14.999Z</time></trkpt><trkpt lat="44.684353336323305" lon="9.860010077367894"><ele>353.0</ele><time>2026-03-29T14:34:15.999Z</time></trkpt><trkpt lat="44.68438397670935" lon="9.859911236931584"><ele>355.0</ele><time>2026-03-29T14:34:16.999Z</time></trkpt><trkpt lat="44.684419498569525" lon="9.859794317087925"><ele>357.0</ele><time>2026-03-29T14:34:17.999Z</time></trkpt><trkpt lat="44.684438541260526" lon="9.859677860252337"><ele>359.0</ele><time>2026-03-29T14:34:18.999Z</time></trkpt><trkpt lat="44.68443826597002" lon="9.859521902889554"><ele>361.0</ele><time>2026-03-29T14:34:19.999Z</time></trkpt><trkpt lat="44.684455067221435" lon="9.859371759428035"><ele>365.20000000000005</ele><time>2026-03-29T14:34:20.999Z</time></trkpt><trkpt lat="44.68444814999993" lon="9.859241433986055"><ele>369.40000000000003</ele><time>2026-03-29T14:34:21.999Z</time></trkpt><trkpt lat="44.6844432376459" lon="9.859123354759719"><ele>373.6</ele><time>2026-03-29T14:34:22.999Z</time></trkpt><trkpt lat="44.68444331259807" lon="9.858983612846814"><ele>377.8</ele><time>2026-03-29T14:34:23.999Z</time></trkpt><trkpt lat="44.684443093159864" lon="9.858839019369453"><ele>382.0</ele><time>2026-03-29T14:34:24.999Z</time></trkpt><trkpt lat="44.684444243379325" lon="9.858682913404406"><ele>382.0</ele><time>2026-03-29T14:34:25.999Z</time></trkpt><trkpt lat="44.68445711617676" lon="9.85852711572481"><ele>382.0</ele><time>2026-03-29T14:34:26.999Z</time></trkpt><trkpt lat="44.684473245450654" lon="9.858365504240837"><ele>382.0</ele><time>2026-03-29T14:34:27.999Z</time></trkpt><trkpt lat="44.68449688292529" lon="9.858183800883056"><ele>382.0</ele><time>2026-03-29T14:34:28.999Z</time></trkpt><trkpt lat="44.68451748230704" lon="9.85800936521981"><ele>382.40000000000003</ele><time>2026-03-29T14:34:29.999Z</time></trkpt><trkpt lat="44.684532857586554" lon="9.857837729041137"><ele>382.8</ele><time>2026-03-29T14:34:30.999Z</time></trkpt><trkpt lat="44.684545552544414" lon="9.857686050902075"><ele>383.2</ele><time>2026-03-29T14:34:31.999Z</time></trkpt><trkpt lat="44.68455581751564" lon="9.857565277102113"><ele>383.6</ele><time>2026-03-29T14:34:32.999Z</time></trkpt><trkpt lat="44.68455958557507" lon="9.857457460255667"><ele>384.0</ele><time>2026-03-29T14:34:33.999Z</time></trkpt><trkpt lat="44.68455703417843" lon="9.85735051729296"><ele>383.1666666666667</ele><time>2026-03-29T14:34:34.999Z</time></trkpt><trkpt lat="44.68454709790665" lon="9.85724843370283"><ele>382.3333333333333</ele><time>2026-03-29T14:34:35.999Z</time></trkpt><trkpt lat="44.68451550890554" lon="9.857150450488861"><ele>381.5</ele><time>2026-03-29T14:34:36.999Z</time></trkpt><trkpt lat="44.684469012871986" lon="9.857073715006274"><ele>380.66666666666663</ele><time>2026-03-29T14:34:37.999Z</time></trkpt><trkpt lat="44.684377605056426" lon="9.85700542359028"><ele>379.8333333333333</ele><time>2026-03-29T14:34:38.999Z</time></trkpt><trkpt lat="44.68427752269167" lon="9.856936064281106"><ele>379.0</ele><time>2026-03-29T14:34:39.999Z</time></trkpt><trkpt lat="44.68416275547853" lon="9.856921497440492"><ele>379.0</ele><time>2026-03-29T14:34:40.999Z</time></trkpt><trkpt lat="44.68406198756126" lon="9.856863995935978"><ele>379.0</ele><time>2026-03-29T14:34:41.999Z</time></trkpt><trkpt lat="44.68395985551199" lon="9.856777508117823"><ele>379.0</ele><time>2026-03-29T14:34:42.999Z</time></trkpt><trkpt lat="44.68387897665131" lon="9.856676320879135"><ele>379.0</ele><time>2026-03-29T14:34:43.999Z</time></trkpt><trkpt lat="44.683811218687616" lon="9.856562247221387"><ele>379.0</ele><time>2026-03-29T14:34:44.999Z</time></trkpt><trkpt lat="44.68374396503512" lon="9.85645702749438"><ele>382.5</ele><time>2026-03-29T14:34:45.999Z</time></trkpt><trkpt lat="44.683673315387495" lon="9.856376852139551"><ele>386.0</ele><time>2026-03-29T14:34:46.999Z</time></trkpt><trkpt lat="44.68359141577309" lon="9.856275701017966"><ele>389.5</ele><time>2026-03-29T14:34:47.999Z</time></trkpt><trkpt lat="44.68345620834861" lon="9.85627910089319"><ele>393.0</ele><time>2026-03-29T14:34:48.999Z</time></trkpt><trkpt lat="44.68333874180377" lon="9.85627826483236"><ele>394.0</ele><time>2026-03-29T14:34:49.999Z</time></trkpt><trkpt lat="44.683227221003094" lon="9.856293088698544"><ele>395.0</ele><time>2026-03-29T14:34:50.999Z</time></trkpt><trkpt lat="44.68310534294641" lon="9.856297693935256"><ele>396.0</ele><time>2026-03-29T14:34:51.999Z</time></trkpt><trkpt lat="44.68298744691029" lon="9.856313409848621"><ele>397.0</ele><time>2026-03-29T14:34:52.999Z</time></trkpt><trkpt lat="44.68287351445268" lon="9.856327597132166"><ele>398.40000000000003</ele><time>2026-03-29T14:34:53.999Z</time></trkpt><trkpt lat="44.68276048266863" lon="9.85630328342973"><ele>399.8</ele><time>2026-03-29T14:34:54.999Z</time></trkpt><trkpt lat="44.6826635939954" lon="9.856271998937132"><ele>401.2</ele><time>2026-03-29T14:34:55.999Z</time></trkpt><trkpt lat="44.68257939963048" lon="9.8562388299979"><ele>402.6</ele><time>2026-03-29T14:34:56.999Z</time></trkpt><trkpt lat="44.68250932661734" lon="9.856186586085213"><ele>404.0</ele><time>2026-03-29T14:34:57.999Z</time></trkpt><trkpt lat="44.68244120687426" lon="9.856104590360294"><ele>404.0</ele><time>2026-03-29T14:34:58.999Z</time></trkpt><trkpt lat="44.68240223302101" lon="9.85599132579267"><ele>404.0</ele><time>2026-03-29T14:35:00Z</time></trkpt><trkpt lat="44.682344781002165" lon="9.855891796813605"><ele>404.0</ele><time>2026-03-29T14:35:01Z</time></trkpt><trkpt lat="44.682368072303525" lon="9.855759842204842"><ele>404.0</ele><time>2026-03-29T14:35:02Z</time></trkpt><trkpt lat="44.68238588969851" lon="9.85564027542197"><ele>404.0</ele><time>2026-03-29T14:35:03Z</time></trkpt><trkpt lat="44.68239278978649" lon="9.855506324085436"><ele>406.5</ele><time>2026-03-29T14:35:04Z</time></trkpt><trkpt lat="44.682443927849604" lon="9.855380741463332"><ele>409.0</ele><time>2026-03-29T14:35:05Z</time></trkpt><trkpt lat="44.68247150092982" lon="9.855208901317917"><ele>411.5</ele><time>2026-03-29T14:35:06Z</time></trkpt><trkpt lat="44.682495900663135" lon="9.855036043907662"><ele>414.0</ele><time>2026-03-29T14:35:07Z</time></trkpt><trkpt lat="44.68252042072734" lon="9.854857238955178"><ele>425.0</ele><time>2026-03-29T14:35:08Z</time></trkpt><trkpt lat="44.68254376575341" lon="9.854690076229874"><ele>425.0</ele><time>2026-03-29T14:35:09Z</time></trkpt><trkpt lat="44.68256573774896" lon="9.854558378845306"><ele>425.0</ele><time>2026-03-29T14:35:10Z</time></trkpt><trkpt lat="44.682580021014104" lon="9.854429102581419"><ele>425.0</ele><time>2026-03-29T14:35:12Z</time></trkpt></trkseg></trk></gpx>